<?xml version="1.0" encoding="UTF-8" standalone="no" ?>
<gpx xmlns="http://www.topografix.com/GPX/1/1" xmlns:xsi="http://www.w3.org/2001/XMLSchema-instance" xsi:schemaLocation="http://www.topografix.com/GPX/1/1 http://www.topografix.com/GPX/1/1/gpx.xsd" version="1.1" creator="VisuGPX - https://www.visugpx.com">
  <metadata>
    <name>Sortie Vélo SLPI 27112016</name>
    <desc><![CDATA[Sortie Vélo SLPI 27112016
Boucle au départ du Vélodrome de Coueron via Bac de Couëron et Navibus Trentemoult]]></desc>
  </metadata>
  <trk>
    <name><![CDATA[2016-11-27 09:21]]></name>
    <desc><![CDATA[<p>Heure de départ: 11/27/2016 09:21</p><p>Heure d'arrivée: 11/27/2016 15:43</p><p>Distance: 38,4 km (06:21)</p><p>Temps déplacement: 03:47</p><p>Vitesse moyenne: 6,04 km/h</p><p>Vitesse moyenne mouv.: 10,12 km/h</p><p>Vitesse Max.: 31,79km/h</p><p>Altitude minimale: -22 m</p><p>Altitude maximale: 39 m</p><p>Vitesse de montée: 70,3 m/h</p><p>Vitesse de descente: -164 m/h</p><p>Gain d'altitude: 217 m</p><p>Perte d'altitude: -234 m</p><p>Temps de montée: 03:05</p><p>Temps de descente: 01:25</p><hr align="center" width="480" style="height: 2px; width: 517px"/>]]></desc>
    <trkseg>
      <trkpt lat="47.21125" lon="-1.73619">
        <ele>21.99</ele>
        <time>2016-11-27T08:21:44Z</time>
      </trkpt>
      <trkpt lat="47.21118" lon="-1.7365">
        <ele>18.2</ele>
        <time>2016-11-27T08:22:16Z</time>
      </trkpt>
      <trkpt lat="47.21116" lon="-1.73678">
        <ele>16.86</ele>
        <time>2016-11-27T08:22:19Z</time>
      </trkpt>
      <trkpt lat="47.21116" lon="-1.73706">
        <ele>16.55</ele>
        <time>2016-11-27T08:22:22Z</time>
      </trkpt>
      <trkpt lat="47.21116" lon="-1.73739">
        <ele>16.85</ele>
        <time>2016-11-27T08:22:25Z</time>
      </trkpt>
      <trkpt lat="47.21119" lon="-1.73773">
        <ele>16.93</ele>
        <time>2016-11-27T08:22:28Z</time>
      </trkpt>
      <trkpt lat="47.21125" lon="-1.73806">
        <ele>16.42</ele>
        <time>2016-11-27T08:22:31Z</time>
      </trkpt>
      <trkpt lat="47.21133" lon="-1.73841">
        <ele>15.67</ele>
        <time>2016-11-27T08:22:34Z</time>
      </trkpt>
      <trkpt lat="47.21143" lon="-1.73875">
        <ele>15.17</ele>
        <time>2016-11-27T08:22:37Z</time>
      </trkpt>
      <trkpt lat="47.21151" lon="-1.73905">
        <ele>14.69</ele>
        <time>2016-11-27T08:22:40Z</time>
      </trkpt>
      <trkpt lat="47.21157" lon="-1.73931">
        <ele>13.99</ele>
        <time>2016-11-27T08:22:43Z</time>
      </trkpt>
      <trkpt lat="47.21161" lon="-1.73959">
        <ele>13.17</ele>
        <time>2016-11-27T08:22:47Z</time>
      </trkpt>
      <trkpt lat="47.21165" lon="-1.73989">
        <ele>12.75</ele>
        <time>2016-11-27T08:22:51Z</time>
      </trkpt>
      <trkpt lat="47.21169" lon="-1.74015">
        <ele>12.67</ele>
        <time>2016-11-27T08:22:55Z</time>
      </trkpt>
      <trkpt lat="47.2118" lon="-1.74043">
        <ele>12.33</ele>
        <time>2016-11-27T08:23:00Z</time>
      </trkpt>
      <trkpt lat="47.2117" lon="-1.74067">
        <ele>11.8</ele>
        <time>2016-11-27T08:23:05Z</time>
      </trkpt>
      <trkpt lat="47.21156" lon="-1.74089">
        <ele>11.93</ele>
        <time>2016-11-27T08:23:09Z</time>
      </trkpt>
      <trkpt lat="47.21141" lon="-1.74109">
        <ele>11.85</ele>
        <time>2016-11-27T08:23:13Z</time>
      </trkpt>
      <trkpt lat="47.21126" lon="-1.74128">
        <ele>11.86</ele>
        <time>2016-11-27T08:23:17Z</time>
      </trkpt>
      <trkpt lat="47.21111" lon="-1.74148">
        <ele>11.84</ele>
        <time>2016-11-27T08:23:21Z</time>
      </trkpt>
      <trkpt lat="47.21097" lon="-1.7417">
        <ele>11.72</ele>
        <time>2016-11-27T08:23:25Z</time>
      </trkpt>
      <trkpt lat="47.21082" lon="-1.74191">
        <ele>11.63</ele>
        <time>2016-11-27T08:23:29Z</time>
      </trkpt>
      <trkpt lat="47.21067" lon="-1.74212">
        <ele>11.58</ele>
        <time>2016-11-27T08:23:33Z</time>
      </trkpt>
      <trkpt lat="47.21053" lon="-1.74232">
        <ele>11.62</ele>
        <time>2016-11-27T08:23:37Z</time>
      </trkpt>
      <trkpt lat="47.2104" lon="-1.74257">
        <ele>11.82</ele>
        <time>2016-11-27T08:23:41Z</time>
      </trkpt>
      <trkpt lat="47.21029" lon="-1.74281">
        <ele>12.02</ele>
        <time>2016-11-27T08:23:45Z</time>
      </trkpt>
      <trkpt lat="47.21017" lon="-1.74308">
        <ele>12.32</ele>
        <time>2016-11-27T08:23:49Z</time>
      </trkpt>
      <trkpt lat="47.21005" lon="-1.74335">
        <ele>12.63</ele>
        <time>2016-11-27T08:23:54Z</time>
      </trkpt>
      <trkpt lat="47.20996" lon="-1.74363">
        <ele>12.83</ele>
        <time>2016-11-27T08:23:58Z</time>
      </trkpt>
      <trkpt lat="47.20992" lon="-1.74394">
        <ele>13.09</ele>
        <time>2016-11-27T08:24:02Z</time>
      </trkpt>
      <trkpt lat="47.2099" lon="-1.74426">
        <ele>13.39</ele>
        <time>2016-11-27T08:24:06Z</time>
      </trkpt>
      <trkpt lat="47.20989" lon="-1.74456">
        <ele>13.49</ele>
        <time>2016-11-27T08:24:10Z</time>
      </trkpt>
      <trkpt lat="47.2099" lon="-1.74485">
        <ele>13.56</ele>
        <time>2016-11-27T08:24:14Z</time>
      </trkpt>
      <trkpt lat="47.20989" lon="-1.74512">
        <ele>13.67</ele>
        <time>2016-11-27T08:24:18Z</time>
      </trkpt>
      <trkpt lat="47.20985" lon="-1.74539">
        <ele>13.99</ele>
        <time>2016-11-27T08:24:22Z</time>
      </trkpt>
      <trkpt lat="47.20979" lon="-1.74569">
        <ele>14.57</ele>
        <time>2016-11-27T08:24:27Z</time>
      </trkpt>
      <trkpt lat="47.20977" lon="-1.74598">
        <ele>15.07</ele>
        <time>2016-11-27T08:24:32Z</time>
      </trkpt>
      <trkpt lat="47.20972" lon="-1.74626">
        <ele>15.62</ele>
        <time>2016-11-27T08:24:37Z</time>
      </trkpt>
      <trkpt lat="47.20967" lon="-1.74658">
        <ele>16.25</ele>
        <time>2016-11-27T08:24:42Z</time>
      </trkpt>
      <trkpt lat="47.20963" lon="-1.74687">
        <ele>16.72</ele>
        <time>2016-11-27T08:24:47Z</time>
      </trkpt>
      <trkpt lat="47.20962" lon="-1.74718">
        <ele>17.04</ele>
        <time>2016-11-27T08:24:52Z</time>
      </trkpt>
      <trkpt lat="47.2096" lon="-1.74749">
        <ele>17.17</ele>
        <time>2016-11-27T08:24:57Z</time>
      </trkpt>
      <trkpt lat="47.20958" lon="-1.74782">
        <ele>17.2</ele>
        <time>2016-11-27T08:25:02Z</time>
      </trkpt>
      <trkpt lat="47.20956" lon="-1.74812">
        <ele>17.29</ele>
        <time>2016-11-27T08:25:07Z</time>
      </trkpt>
      <trkpt lat="47.20952" lon="-1.74843">
        <ele>17.45</ele>
        <time>2016-11-27T08:25:12Z</time>
      </trkpt>
      <trkpt lat="47.20945" lon="-1.74869">
        <ele>17.35</ele>
        <time>2016-11-27T08:25:17Z</time>
      </trkpt>
      <trkpt lat="47.20926" lon="-1.74885">
        <ele>17.12</ele>
        <time>2016-11-27T08:25:22Z</time>
      </trkpt>
      <trkpt lat="47.20906" lon="-1.74891">
        <ele>16.88</ele>
        <time>2016-11-27T08:25:26Z</time>
      </trkpt>
      <trkpt lat="47.20887" lon="-1.74898">
        <ele>16.51</ele>
        <time>2016-11-27T08:25:30Z</time>
      </trkpt>
      <trkpt lat="47.20868" lon="-1.74904">
        <ele>16.15</ele>
        <time>2016-11-27T08:25:34Z</time>
      </trkpt>
      <trkpt lat="47.2085" lon="-1.74912">
        <ele>16.14</ele>
        <time>2016-11-27T08:25:38Z</time>
      </trkpt>
      <trkpt lat="47.2083" lon="-1.74919">
        <ele>16.9</ele>
        <time>2016-11-27T08:25:42Z</time>
      </trkpt>
      <trkpt lat="47.20811" lon="-1.74925">
        <ele>17.25</ele>
        <time>2016-11-27T08:25:45Z</time>
      </trkpt>
      <trkpt lat="47.20793" lon="-1.74933">
        <ele>17.08</ele>
        <time>2016-11-27T08:25:48Z</time>
      </trkpt>
      <trkpt lat="47.20774" lon="-1.74942">
        <ele>16.46</ele>
        <time>2016-11-27T08:25:51Z</time>
      </trkpt>
      <trkpt lat="47.20756" lon="-1.74949">
        <ele>14.92</ele>
        <time>2016-11-27T08:25:54Z</time>
      </trkpt>
      <trkpt lat="47.20738" lon="-1.74954">
        <ele>12.57</ele>
        <time>2016-11-27T08:25:57Z</time>
      </trkpt>
      <trkpt lat="47.20716" lon="-1.74962">
        <ele>8.94</ele>
        <time>2016-11-27T08:26:01Z</time>
      </trkpt>
      <trkpt lat="47.20695" lon="-1.74971">
        <ele>5.16</ele>
        <time>2016-11-27T08:26:05Z</time>
      </trkpt>
      <trkpt lat="47.20674" lon="-1.74989">
        <ele>1.8</ele>
        <time>2016-11-27T08:26:09Z</time>
      </trkpt>
      <trkpt lat="47.20661" lon="-1.75013">
        <ele>0.27</ele>
        <time>2016-11-27T08:26:12Z</time>
      </trkpt>
      <trkpt lat="47.20652" lon="-1.75039">
        <ele>-0.93</ele>
        <time>2016-11-27T08:26:15Z</time>
      </trkpt>
      <trkpt lat="47.20644" lon="-1.75067">
        <ele>-2.03</ele>
        <time>2016-11-27T08:26:18Z</time>
      </trkpt>
      <trkpt lat="47.20637" lon="-1.75095">
        <ele>-3.15</ele>
        <time>2016-11-27T08:26:21Z</time>
      </trkpt>
      <trkpt lat="47.20629" lon="-1.75122">
        <ele>-4.15</ele>
        <time>2016-11-27T08:26:24Z</time>
      </trkpt>
      <trkpt lat="47.20621" lon="-1.75147">
        <ele>-5.11</ele>
        <time>2016-11-27T08:26:27Z</time>
      </trkpt>
      <trkpt lat="47.20609" lon="-1.75175">
        <ele>-5.95</ele>
        <time>2016-11-27T08:26:31Z</time>
      </trkpt>
      <trkpt lat="47.20595" lon="-1.75194">
        <ele>-6.58</ele>
        <time>2016-11-27T08:26:35Z</time>
      </trkpt>
      <trkpt lat="47.20582" lon="-1.75213">
        <ele>-6.98</ele>
        <time>2016-11-27T08:26:41Z</time>
      </trkpt>
      <trkpt lat="47.20574" lon="-1.75237">
        <ele>-7.7</ele>
        <time>2016-11-27T08:27:07Z</time>
      </trkpt>
      <trkpt lat="47.20564" lon="-1.75259">
        <ele>-8.13</ele>
        <time>2016-11-27T08:27:24Z</time>
      </trkpt>
      <trkpt lat="47.20551" lon="-1.75284">
        <ele>-7.99</ele>
        <time>2016-11-27T08:27:36Z</time>
      </trkpt>
      <trkpt lat="47.20545" lon="-1.75309">
        <ele>-6.27</ele>
        <time>2016-11-27T08:29:19Z</time>
      </trkpt>
      <trkpt lat="47.20534" lon="-1.7533">
        <ele>-5.32</ele>
        <time>2016-11-27T08:30:11Z</time>
      </trkpt>
      <trkpt lat="47.20525" lon="-1.75353">
        <ele>-4.99</ele>
        <time>2016-11-27T08:30:20Z</time>
      </trkpt>
      <trkpt lat="47.20514" lon="-1.75378">
        <ele>-4.86</ele>
        <time>2016-11-27T08:30:28Z</time>
      </trkpt>
      <trkpt lat="47.20506" lon="-1.75406">
        <ele>-4.92</ele>
        <time>2016-11-27T08:30:34Z</time>
      </trkpt>
      <trkpt lat="47.20498" lon="-1.75431">
        <ele>-5.18</ele>
        <time>2016-11-27T08:30:39Z</time>
      </trkpt>
      <trkpt lat="47.20489" lon="-1.75461">
        <ele>-5.45</ele>
        <time>2016-11-27T08:30:44Z</time>
      </trkpt>
      <trkpt lat="47.20481" lon="-1.75489">
        <ele>-5.73</ele>
        <time>2016-11-27T08:30:50Z</time>
      </trkpt>
      <trkpt lat="47.20472" lon="-1.75514">
        <ele>-6.01</ele>
        <time>2016-11-27T08:30:56Z</time>
      </trkpt>
      <trkpt lat="47.20461" lon="-1.75538">
        <ele>-6.35</ele>
        <time>2016-11-27T08:31:03Z</time>
      </trkpt>
      <trkpt lat="47.20449" lon="-1.7556">
        <ele>-6.68</ele>
        <time>2016-11-27T08:31:10Z</time>
      </trkpt>
      <trkpt lat="47.20434" lon="-1.75577">
        <ele>-7.06</ele>
        <time>2016-11-27T08:31:18Z</time>
      </trkpt>
      <trkpt lat="47.20417" lon="-1.75589">
        <ele>-7.45</ele>
        <time>2016-11-27T08:31:28Z</time>
      </trkpt>
      <trkpt lat="47.20399" lon="-1.75593">
        <ele>-7.68</ele>
        <time>2016-11-27T08:31:37Z</time>
      </trkpt>
      <trkpt lat="47.20381" lon="-1.75592">
        <ele>-7.77</ele>
        <time>2016-11-27T08:31:56Z</time>
      </trkpt>
      <trkpt lat="47.20363" lon="-1.75586">
        <ele>-7.97</ele>
        <time>2016-11-27T08:32:40Z</time>
      </trkpt>
      <trkpt lat="47.2035" lon="-1.75567">
        <ele>-7.77</ele>
        <time>2016-11-27T08:32:54Z</time>
      </trkpt>
      <trkpt lat="47.20338" lon="-1.75545">
        <ele>-7.48</ele>
        <time>2016-11-27T08:33:12Z</time>
      </trkpt>
      <trkpt lat="47.20328" lon="-1.75523">
        <ele>-7.21</ele>
        <time>2016-11-27T08:33:29Z</time>
      </trkpt>
      <trkpt lat="47.20315" lon="-1.75502">
        <ele>-6.8</ele>
        <time>2016-11-27T08:33:47Z</time>
      </trkpt>
      <trkpt lat="47.20297" lon="-1.75495">
        <ele>-5.89</ele>
        <time>2016-11-27T08:34:04Z</time>
      </trkpt>
      <trkpt lat="47.2028" lon="-1.75484">
        <ele>-4.34</ele>
        <time>2016-11-27T08:34:22Z</time>
      </trkpt>
      <trkpt lat="47.20262" lon="-1.75477">
        <ele>-2.32</ele>
        <time>2016-11-27T08:34:41Z</time>
      </trkpt>
      <trkpt lat="47.2025" lon="-1.75458">
        <ele>0.06</ele>
        <time>2016-11-27T08:35:03Z</time>
      </trkpt>
      <trkpt lat="47.20264" lon="-1.75439">
        <ele>5.99</ele>
        <time>2016-11-27T08:40:32Z</time>
      </trkpt>
      <trkpt lat="47.20279" lon="-1.75422">
        <ele>5.89</ele>
        <time>2016-11-27T08:40:50Z</time>
      </trkpt>
      <trkpt lat="47.20277" lon="-1.75394">
        <ele>5.76</ele>
        <time>2016-11-27T08:41:19Z</time>
      </trkpt>
      <trkpt lat="47.2027" lon="-1.75368">
        <ele>5.75</ele>
        <time>2016-11-27T08:41:27Z</time>
      </trkpt>
      <trkpt lat="47.20263" lon="-1.75343">
        <ele>5.74</ele>
        <time>2016-11-27T08:41:33Z</time>
      </trkpt>
      <trkpt lat="47.20256" lon="-1.75315">
        <ele>5.73</ele>
        <time>2016-11-27T08:41:39Z</time>
      </trkpt>
      <trkpt lat="47.2025" lon="-1.7529">
        <ele>5.74</ele>
        <time>2016-11-27T08:41:44Z</time>
      </trkpt>
      <trkpt lat="47.20244" lon="-1.75265">
        <ele>5.72</ele>
        <time>2016-11-27T08:41:50Z</time>
      </trkpt>
      <trkpt lat="47.20236" lon="-1.75239">
        <ele>5.7</ele>
        <time>2016-11-27T08:42:01Z</time>
      </trkpt>
      <trkpt lat="47.2022" lon="-1.75225">
        <ele>5.72</ele>
        <time>2016-11-27T08:42:10Z</time>
      </trkpt>
      <trkpt lat="47.20208" lon="-1.75205">
        <ele>5.77</ele>
        <time>2016-11-27T08:42:17Z</time>
      </trkpt>
      <trkpt lat="47.20196" lon="-1.75182">
        <ele>5.84</ele>
        <time>2016-11-27T08:42:23Z</time>
      </trkpt>
      <trkpt lat="47.20189" lon="-1.75155">
        <ele>5.88</ele>
        <time>2016-11-27T08:42:30Z</time>
      </trkpt>
      <trkpt lat="47.20185" lon="-1.75126">
        <ele>5.9</ele>
        <time>2016-11-27T08:42:36Z</time>
      </trkpt>
      <trkpt lat="47.20179" lon="-1.75098">
        <ele>6.05</ele>
        <time>2016-11-27T08:42:41Z</time>
      </trkpt>
      <trkpt lat="47.20174" lon="-1.75069">
        <ele>6.07</ele>
        <time>2016-11-27T08:42:46Z</time>
      </trkpt>
      <trkpt lat="47.2017" lon="-1.75041">
        <ele>6.03</ele>
        <time>2016-11-27T08:42:51Z</time>
      </trkpt>
      <trkpt lat="47.20163" lon="-1.75013">
        <ele>6</ele>
        <time>2016-11-27T08:42:56Z</time>
      </trkpt>
      <trkpt lat="47.20157" lon="-1.74983">
        <ele>5.92</ele>
        <time>2016-11-27T08:43:01Z</time>
      </trkpt>
      <trkpt lat="47.20151" lon="-1.74956">
        <ele>5.96</ele>
        <time>2016-11-27T08:43:06Z</time>
      </trkpt>
      <trkpt lat="47.20147" lon="-1.7493">
        <ele>5.96</ele>
        <time>2016-11-27T08:43:11Z</time>
      </trkpt>
      <trkpt lat="47.20141" lon="-1.74903">
        <ele>5.99</ele>
        <time>2016-11-27T08:43:18Z</time>
      </trkpt>
      <trkpt lat="47.20134" lon="-1.74874">
        <ele>6.07</ele>
        <time>2016-11-27T08:43:24Z</time>
      </trkpt>
      <trkpt lat="47.20134" lon="-1.74843">
        <ele>6.09</ele>
        <time>2016-11-27T08:43:30Z</time>
      </trkpt>
      <trkpt lat="47.20131" lon="-1.74817">
        <ele>6.13</ele>
        <time>2016-11-27T08:43:35Z</time>
      </trkpt>
      <trkpt lat="47.20125" lon="-1.74791">
        <ele>6.14</ele>
        <time>2016-11-27T08:43:40Z</time>
      </trkpt>
      <trkpt lat="47.20121" lon="-1.74765">
        <ele>6.1</ele>
        <time>2016-11-27T08:43:45Z</time>
      </trkpt>
      <trkpt lat="47.20117" lon="-1.74737">
        <ele>5.92</ele>
        <time>2016-11-27T08:43:50Z</time>
      </trkpt>
      <trkpt lat="47.20112" lon="-1.74712">
        <ele>5.83</ele>
        <time>2016-11-27T08:43:55Z</time>
      </trkpt>
      <trkpt lat="47.20105" lon="-1.74684">
        <ele>5.53</ele>
        <time>2016-11-27T08:44:00Z</time>
      </trkpt>
      <trkpt lat="47.201" lon="-1.74655">
        <ele>5.4</ele>
        <time>2016-11-27T08:44:06Z</time>
      </trkpt>
      <trkpt lat="47.20095" lon="-1.74629">
        <ele>5.3</ele>
        <time>2016-11-27T08:44:11Z</time>
      </trkpt>
      <trkpt lat="47.2009" lon="-1.74599">
        <ele>5.19</ele>
        <time>2016-11-27T08:44:17Z</time>
      </trkpt>
      <trkpt lat="47.20086" lon="-1.74572">
        <ele>4.93</ele>
        <time>2016-11-27T08:44:22Z</time>
      </trkpt>
      <trkpt lat="47.2008" lon="-1.74543">
        <ele>4.8</ele>
        <time>2016-11-27T08:44:28Z</time>
      </trkpt>
      <trkpt lat="47.20074" lon="-1.74515">
        <ele>4.43</ele>
        <time>2016-11-27T08:44:33Z</time>
      </trkpt>
      <trkpt lat="47.2007" lon="-1.74489">
        <ele>4.35</ele>
        <time>2016-11-27T08:44:38Z</time>
      </trkpt>
      <trkpt lat="47.20065" lon="-1.7446">
        <ele>4.27</ele>
        <time>2016-11-27T08:44:44Z</time>
      </trkpt>
      <trkpt lat="47.20058" lon="-1.74431">
        <ele>4.2</ele>
        <time>2016-11-27T08:44:50Z</time>
      </trkpt>
      <trkpt lat="47.20053" lon="-1.74401">
        <ele>4.14</ele>
        <time>2016-11-27T08:44:56Z</time>
      </trkpt>
      <trkpt lat="47.20049" lon="-1.74371">
        <ele>4.07</ele>
        <time>2016-11-27T08:45:02Z</time>
      </trkpt>
      <trkpt lat="47.20044" lon="-1.74341">
        <ele>3.99</ele>
        <time>2016-11-27T08:45:09Z</time>
      </trkpt>
      <trkpt lat="47.20035" lon="-1.74313">
        <ele>3.83</ele>
        <time>2016-11-27T08:45:17Z</time>
      </trkpt>
      <trkpt lat="47.20023" lon="-1.74291">
        <ele>3.79</ele>
        <time>2016-11-27T08:45:22Z</time>
      </trkpt>
      <trkpt lat="47.20008" lon="-1.7427">
        <ele>3.84</ele>
        <time>2016-11-27T08:45:28Z</time>
      </trkpt>
      <trkpt lat="47.19996" lon="-1.74248">
        <ele>4</ele>
        <time>2016-11-27T08:45:36Z</time>
      </trkpt>
      <trkpt lat="47.19989" lon="-1.74224">
        <ele>4.14</ele>
        <time>2016-11-27T08:45:45Z</time>
      </trkpt>
      <trkpt lat="47.19985" lon="-1.74195">
        <ele>4.21</ele>
        <time>2016-11-27T08:45:53Z</time>
      </trkpt>
      <trkpt lat="47.19984" lon="-1.74166">
        <ele>4.31</ele>
        <time>2016-11-27T08:46:01Z</time>
      </trkpt>
      <trkpt lat="47.1998" lon="-1.7414">
        <ele>4.39</ele>
        <time>2016-11-27T08:46:08Z</time>
      </trkpt>
      <trkpt lat="47.19976" lon="-1.74112">
        <ele>4.51</ele>
        <time>2016-11-27T08:46:15Z</time>
      </trkpt>
      <trkpt lat="47.19971" lon="-1.74084">
        <ele>4.81</ele>
        <time>2016-11-27T08:46:23Z</time>
      </trkpt>
      <trkpt lat="47.19967" lon="-1.74056">
        <ele>5.14</ele>
        <time>2016-11-27T08:46:31Z</time>
      </trkpt>
      <trkpt lat="47.19962" lon="-1.74029">
        <ele>5.54</ele>
        <time>2016-11-27T08:46:39Z</time>
      </trkpt>
      <trkpt lat="47.19958" lon="-1.74003">
        <ele>6.08</ele>
        <time>2016-11-27T08:46:47Z</time>
      </trkpt>
      <trkpt lat="47.19949" lon="-1.7398">
        <ele>6.8</ele>
        <time>2016-11-27T08:46:56Z</time>
      </trkpt>
      <trkpt lat="47.19963" lon="-1.73963">
        <ele>8.72</ele>
        <time>2016-11-27T08:48:22Z</time>
      </trkpt>
      <trkpt lat="47.1998" lon="-1.73956">
        <ele>9.07</ele>
        <time>2016-11-27T08:48:32Z</time>
      </trkpt>
      <trkpt lat="47.19995" lon="-1.73937">
        <ele>9.31</ele>
        <time>2016-11-27T08:48:39Z</time>
      </trkpt>
      <trkpt lat="47.20002" lon="-1.73913">
        <ele>9.45</ele>
        <time>2016-11-27T08:48:44Z</time>
      </trkpt>
      <trkpt lat="47.2001" lon="-1.73887">
        <ele>9.62</ele>
        <time>2016-11-27T08:48:51Z</time>
      </trkpt>
      <trkpt lat="47.20012" lon="-1.73861">
        <ele>9.83</ele>
        <time>2016-11-27T08:48:59Z</time>
      </trkpt>
      <trkpt lat="47.20024" lon="-1.73836">
        <ele>10.04</ele>
        <time>2016-11-27T08:49:07Z</time>
      </trkpt>
      <trkpt lat="47.20032" lon="-1.73811">
        <ele>10.21</ele>
        <time>2016-11-27T08:49:13Z</time>
      </trkpt>
      <trkpt lat="47.2004" lon="-1.73784">
        <ele>10.71</ele>
        <time>2016-11-27T08:49:19Z</time>
      </trkpt>
      <trkpt lat="47.20043" lon="-1.73755">
        <ele>11.07</ele>
        <time>2016-11-27T08:49:24Z</time>
      </trkpt>
      <trkpt lat="47.20043" lon="-1.73723">
        <ele>11.4</ele>
        <time>2016-11-27T08:49:29Z</time>
      </trkpt>
      <trkpt lat="47.20045" lon="-1.73693">
        <ele>11.47</ele>
        <time>2016-11-27T08:49:34Z</time>
      </trkpt>
      <trkpt lat="47.20047" lon="-1.73664">
        <ele>11.28</ele>
        <time>2016-11-27T08:49:39Z</time>
      </trkpt>
      <trkpt lat="47.2005" lon="-1.73633">
        <ele>11.13</ele>
        <time>2016-11-27T08:49:45Z</time>
      </trkpt>
      <trkpt lat="47.20049" lon="-1.73604">
        <ele>11.03</ele>
        <time>2016-11-27T08:49:52Z</time>
      </trkpt>
      <trkpt lat="47.20046" lon="-1.73576">
        <ele>10.95</ele>
        <time>2016-11-27T08:49:58Z</time>
      </trkpt>
      <trkpt lat="47.20053" lon="-1.73548">
        <ele>10.79</ele>
        <time>2016-11-27T08:50:11Z</time>
      </trkpt>
      <trkpt lat="47.20065" lon="-1.73527">
        <ele>10.62</ele>
        <time>2016-11-27T08:50:18Z</time>
      </trkpt>
      <trkpt lat="47.20077" lon="-1.735">
        <ele>10.46</ele>
        <time>2016-11-27T08:50:24Z</time>
      </trkpt>
      <trkpt lat="47.20077" lon="-1.73473">
        <ele>10.28</ele>
        <time>2016-11-27T08:50:31Z</time>
      </trkpt>
      <trkpt lat="47.20073" lon="-1.73446">
        <ele>10.17</ele>
        <time>2016-11-27T08:50:37Z</time>
      </trkpt>
      <trkpt lat="47.20072" lon="-1.73414">
        <ele>10.13</ele>
        <time>2016-11-27T08:50:44Z</time>
      </trkpt>
      <trkpt lat="47.20068" lon="-1.73387">
        <ele>10.1</ele>
        <time>2016-11-27T08:50:50Z</time>
      </trkpt>
      <trkpt lat="47.20065" lon="-1.73357">
        <ele>10.02</ele>
        <time>2016-11-27T08:50:57Z</time>
      </trkpt>
      <trkpt lat="47.20065" lon="-1.7333">
        <ele>9.94</ele>
        <time>2016-11-27T08:51:02Z</time>
      </trkpt>
      <trkpt lat="47.20062" lon="-1.73301">
        <ele>9.83</ele>
        <time>2016-11-27T08:51:07Z</time>
      </trkpt>
      <trkpt lat="47.20061" lon="-1.73272">
        <ele>9.53</ele>
        <time>2016-11-27T08:51:12Z</time>
      </trkpt>
      <trkpt lat="47.20062" lon="-1.73244">
        <ele>9.28</ele>
        <time>2016-11-27T08:51:17Z</time>
      </trkpt>
      <trkpt lat="47.20064" lon="-1.73215">
        <ele>9.15</ele>
        <time>2016-11-27T08:51:22Z</time>
      </trkpt>
      <trkpt lat="47.20062" lon="-1.73184">
        <ele>8.87</ele>
        <time>2016-11-27T08:51:29Z</time>
      </trkpt>
      <trkpt lat="47.20059" lon="-1.73155">
        <ele>8.54</ele>
        <time>2016-11-27T08:51:35Z</time>
      </trkpt>
      <trkpt lat="47.20057" lon="-1.73126">
        <ele>8.18</ele>
        <time>2016-11-27T08:51:41Z</time>
      </trkpt>
      <trkpt lat="47.20054" lon="-1.73095">
        <ele>7.87</ele>
        <time>2016-11-27T08:51:48Z</time>
      </trkpt>
      <trkpt lat="47.20054" lon="-1.73066">
        <ele>7.66</ele>
        <time>2016-11-27T08:51:53Z</time>
      </trkpt>
      <trkpt lat="47.20053" lon="-1.73039">
        <ele>7.45</ele>
        <time>2016-11-27T08:51:58Z</time>
      </trkpt>
      <trkpt lat="47.20049" lon="-1.73012">
        <ele>6.76</ele>
        <time>2016-11-27T08:52:03Z</time>
      </trkpt>
      <trkpt lat="47.20041" lon="-1.72987">
        <ele>6.61</ele>
        <time>2016-11-27T08:52:07Z</time>
      </trkpt>
      <trkpt lat="47.20028" lon="-1.72964">
        <ele>6.44</ele>
        <time>2016-11-27T08:52:13Z</time>
      </trkpt>
      <trkpt lat="47.20021" lon="-1.72938">
        <ele>6.33</ele>
        <time>2016-11-27T08:52:19Z</time>
      </trkpt>
      <trkpt lat="47.20022" lon="-1.72911">
        <ele>6.19</ele>
        <time>2016-11-27T08:52:27Z</time>
      </trkpt>
      <trkpt lat="47.20021" lon="-1.72884">
        <ele>6.07</ele>
        <time>2016-11-27T08:52:34Z</time>
      </trkpt>
      <trkpt lat="47.20014" lon="-1.72855">
        <ele>6.01</ele>
        <time>2016-11-27T08:52:38Z</time>
      </trkpt>
      <trkpt lat="47.20005" lon="-1.72829">
        <ele>5.96</ele>
        <time>2016-11-27T08:52:43Z</time>
      </trkpt>
      <trkpt lat="47.19994" lon="-1.72802">
        <ele>5.91</ele>
        <time>2016-11-27T08:52:49Z</time>
      </trkpt>
      <trkpt lat="47.19984" lon="-1.72777">
        <ele>5.99</ele>
        <time>2016-11-27T08:52:54Z</time>
      </trkpt>
      <trkpt lat="47.19978" lon="-1.72748">
        <ele>6.08</ele>
        <time>2016-11-27T08:53:00Z</time>
      </trkpt>
      <trkpt lat="47.19973" lon="-1.72718">
        <ele>6.16</ele>
        <time>2016-11-27T08:53:06Z</time>
      </trkpt>
      <trkpt lat="47.1997" lon="-1.72688">
        <ele>6.25</ele>
        <time>2016-11-27T08:53:12Z</time>
      </trkpt>
      <trkpt lat="47.19963" lon="-1.7266">
        <ele>6.36</ele>
        <time>2016-11-27T08:53:18Z</time>
      </trkpt>
      <trkpt lat="47.19955" lon="-1.72635">
        <ele>6.36</ele>
        <time>2016-11-27T08:53:26Z</time>
      </trkpt>
      <trkpt lat="47.19948" lon="-1.72607">
        <ele>6.25</ele>
        <time>2016-11-27T08:53:33Z</time>
      </trkpt>
      <trkpt lat="47.19938" lon="-1.72583">
        <ele>6.13</ele>
        <time>2016-11-27T08:53:38Z</time>
      </trkpt>
      <trkpt lat="47.19928" lon="-1.72561">
        <ele>6.07</ele>
        <time>2016-11-27T08:53:43Z</time>
      </trkpt>
      <trkpt lat="47.19915" lon="-1.72538">
        <ele>5.81</ele>
        <time>2016-11-27T08:53:52Z</time>
      </trkpt>
      <trkpt lat="47.19908" lon="-1.72513">
        <ele>5.6</ele>
        <time>2016-11-27T08:54:00Z</time>
      </trkpt>
      <trkpt lat="47.19895" lon="-1.7249">
        <ele>5.41</ele>
        <time>2016-11-27T08:54:07Z</time>
      </trkpt>
      <trkpt lat="47.19883" lon="-1.72466">
        <ele>5.13</ele>
        <time>2016-11-27T08:54:14Z</time>
      </trkpt>
      <trkpt lat="47.19903" lon="-1.72455">
        <ele>4.74</ele>
        <time>2016-11-27T08:54:21Z</time>
      </trkpt>
      <trkpt lat="47.19921" lon="-1.7245">
        <ele>4.48</ele>
        <time>2016-11-27T08:54:26Z</time>
      </trkpt>
      <trkpt lat="47.1994" lon="-1.72448">
        <ele>4.24</ele>
        <time>2016-11-27T08:54:31Z</time>
      </trkpt>
      <trkpt lat="47.19958" lon="-1.72441">
        <ele>3.96</ele>
        <time>2016-11-27T08:54:38Z</time>
      </trkpt>
      <trkpt lat="47.1997" lon="-1.72422">
        <ele>3.7</ele>
        <time>2016-11-27T08:54:48Z</time>
      </trkpt>
      <trkpt lat="47.19974" lon="-1.72395">
        <ele>3.59</ele>
        <time>2016-11-27T08:54:55Z</time>
      </trkpt>
      <trkpt lat="47.1997" lon="-1.72368">
        <ele>3.5</ele>
        <time>2016-11-27T08:55:02Z</time>
      </trkpt>
      <trkpt lat="47.19956" lon="-1.72352">
        <ele>3.43</ele>
        <time>2016-11-27T08:55:10Z</time>
      </trkpt>
      <trkpt lat="47.1994" lon="-1.72334">
        <ele>3.36</ele>
        <time>2016-11-27T08:55:19Z</time>
      </trkpt>
      <trkpt lat="47.19934" lon="-1.72306">
        <ele>3.34</ele>
        <time>2016-11-27T08:55:24Z</time>
      </trkpt>
      <trkpt lat="47.19937" lon="-1.72278">
        <ele>3.3</ele>
        <time>2016-11-27T08:55:29Z</time>
      </trkpt>
      <trkpt lat="47.19931" lon="-1.7225">
        <ele>3.26</ele>
        <time>2016-11-27T08:55:36Z</time>
      </trkpt>
      <trkpt lat="47.19916" lon="-1.72233">
        <ele>3.15</ele>
        <time>2016-11-27T08:55:44Z</time>
      </trkpt>
      <trkpt lat="47.199" lon="-1.72247">
        <ele>3.43</ele>
        <time>2016-11-27T08:56:04Z</time>
      </trkpt>
      <trkpt lat="47.1988" lon="-1.72252">
        <ele>3.62</ele>
        <time>2016-11-27T08:56:12Z</time>
      </trkpt>
      <trkpt lat="47.19861" lon="-1.72252">
        <ele>3.83</ele>
        <time>2016-11-27T08:56:18Z</time>
      </trkpt>
      <trkpt lat="47.19843" lon="-1.72254">
        <ele>4</ele>
        <time>2016-11-27T08:56:24Z</time>
      </trkpt>
      <trkpt lat="47.19825" lon="-1.7226">
        <ele>4.07</ele>
        <time>2016-11-27T08:56:29Z</time>
      </trkpt>
      <trkpt lat="47.19806" lon="-1.72264">
        <ele>4.17</ele>
        <time>2016-11-27T08:56:38Z</time>
      </trkpt>
      <trkpt lat="47.19788" lon="-1.72274">
        <ele>4.25</ele>
        <time>2016-11-27T08:56:46Z</time>
      </trkpt>
      <trkpt lat="47.19772" lon="-1.72264">
        <ele>7.02</ele>
        <time>2016-11-27T08:58:29Z</time>
      </trkpt>
      <trkpt lat="47.19753" lon="-1.72258">
        <ele>7.97</ele>
        <time>2016-11-27T08:58:39Z</time>
      </trkpt>
      <trkpt lat="47.19732" lon="-1.72252">
        <ele>8.71</ele>
        <time>2016-11-27T08:58:48Z</time>
      </trkpt>
      <trkpt lat="47.19723" lon="-1.72226">
        <ele>9.23</ele>
        <time>2016-11-27T08:58:56Z</time>
      </trkpt>
      <trkpt lat="47.19723" lon="-1.72195">
        <ele>9.96</ele>
        <time>2016-11-27T08:59:01Z</time>
      </trkpt>
      <trkpt lat="47.19722" lon="-1.72167">
        <ele>10.61</ele>
        <time>2016-11-27T08:59:05Z</time>
      </trkpt>
      <trkpt lat="47.1972" lon="-1.7214">
        <ele>10.69</ele>
        <time>2016-11-27T08:59:09Z</time>
      </trkpt>
      <trkpt lat="47.19718" lon="-1.72113">
        <ele>10.61</ele>
        <time>2016-11-27T08:59:13Z</time>
      </trkpt>
      <trkpt lat="47.1972" lon="-1.72085">
        <ele>10.42</ele>
        <time>2016-11-27T08:59:18Z</time>
      </trkpt>
      <trkpt lat="47.1972" lon="-1.72054">
        <ele>10.27</ele>
        <time>2016-11-27T08:59:23Z</time>
      </trkpt>
      <trkpt lat="47.19718" lon="-1.72025">
        <ele>10.22</ele>
        <time>2016-11-27T08:59:29Z</time>
      </trkpt>
      <trkpt lat="47.19715" lon="-1.71996">
        <ele>10.21</ele>
        <time>2016-11-27T08:59:36Z</time>
      </trkpt>
      <trkpt lat="47.1971" lon="-1.71969">
        <ele>10.2</ele>
        <time>2016-11-27T08:59:44Z</time>
      </trkpt>
      <trkpt lat="47.19692" lon="-1.71951">
        <ele>10.17</ele>
        <time>2016-11-27T08:59:55Z</time>
      </trkpt>
      <trkpt lat="47.19672" lon="-1.71942">
        <ele>10.16</ele>
        <time>2016-11-27T09:00:00Z</time>
      </trkpt>
      <trkpt lat="47.19653" lon="-1.71934">
        <ele>10.2</ele>
        <time>2016-11-27T09:00:09Z</time>
      </trkpt>
      <trkpt lat="47.19644" lon="-1.71957">
        <ele>10.28</ele>
        <time>2016-11-27T09:00:18Z</time>
      </trkpt>
      <trkpt lat="47.19626" lon="-1.71978">
        <ele>10.33</ele>
        <time>2016-11-27T09:00:24Z</time>
      </trkpt>
      <trkpt lat="47.1961" lon="-1.71966">
        <ele>10.34</ele>
        <time>2016-11-27T09:00:32Z</time>
      </trkpt>
      <trkpt lat="47.19606" lon="-1.71936">
        <ele>10.3</ele>
        <time>2016-11-27T09:00:39Z</time>
      </trkpt>
      <trkpt lat="47.19603" lon="-1.71908">
        <ele>10.29</ele>
        <time>2016-11-27T09:00:45Z</time>
      </trkpt>
      <trkpt lat="47.19597" lon="-1.71879">
        <ele>10.15</ele>
        <time>2016-11-27T09:00:50Z</time>
      </trkpt>
      <trkpt lat="47.1959" lon="-1.71852">
        <ele>9.94</ele>
        <time>2016-11-27T09:00:56Z</time>
      </trkpt>
      <trkpt lat="47.19586" lon="-1.71826">
        <ele>9.76</ele>
        <time>2016-11-27T09:01:03Z</time>
      </trkpt>
      <trkpt lat="47.19581" lon="-1.71798">
        <ele>9.47</ele>
        <time>2016-11-27T09:01:12Z</time>
      </trkpt>
      <trkpt lat="47.19576" lon="-1.71771">
        <ele>9.24</ele>
        <time>2016-11-27T09:01:20Z</time>
      </trkpt>
      <trkpt lat="47.19573" lon="-1.71742">
        <ele>9.15</ele>
        <time>2016-11-27T09:01:28Z</time>
      </trkpt>
      <trkpt lat="47.19572" lon="-1.71714">
        <ele>8.98</ele>
        <time>2016-11-27T09:01:37Z</time>
      </trkpt>
      <trkpt lat="47.19569" lon="-1.71688">
        <ele>8.84</ele>
        <time>2016-11-27T09:01:44Z</time>
      </trkpt>
      <trkpt lat="47.19565" lon="-1.71662">
        <ele>8.69</ele>
        <time>2016-11-27T09:01:53Z</time>
      </trkpt>
      <trkpt lat="47.19559" lon="-1.71637">
        <ele>8.62</ele>
        <time>2016-11-27T09:02:01Z</time>
      </trkpt>
      <trkpt lat="47.19553" lon="-1.71608">
        <ele>8.56</ele>
        <time>2016-11-27T09:02:09Z</time>
      </trkpt>
      <trkpt lat="47.19546" lon="-1.71582">
        <ele>8.45</ele>
        <time>2016-11-27T09:02:18Z</time>
      </trkpt>
      <trkpt lat="47.19537" lon="-1.71557">
        <ele>8.34</ele>
        <time>2016-11-27T09:02:28Z</time>
      </trkpt>
      <trkpt lat="47.19533" lon="-1.71531">
        <ele>8.29</ele>
        <time>2016-11-27T09:02:37Z</time>
      </trkpt>
      <trkpt lat="47.19526" lon="-1.71505">
        <ele>8.31</ele>
        <time>2016-11-27T09:02:46Z</time>
      </trkpt>
      <trkpt lat="47.19519" lon="-1.71481">
        <ele>8.27</ele>
        <time>2016-11-27T09:02:55Z</time>
      </trkpt>
      <trkpt lat="47.1951" lon="-1.71455">
        <ele>8.39</ele>
        <time>2016-11-27T09:03:04Z</time>
      </trkpt>
      <trkpt lat="47.19524" lon="-1.71435">
        <ele>9.08</ele>
        <time>2016-11-27T09:03:26Z</time>
      </trkpt>
      <trkpt lat="47.19542" lon="-1.71428">
        <ele>9.45</ele>
        <time>2016-11-27T09:03:34Z</time>
      </trkpt>
      <trkpt lat="47.19556" lon="-1.71411">
        <ele>9.73</ele>
        <time>2016-11-27T09:03:40Z</time>
      </trkpt>
      <trkpt lat="47.19574" lon="-1.71404">
        <ele>10.11</ele>
        <time>2016-11-27T09:03:48Z</time>
      </trkpt>
      <trkpt lat="47.19592" lon="-1.71394">
        <ele>10.67</ele>
        <time>2016-11-27T09:03:58Z</time>
      </trkpt>
      <trkpt lat="47.19595" lon="-1.71367">
        <ele>11.89</ele>
        <time>2016-11-27T09:04:13Z</time>
      </trkpt>
      <trkpt lat="47.19579" lon="-1.71352">
        <ele>12.85</ele>
        <time>2016-11-27T09:04:21Z</time>
      </trkpt>
      <trkpt lat="47.19564" lon="-1.71335">
        <ele>14.03</ele>
        <time>2016-11-27T09:04:31Z</time>
      </trkpt>
      <trkpt lat="47.19551" lon="-1.71316">
        <ele>15.16</ele>
        <time>2016-11-27T09:04:42Z</time>
      </trkpt>
      <trkpt lat="47.19539" lon="-1.71297">
        <ele>15.78</ele>
        <time>2016-11-27T09:04:49Z</time>
      </trkpt>
      <trkpt lat="47.19526" lon="-1.71276">
        <ele>16.6</ele>
        <time>2016-11-27T09:04:58Z</time>
      </trkpt>
      <trkpt lat="47.19513" lon="-1.71253">
        <ele>17.14</ele>
        <time>2016-11-27T09:05:05Z</time>
      </trkpt>
      <trkpt lat="47.19501" lon="-1.71231">
        <ele>17.64</ele>
        <time>2016-11-27T09:05:12Z</time>
      </trkpt>
      <trkpt lat="47.19493" lon="-1.71205">
        <ele>18.08</ele>
        <time>2016-11-27T09:05:20Z</time>
      </trkpt>
      <trkpt lat="47.19486" lon="-1.71179">
        <ele>18.48</ele>
        <time>2016-11-27T09:05:30Z</time>
      </trkpt>
      <trkpt lat="47.19483" lon="-1.71151">
        <ele>18.68</ele>
        <time>2016-11-27T09:05:37Z</time>
      </trkpt>
      <trkpt lat="47.19484" lon="-1.71124">
        <ele>18.83</ele>
        <time>2016-11-27T09:05:43Z</time>
      </trkpt>
      <trkpt lat="47.19489" lon="-1.71099">
        <ele>19.01</ele>
        <time>2016-11-27T09:05:51Z</time>
      </trkpt>
      <trkpt lat="47.19495" lon="-1.71071">
        <ele>19.18</ele>
        <time>2016-11-27T09:06:00Z</time>
      </trkpt>
      <trkpt lat="47.19508" lon="-1.7105">
        <ele>19.59</ele>
        <time>2016-11-27T09:06:12Z</time>
      </trkpt>
      <trkpt lat="47.19528" lon="-1.71043">
        <ele>19.94</ele>
        <time>2016-11-27T09:06:22Z</time>
      </trkpt>
      <trkpt lat="47.19544" lon="-1.71032">
        <ele>20.38</ele>
        <time>2016-11-27T09:06:31Z</time>
      </trkpt>
      <trkpt lat="47.19564" lon="-1.71023">
        <ele>20.88</ele>
        <time>2016-11-27T09:06:42Z</time>
      </trkpt>
      <trkpt lat="47.19581" lon="-1.71018">
        <ele>21.21</ele>
        <time>2016-11-27T09:06:51Z</time>
      </trkpt>
      <trkpt lat="47.196" lon="-1.71008">
        <ele>21.52</ele>
        <time>2016-11-27T09:06:59Z</time>
      </trkpt>
      <trkpt lat="47.19617" lon="-1.70998">
        <ele>21.93</ele>
        <time>2016-11-27T09:07:08Z</time>
      </trkpt>
      <trkpt lat="47.19634" lon="-1.70987">
        <ele>22.26</ele>
        <time>2016-11-27T09:07:17Z</time>
      </trkpt>
      <trkpt lat="47.19651" lon="-1.70974">
        <ele>22.94</ele>
        <time>2016-11-27T09:07:39Z</time>
      </trkpt>
      <trkpt lat="47.1967" lon="-1.70966">
        <ele>23.33</ele>
        <time>2016-11-27T09:07:48Z</time>
      </trkpt>
      <trkpt lat="47.19687" lon="-1.70954">
        <ele>23.6</ele>
        <time>2016-11-27T09:07:58Z</time>
      </trkpt>
      <trkpt lat="47.19707" lon="-1.70948">
        <ele>23.7</ele>
        <time>2016-11-27T09:08:06Z</time>
      </trkpt>
      <trkpt lat="47.19724" lon="-1.70939">
        <ele>23.64</ele>
        <time>2016-11-27T09:08:15Z</time>
      </trkpt>
      <trkpt lat="47.19741" lon="-1.70925">
        <ele>23.55</ele>
        <time>2016-11-27T09:08:24Z</time>
      </trkpt>
      <trkpt lat="47.19757" lon="-1.70908">
        <ele>23.32</ele>
        <time>2016-11-27T09:08:31Z</time>
      </trkpt>
      <trkpt lat="47.1977" lon="-1.70887">
        <ele>22.89</ele>
        <time>2016-11-27T09:08:43Z</time>
      </trkpt>
      <trkpt lat="47.19769" lon="-1.7086">
        <ele>22.38</ele>
        <time>2016-11-27T09:08:54Z</time>
      </trkpt>
      <trkpt lat="47.19768" lon="-1.7083">
        <ele>21.92</ele>
        <time>2016-11-27T09:09:02Z</time>
      </trkpt>
      <trkpt lat="47.19764" lon="-1.70801">
        <ele>21.52</ele>
        <time>2016-11-27T09:09:09Z</time>
      </trkpt>
      <trkpt lat="47.19762" lon="-1.70774">
        <ele>21.17</ele>
        <time>2016-11-27T09:09:14Z</time>
      </trkpt>
      <trkpt lat="47.19757" lon="-1.70744">
        <ele>20.71</ele>
        <time>2016-11-27T09:09:21Z</time>
      </trkpt>
      <trkpt lat="47.19752" lon="-1.70716">
        <ele>20.28</ele>
        <time>2016-11-27T09:09:27Z</time>
      </trkpt>
      <trkpt lat="47.19746" lon="-1.70689">
        <ele>19.77</ele>
        <time>2016-11-27T09:09:34Z</time>
      </trkpt>
      <trkpt lat="47.19742" lon="-1.70662">
        <ele>19.12</ele>
        <time>2016-11-27T09:09:43Z</time>
      </trkpt>
      <trkpt lat="47.19736" lon="-1.70635">
        <ele>18.5</ele>
        <time>2016-11-27T09:09:54Z</time>
      </trkpt>
      <trkpt lat="47.19729" lon="-1.70609">
        <ele>18.11</ele>
        <time>2016-11-27T09:10:02Z</time>
      </trkpt>
      <trkpt lat="47.19724" lon="-1.70582">
        <ele>17.65</ele>
        <time>2016-11-27T09:10:11Z</time>
      </trkpt>
      <trkpt lat="47.1972" lon="-1.70554">
        <ele>17.2</ele>
        <time>2016-11-27T09:10:20Z</time>
      </trkpt>
      <trkpt lat="47.19715" lon="-1.70528">
        <ele>16.65</ele>
        <time>2016-11-27T09:10:30Z</time>
      </trkpt>
      <trkpt lat="47.19706" lon="-1.70502">
        <ele>15.89</ele>
        <time>2016-11-27T09:10:41Z</time>
      </trkpt>
      <trkpt lat="47.19704" lon="-1.70473">
        <ele>15.26</ele>
        <time>2016-11-27T09:10:49Z</time>
      </trkpt>
      <trkpt lat="47.19706" lon="-1.70443">
        <ele>14.64</ele>
        <time>2016-11-27T09:10:57Z</time>
      </trkpt>
      <trkpt lat="47.19705" lon="-1.70412">
        <ele>13.98</ele>
        <time>2016-11-27T09:11:06Z</time>
      </trkpt>
      <trkpt lat="47.19703" lon="-1.70381">
        <ele>13.56</ele>
        <time>2016-11-27T09:11:13Z</time>
      </trkpt>
      <trkpt lat="47.19694" lon="-1.70356">
        <ele>13.14</ele>
        <time>2016-11-27T09:11:21Z</time>
      </trkpt>
      <trkpt lat="47.19687" lon="-1.70332">
        <ele>12.68</ele>
        <time>2016-11-27T09:11:29Z</time>
      </trkpt>
      <trkpt lat="47.1968" lon="-1.70304">
        <ele>12.42</ele>
        <time>2016-11-27T09:11:34Z</time>
      </trkpt>
      <trkpt lat="47.19676" lon="-1.70276">
        <ele>12.12</ele>
        <time>2016-11-27T09:11:40Z</time>
      </trkpt>
      <trkpt lat="47.19678" lon="-1.70249">
        <ele>11.77</ele>
        <time>2016-11-27T09:11:46Z</time>
      </trkpt>
      <trkpt lat="47.19677" lon="-1.70221">
        <ele>11.29</ele>
        <time>2016-11-27T09:11:54Z</time>
      </trkpt>
      <trkpt lat="47.19669" lon="-1.70192">
        <ele>10.67</ele>
        <time>2016-11-27T09:12:03Z</time>
      </trkpt>
      <trkpt lat="47.1967" lon="-1.70162">
        <ele>10.06</ele>
        <time>2016-11-27T09:12:11Z</time>
      </trkpt>
      <trkpt lat="47.19676" lon="-1.70133">
        <ele>9.45</ele>
        <time>2016-11-27T09:12:18Z</time>
      </trkpt>
      <trkpt lat="47.19678" lon="-1.70105">
        <ele>8.81</ele>
        <time>2016-11-27T09:12:26Z</time>
      </trkpt>
      <trkpt lat="47.19678" lon="-1.70075">
        <ele>8.42</ele>
        <time>2016-11-27T09:12:32Z</time>
      </trkpt>
      <trkpt lat="47.19683" lon="-1.70048">
        <ele>7.93</ele>
        <time>2016-11-27T09:12:40Z</time>
      </trkpt>
      <trkpt lat="47.19683" lon="-1.7002">
        <ele>7.25</ele>
        <time>2016-11-27T09:12:50Z</time>
      </trkpt>
      <trkpt lat="47.19686" lon="-1.69993">
        <ele>6.89</ele>
        <time>2016-11-27T09:12:57Z</time>
      </trkpt>
      <trkpt lat="47.19687" lon="-1.69964">
        <ele>6.46</ele>
        <time>2016-11-27T09:13:04Z</time>
      </trkpt>
      <trkpt lat="47.19683" lon="-1.69937">
        <ele>5.89</ele>
        <time>2016-11-27T09:13:13Z</time>
      </trkpt>
      <trkpt lat="47.19679" lon="-1.69909">
        <ele>5.35</ele>
        <time>2016-11-27T09:13:22Z</time>
      </trkpt>
      <trkpt lat="47.19676" lon="-1.69877">
        <ele>4.85</ele>
        <time>2016-11-27T09:13:29Z</time>
      </trkpt>
      <trkpt lat="47.19676" lon="-1.69846">
        <ele>4.34</ele>
        <time>2016-11-27T09:13:36Z</time>
      </trkpt>
      <trkpt lat="47.19674" lon="-1.69818">
        <ele>4.09</ele>
        <time>2016-11-27T09:21:29Z</time>
      </trkpt>
      <trkpt lat="47.19662" lon="-1.69798">
        <ele>4.1</ele>
        <time>2016-11-27T09:21:38Z</time>
      </trkpt>
      <trkpt lat="47.19645" lon="-1.69782">
        <ele>4.13</ele>
        <time>2016-11-27T09:21:48Z</time>
      </trkpt>
      <trkpt lat="47.19632" lon="-1.69763">
        <ele>4.17</ele>
        <time>2016-11-27T09:21:55Z</time>
      </trkpt>
      <trkpt lat="47.19626" lon="-1.69736">
        <ele>4.22</ele>
        <time>2016-11-27T09:22:04Z</time>
      </trkpt>
      <trkpt lat="47.19617" lon="-1.69712">
        <ele>4.24</ele>
        <time>2016-11-27T09:22:10Z</time>
      </trkpt>
      <trkpt lat="47.19607" lon="-1.69687">
        <ele>4.29</ele>
        <time>2016-11-27T09:22:17Z</time>
      </trkpt>
      <trkpt lat="47.19595" lon="-1.69663">
        <ele>4.34</ele>
        <time>2016-11-27T09:22:23Z</time>
      </trkpt>
      <trkpt lat="47.19583" lon="-1.69637">
        <ele>4.32</ele>
        <time>2016-11-27T09:22:29Z</time>
      </trkpt>
      <trkpt lat="47.19573" lon="-1.69615">
        <ele>4.23</ele>
        <time>2016-11-27T09:22:34Z</time>
      </trkpt>
      <trkpt lat="47.19561" lon="-1.69592">
        <ele>4.2</ele>
        <time>2016-11-27T09:22:40Z</time>
      </trkpt>
      <trkpt lat="47.19552" lon="-1.69568">
        <ele>4.16</ele>
        <time>2016-11-27T09:22:46Z</time>
      </trkpt>
      <trkpt lat="47.19542" lon="-1.69543">
        <ele>4.11</ele>
        <time>2016-11-27T09:22:52Z</time>
      </trkpt>
      <trkpt lat="47.19532" lon="-1.69519">
        <ele>4.11</ele>
        <time>2016-11-27T09:22:58Z</time>
      </trkpt>
      <trkpt lat="47.19523" lon="-1.69493">
        <ele>4.11</ele>
        <time>2016-11-27T09:23:04Z</time>
      </trkpt>
      <trkpt lat="47.19513" lon="-1.69466">
        <ele>4.11</ele>
        <time>2016-11-27T09:23:10Z</time>
      </trkpt>
      <trkpt lat="47.19503" lon="-1.6944">
        <ele>4.12</ele>
        <time>2016-11-27T09:23:16Z</time>
      </trkpt>
      <trkpt lat="47.19489" lon="-1.69419">
        <ele>4.16</ele>
        <time>2016-11-27T09:23:23Z</time>
      </trkpt>
      <trkpt lat="47.19473" lon="-1.69404">
        <ele>4.18</ele>
        <time>2016-11-27T09:23:29Z</time>
      </trkpt>
      <trkpt lat="47.19453" lon="-1.69398">
        <ele>4.3</ele>
        <time>2016-11-27T09:23:37Z</time>
      </trkpt>
      <trkpt lat="47.19439" lon="-1.6942">
        <ele>4.44</ele>
        <time>2016-11-27T09:23:47Z</time>
      </trkpt>
      <trkpt lat="47.19428" lon="-1.69443">
        <ele>4.61</ele>
        <time>2016-11-27T09:23:55Z</time>
      </trkpt>
      <trkpt lat="47.19413" lon="-1.69464">
        <ele>4.89</ele>
        <time>2016-11-27T09:24:03Z</time>
      </trkpt>
      <trkpt lat="47.19397" lon="-1.69478">
        <ele>5.13</ele>
        <time>2016-11-27T09:24:11Z</time>
      </trkpt>
      <trkpt lat="47.19378" lon="-1.69484">
        <ele>5.3</ele>
        <time>2016-11-27T09:24:17Z</time>
      </trkpt>
      <trkpt lat="47.19359" lon="-1.69494">
        <ele>5.47</ele>
        <time>2016-11-27T09:24:23Z</time>
      </trkpt>
      <trkpt lat="47.1934" lon="-1.695">
        <ele>5.74</ele>
        <time>2016-11-27T09:24:31Z</time>
      </trkpt>
      <trkpt lat="47.19323" lon="-1.69487">
        <ele>6.01</ele>
        <time>2016-11-27T09:24:37Z</time>
      </trkpt>
      <trkpt lat="47.19304" lon="-1.69476">
        <ele>6.27</ele>
        <time>2016-11-27T09:24:48Z</time>
      </trkpt>
      <trkpt lat="47.19287" lon="-1.69464">
        <ele>6.51</ele>
        <time>2016-11-27T09:25:01Z</time>
      </trkpt>
      <trkpt lat="47.19293" lon="-1.69439">
        <ele>6.78</ele>
        <time>2016-11-27T09:25:14Z</time>
      </trkpt>
      <trkpt lat="47.19308" lon="-1.69421">
        <ele>6.95</ele>
        <time>2016-11-27T09:25:22Z</time>
      </trkpt>
      <trkpt lat="47.19323" lon="-1.69407">
        <ele>7.03</ele>
        <time>2016-11-27T09:25:29Z</time>
      </trkpt>
      <trkpt lat="47.19343" lon="-1.69395">
        <ele>7.12</ele>
        <time>2016-11-27T09:25:36Z</time>
      </trkpt>
      <trkpt lat="47.19361" lon="-1.69384">
        <ele>7.17</ele>
        <time>2016-11-27T09:25:43Z</time>
      </trkpt>
      <trkpt lat="47.19379" lon="-1.69378">
        <ele>7.28</ele>
        <time>2016-11-27T09:25:50Z</time>
      </trkpt>
      <trkpt lat="47.19391" lon="-1.69356">
        <ele>7.55</ele>
        <time>2016-11-27T09:25:58Z</time>
      </trkpt>
      <trkpt lat="47.19399" lon="-1.6933">
        <ele>7.99</ele>
        <time>2016-11-27T09:26:06Z</time>
      </trkpt>
      <trkpt lat="47.19409" lon="-1.69306">
        <ele>8.47</ele>
        <time>2016-11-27T09:26:14Z</time>
      </trkpt>
      <trkpt lat="47.1941" lon="-1.69276">
        <ele>13.35</ele>
        <time>2016-11-27T09:29:59Z</time>
      </trkpt>
      <trkpt lat="47.19405" lon="-1.6925">
        <ele>13.97</ele>
        <time>2016-11-27T09:30:08Z</time>
      </trkpt>
      <trkpt lat="47.19399" lon="-1.69224">
        <ele>14.46</ele>
        <time>2016-11-27T09:30:16Z</time>
      </trkpt>
      <trkpt lat="47.19391" lon="-1.69196">
        <ele>14.85</ele>
        <time>2016-11-27T09:30:23Z</time>
      </trkpt>
      <trkpt lat="47.19379" lon="-1.69173">
        <ele>15.25</ele>
        <time>2016-11-27T09:30:31Z</time>
      </trkpt>
      <trkpt lat="47.19374" lon="-1.69146">
        <ele>15.54</ele>
        <time>2016-11-27T09:30:38Z</time>
      </trkpt>
      <trkpt lat="47.19366" lon="-1.69119">
        <ele>15.8</ele>
        <time>2016-11-27T09:30:45Z</time>
      </trkpt>
      <trkpt lat="47.1936" lon="-1.69095">
        <ele>16.07</ele>
        <time>2016-11-27T09:30:53Z</time>
      </trkpt>
      <trkpt lat="47.19352" lon="-1.69068">
        <ele>16.31</ele>
        <time>2016-11-27T09:31:01Z</time>
      </trkpt>
      <trkpt lat="47.19346" lon="-1.69042">
        <ele>16.64</ele>
        <time>2016-11-27T09:31:09Z</time>
      </trkpt>
      <trkpt lat="47.19336" lon="-1.6902">
        <ele>17.28</ele>
        <time>2016-11-27T09:31:19Z</time>
      </trkpt>
      <trkpt lat="47.19321" lon="-1.69002">
        <ele>18.09</ele>
        <time>2016-11-27T09:31:29Z</time>
      </trkpt>
      <trkpt lat="47.19309" lon="-1.68983">
        <ele>18.89</ele>
        <time>2016-11-27T09:31:39Z</time>
      </trkpt>
      <trkpt lat="47.19299" lon="-1.68959">
        <ele>19.59</ele>
        <time>2016-11-27T09:31:49Z</time>
      </trkpt>
      <trkpt lat="47.19288" lon="-1.68933">
        <ele>20.36</ele>
        <time>2016-11-27T09:32:00Z</time>
      </trkpt>
      <trkpt lat="47.19277" lon="-1.68913">
        <ele>21.39</ele>
        <time>2016-11-27T09:32:12Z</time>
      </trkpt>
      <trkpt lat="47.19265" lon="-1.68889">
        <ele>22.53</ele>
        <time>2016-11-27T09:32:24Z</time>
      </trkpt>
      <trkpt lat="47.19255" lon="-1.68864">
        <ele>24.16</ele>
        <time>2016-11-27T09:32:41Z</time>
      </trkpt>
      <trkpt lat="47.19242" lon="-1.68843">
        <ele>25.3</ele>
        <time>2016-11-27T09:32:54Z</time>
      </trkpt>
      <trkpt lat="47.19237" lon="-1.68816">
        <ele>25.98</ele>
        <time>2016-11-27T09:33:04Z</time>
      </trkpt>
      <trkpt lat="47.19238" lon="-1.68789">
        <ele>26.37</ele>
        <time>2016-11-27T09:33:14Z</time>
      </trkpt>
      <trkpt lat="47.19236" lon="-1.68762">
        <ele>26.57</ele>
        <time>2016-11-27T09:33:21Z</time>
      </trkpt>
      <trkpt lat="47.19228" lon="-1.68736">
        <ele>26.89</ele>
        <time>2016-11-27T09:33:31Z</time>
      </trkpt>
      <trkpt lat="47.1921" lon="-1.68724">
        <ele>27.08</ele>
        <time>2016-11-27T09:33:37Z</time>
      </trkpt>
      <trkpt lat="47.19197" lon="-1.68701">
        <ele>27.39</ele>
        <time>2016-11-27T09:33:44Z</time>
      </trkpt>
      <trkpt lat="47.19182" lon="-1.68684">
        <ele>27.76</ele>
        <time>2016-11-27T09:33:52Z</time>
      </trkpt>
      <trkpt lat="47.19164" lon="-1.68692">
        <ele>28.19</ele>
        <time>2016-11-27T09:34:02Z</time>
      </trkpt>
      <trkpt lat="47.19171" lon="-1.68667">
        <ele>28.91</ele>
        <time>2016-11-27T09:34:18Z</time>
      </trkpt>
      <trkpt lat="47.1916" lon="-1.68666">
        <ele>27.18</ele>
        <time>2016-11-27T09:39:09Z</time>
      </trkpt>
      <trkpt lat="47.19169" lon="-1.68643">
        <ele>31.25</ele>
        <time>2016-11-27T09:49:56Z</time>
      </trkpt>
      <trkpt lat="47.19162" lon="-1.68618">
        <ele>31.76</ele>
        <time>2016-11-27T09:50:08Z</time>
      </trkpt>
      <trkpt lat="47.19153" lon="-1.68594">
        <ele>32.06</ele>
        <time>2016-11-27T09:50:17Z</time>
      </trkpt>
      <trkpt lat="47.19144" lon="-1.68569">
        <ele>32.32</ele>
        <time>2016-11-27T09:50:26Z</time>
      </trkpt>
      <trkpt lat="47.19143" lon="-1.68542">
        <ele>33.55</ele>
        <time>2016-11-27T09:51:55Z</time>
      </trkpt>
      <trkpt lat="47.19134" lon="-1.68518">
        <ele>35.21</ele>
        <time>2016-11-27T09:52:26Z</time>
      </trkpt>
      <trkpt lat="47.19122" lon="-1.68498">
        <ele>35.77</ele>
        <time>2016-11-27T09:52:36Z</time>
      </trkpt>
      <trkpt lat="47.19128" lon="-1.68471">
        <ele>36.48</ele>
        <time>2016-11-27T09:52:54Z</time>
      </trkpt>
      <trkpt lat="47.19148" lon="-1.68464">
        <ele>36.87</ele>
        <time>2016-11-27T09:53:03Z</time>
      </trkpt>
      <trkpt lat="47.19155" lon="-1.68436">
        <ele>37.42</ele>
        <time>2016-11-27T09:53:17Z</time>
      </trkpt>
      <trkpt lat="47.19152" lon="-1.68407">
        <ele>37.62</ele>
        <time>2016-11-27T09:53:26Z</time>
      </trkpt>
      <trkpt lat="47.19149" lon="-1.68381">
        <ele>37.8</ele>
        <time>2016-11-27T09:53:36Z</time>
      </trkpt>
      <trkpt lat="47.19148" lon="-1.68352">
        <ele>37.88</ele>
        <time>2016-11-27T09:53:44Z</time>
      </trkpt>
      <trkpt lat="47.19146" lon="-1.68324">
        <ele>37.87</ele>
        <time>2016-11-27T09:53:54Z</time>
      </trkpt>
      <trkpt lat="47.19145" lon="-1.68297">
        <ele>37.77</ele>
        <time>2016-11-27T09:54:03Z</time>
      </trkpt>
      <trkpt lat="47.19137" lon="-1.68271">
        <ele>37.63</ele>
        <time>2016-11-27T09:54:13Z</time>
      </trkpt>
      <trkpt lat="47.19123" lon="-1.68255">
        <ele>37.44</ele>
        <time>2016-11-27T09:54:25Z</time>
      </trkpt>
      <trkpt lat="47.19114" lon="-1.6823">
        <ele>37.33</ele>
        <time>2016-11-27T09:54:33Z</time>
      </trkpt>
      <trkpt lat="47.19111" lon="-1.68203">
        <ele>37.23</ele>
        <time>2016-11-27T09:54:39Z</time>
      </trkpt>
      <trkpt lat="47.19109" lon="-1.68173">
        <ele>37.07</ele>
        <time>2016-11-27T09:54:45Z</time>
      </trkpt>
      <trkpt lat="47.19108" lon="-1.68147">
        <ele>36.81</ele>
        <time>2016-11-27T09:54:51Z</time>
      </trkpt>
      <trkpt lat="47.19101" lon="-1.6812">
        <ele>36.49</ele>
        <time>2016-11-27T09:54:57Z</time>
      </trkpt>
      <trkpt lat="47.19094" lon="-1.68091">
        <ele>35.02</ele>
        <time>2016-11-27T09:55:02Z</time>
      </trkpt>
      <trkpt lat="47.19085" lon="-1.68067">
        <ele>34.9</ele>
        <time>2016-11-27T09:55:08Z</time>
      </trkpt>
      <trkpt lat="47.19074" lon="-1.68045">
        <ele>34.79</ele>
        <time>2016-11-27T09:55:13Z</time>
      </trkpt>
      <trkpt lat="47.19057" lon="-1.68034">
        <ele>34.67</ele>
        <time>2016-11-27T09:55:18Z</time>
      </trkpt>
      <trkpt lat="47.19039" lon="-1.68026">
        <ele>34.41</ele>
        <time>2016-11-27T09:55:26Z</time>
      </trkpt>
      <trkpt lat="47.1902" lon="-1.68021">
        <ele>34.07</ele>
        <time>2016-11-27T09:55:35Z</time>
      </trkpt>
      <trkpt lat="47.18999" lon="-1.68027">
        <ele>33.73</ele>
        <time>2016-11-27T09:55:46Z</time>
      </trkpt>
      <trkpt lat="47.1898" lon="-1.68022">
        <ele>33.43</ele>
        <time>2016-11-27T09:56:06Z</time>
      </trkpt>
      <trkpt lat="47.18968" lon="-1.68002">
        <ele>33.71</ele>
        <time>2016-11-27T09:56:19Z</time>
      </trkpt>
      <trkpt lat="47.18953" lon="-1.67985">
        <ele>33.87</ele>
        <time>2016-11-27T09:56:32Z</time>
      </trkpt>
      <trkpt lat="47.18943" lon="-1.67962">
        <ele>33.3</ele>
        <time>2016-11-27T09:57:03Z</time>
      </trkpt>
      <trkpt lat="47.18932" lon="-1.6794">
        <ele>32.96</ele>
        <time>2016-11-27T09:57:15Z</time>
      </trkpt>
      <trkpt lat="47.18921" lon="-1.67917">
        <ele>32.84</ele>
        <time>2016-11-27T09:57:23Z</time>
      </trkpt>
      <trkpt lat="47.18914" lon="-1.67892">
        <ele>32.79</ele>
        <time>2016-11-27T09:57:38Z</time>
      </trkpt>
      <trkpt lat="47.18916" lon="-1.67861">
        <ele>32.5</ele>
        <time>2016-11-27T09:57:46Z</time>
      </trkpt>
      <trkpt lat="47.18915" lon="-1.67829">
        <ele>31.97</ele>
        <time>2016-11-27T09:57:51Z</time>
      </trkpt>
      <trkpt lat="47.18914" lon="-1.67802">
        <ele>31.97</ele>
        <time>2016-11-27T09:57:58Z</time>
      </trkpt>
      <trkpt lat="47.18909" lon="-1.67776">
        <ele>31.97</ele>
        <time>2016-11-27T09:58:04Z</time>
      </trkpt>
      <trkpt lat="47.18903" lon="-1.67749">
        <ele>31.94</ele>
        <time>2016-11-27T09:58:11Z</time>
      </trkpt>
      <trkpt lat="47.18898" lon="-1.67723">
        <ele>31.85</ele>
        <time>2016-11-27T09:58:22Z</time>
      </trkpt>
      <trkpt lat="47.18916" lon="-1.67712">
        <ele>31.74</ele>
        <time>2016-11-27T09:58:36Z</time>
      </trkpt>
      <trkpt lat="47.18933" lon="-1.67702">
        <ele>32.03</ele>
        <time>2016-11-27T09:59:25Z</time>
      </trkpt>
      <trkpt lat="47.18939" lon="-1.67676">
        <ele>31.61</ele>
        <time>2016-11-27T09:59:51Z</time>
      </trkpt>
      <trkpt lat="47.18931" lon="-1.67652">
        <ele>30.99</ele>
        <time>2016-11-27T10:00:35Z</time>
      </trkpt>
      <trkpt lat="47.18926" lon="-1.67626">
        <ele>28.12</ele>
        <time>2016-11-27T10:02:47Z</time>
      </trkpt>
      <trkpt lat="47.1893" lon="-1.67599">
        <ele>26.49</ele>
        <time>2016-11-27T10:04:07Z</time>
      </trkpt>
      <trkpt lat="47.18929" lon="-1.67572">
        <ele>24.98</ele>
        <time>2016-11-27T10:04:45Z</time>
      </trkpt>
      <trkpt lat="47.18917" lon="-1.6755">
        <ele>24.45</ele>
        <time>2016-11-27T10:04:57Z</time>
      </trkpt>
      <trkpt lat="47.18915" lon="-1.67519">
        <ele>24.22</ele>
        <time>2016-11-27T10:05:03Z</time>
      </trkpt>
      <trkpt lat="47.18909" lon="-1.67491">
        <ele>24.01</ele>
        <time>2016-11-27T10:05:10Z</time>
      </trkpt>
      <trkpt lat="47.1891" lon="-1.67462">
        <ele>23.81</ele>
        <time>2016-11-27T10:05:18Z</time>
      </trkpt>
      <trkpt lat="47.18909" lon="-1.67435">
        <ele>23.13</ele>
        <time>2016-11-27T10:05:55Z</time>
      </trkpt>
      <trkpt lat="47.18898" lon="-1.67411">
        <ele>22.82</ele>
        <time>2016-11-27T10:06:08Z</time>
      </trkpt>
      <trkpt lat="47.18887" lon="-1.67388">
        <ele>22.57</ele>
        <time>2016-11-27T10:06:18Z</time>
      </trkpt>
      <trkpt lat="47.18878" lon="-1.67363">
        <ele>22.48</ele>
        <time>2016-11-27T10:06:26Z</time>
      </trkpt>
      <trkpt lat="47.18872" lon="-1.67337">
        <ele>22.41</ele>
        <time>2016-11-27T10:06:34Z</time>
      </trkpt>
      <trkpt lat="47.18865" lon="-1.67308">
        <ele>22.38</ele>
        <time>2016-11-27T10:06:41Z</time>
      </trkpt>
      <trkpt lat="47.18859" lon="-1.67282">
        <ele>22.36</ele>
        <time>2016-11-27T10:06:51Z</time>
      </trkpt>
      <trkpt lat="47.18851" lon="-1.67252">
        <ele>22.36</ele>
        <time>2016-11-27T10:07:00Z</time>
      </trkpt>
      <trkpt lat="47.18839" lon="-1.67231">
        <ele>22.32</ele>
        <time>2016-11-27T10:07:06Z</time>
      </trkpt>
      <trkpt lat="47.18827" lon="-1.67202">
        <ele>22.27</ele>
        <time>2016-11-27T10:07:14Z</time>
      </trkpt>
      <trkpt lat="47.18815" lon="-1.67182">
        <ele>22.19</ele>
        <time>2016-11-27T10:07:29Z</time>
      </trkpt>
      <trkpt lat="47.18811" lon="-1.67154">
        <ele>22.12</ele>
        <time>2016-11-27T10:07:41Z</time>
      </trkpt>
      <trkpt lat="47.18804" lon="-1.67123">
        <ele>22.1</ele>
        <time>2016-11-27T10:07:56Z</time>
      </trkpt>
      <trkpt lat="47.18802" lon="-1.67096">
        <ele>21.73</ele>
        <time>2016-11-27T10:08:14Z</time>
      </trkpt>
      <trkpt lat="47.18804" lon="-1.6707">
        <ele>20.55</ele>
        <time>2016-11-27T10:08:33Z</time>
      </trkpt>
      <trkpt lat="47.188" lon="-1.67042">
        <ele>19.34</ele>
        <time>2016-11-27T10:08:57Z</time>
      </trkpt>
      <trkpt lat="47.18794" lon="-1.67017">
        <ele>18.94</ele>
        <time>2016-11-27T10:09:06Z</time>
      </trkpt>
      <trkpt lat="47.18785" lon="-1.66991">
        <ele>18.7</ele>
        <time>2016-11-27T10:09:12Z</time>
      </trkpt>
      <trkpt lat="47.18773" lon="-1.66968">
        <ele>18.4</ele>
        <time>2016-11-27T10:09:30Z</time>
      </trkpt>
      <trkpt lat="47.18767" lon="-1.66942">
        <ele>18.53</ele>
        <time>2016-11-27T10:09:40Z</time>
      </trkpt>
      <trkpt lat="47.1876" lon="-1.66915">
        <ele>18.64</ele>
        <time>2016-11-27T10:09:49Z</time>
      </trkpt>
      <trkpt lat="47.18757" lon="-1.66886">
        <ele>18.78</ele>
        <time>2016-11-27T10:09:59Z</time>
      </trkpt>
      <trkpt lat="47.18753" lon="-1.6686">
        <ele>18.88</ele>
        <time>2016-11-27T10:10:08Z</time>
      </trkpt>
      <trkpt lat="47.18756" lon="-1.66833">
        <ele>18.05</ele>
        <time>2016-11-27T10:10:34Z</time>
      </trkpt>
      <trkpt lat="47.18766" lon="-1.66809">
        <ele>16.32</ele>
        <time>2016-11-27T10:11:01Z</time>
      </trkpt>
      <trkpt lat="47.1877" lon="-1.66782">
        <ele>15.76</ele>
        <time>2016-11-27T10:11:09Z</time>
      </trkpt>
      <trkpt lat="47.18772" lon="-1.66754">
        <ele>14.96</ele>
        <time>2016-11-27T10:11:25Z</time>
      </trkpt>
      <trkpt lat="47.1879" lon="-1.66737">
        <ele>14.69</ele>
        <time>2016-11-27T10:11:33Z</time>
      </trkpt>
      <trkpt lat="47.18792" lon="-1.66708">
        <ele>14.36</ele>
        <time>2016-11-27T10:11:40Z</time>
      </trkpt>
      <trkpt lat="47.18789" lon="-1.66679">
        <ele>12.49</ele>
        <time>2016-11-27T10:12:11Z</time>
      </trkpt>
      <trkpt lat="47.18782" lon="-1.66652">
        <ele>11.33</ele>
        <time>2016-11-27T10:12:21Z</time>
      </trkpt>
      <trkpt lat="47.1878" lon="-1.66626">
        <ele>10.23</ele>
        <time>2016-11-27T10:12:31Z</time>
      </trkpt>
      <trkpt lat="47.18777" lon="-1.66598">
        <ele>9.37</ele>
        <time>2016-11-27T10:12:39Z</time>
      </trkpt>
      <trkpt lat="47.18774" lon="-1.66571">
        <ele>8.66</ele>
        <time>2016-11-27T10:12:46Z</time>
      </trkpt>
      <trkpt lat="47.18772" lon="-1.66542">
        <ele>7.84</ele>
        <time>2016-11-27T10:12:54Z</time>
      </trkpt>
      <trkpt lat="47.18768" lon="-1.66514">
        <ele>7.08</ele>
        <time>2016-11-27T10:13:02Z</time>
      </trkpt>
      <trkpt lat="47.18761" lon="-1.66489">
        <ele>5.96</ele>
        <time>2016-11-27T10:13:14Z</time>
      </trkpt>
      <trkpt lat="47.18746" lon="-1.66504">
        <ele>8.14</ele>
        <time>2016-11-27T10:14:40Z</time>
      </trkpt>
      <trkpt lat="47.18726" lon="-1.66508">
        <ele>9.14</ele>
        <time>2016-11-27T10:14:55Z</time>
      </trkpt>
      <trkpt lat="47.18706" lon="-1.66509">
        <ele>10.11</ele>
        <time>2016-11-27T10:15:13Z</time>
      </trkpt>
      <trkpt lat="47.18687" lon="-1.66507">
        <ele>10.86</ele>
        <time>2016-11-27T10:15:31Z</time>
      </trkpt>
      <trkpt lat="47.18669" lon="-1.66502">
        <ele>10.89</ele>
        <time>2016-11-27T10:15:57Z</time>
      </trkpt>
      <trkpt lat="47.18651" lon="-1.66496">
        <ele>10.7</ele>
        <time>2016-11-27T10:16:22Z</time>
      </trkpt>
      <trkpt lat="47.18633" lon="-1.66488">
        <ele>10.43</ele>
        <time>2016-11-27T10:16:41Z</time>
      </trkpt>
      <trkpt lat="47.18615" lon="-1.66481">
        <ele>9.97</ele>
        <time>2016-11-27T10:17:01Z</time>
      </trkpt>
      <trkpt lat="47.18599" lon="-1.66469">
        <ele>10.61</ele>
        <time>2016-11-27T10:17:23Z</time>
      </trkpt>
      <trkpt lat="47.1858" lon="-1.66461">
        <ele>11.15</ele>
        <time>2016-11-27T10:17:45Z</time>
      </trkpt>
      <trkpt lat="47.18562" lon="-1.66456">
        <ele>11.47</ele>
        <time>2016-11-27T10:18:00Z</time>
      </trkpt>
      <trkpt lat="47.18544" lon="-1.66456">
        <ele>11.92</ele>
        <time>2016-11-27T10:18:16Z</time>
      </trkpt>
      <trkpt lat="47.18526" lon="-1.66462">
        <ele>12.4</ele>
        <time>2016-11-27T10:18:33Z</time>
      </trkpt>
      <trkpt lat="47.18509" lon="-1.6645">
        <ele>13.01</ele>
        <time>2016-11-27T10:18:48Z</time>
      </trkpt>
      <trkpt lat="47.18491" lon="-1.66444">
        <ele>17.45</ele>
        <time>2016-11-27T10:20:22Z</time>
      </trkpt>
      <trkpt lat="47.18474" lon="-1.66435">
        <ele>20.88</ele>
        <time>2016-11-27T10:20:45Z</time>
      </trkpt>
      <trkpt lat="47.18454" lon="-1.66437">
        <ele>22.52</ele>
        <time>2016-11-27T10:20:58Z</time>
      </trkpt>
      <trkpt lat="47.18435" lon="-1.66441">
        <ele>23.84</ele>
        <time>2016-11-27T10:21:11Z</time>
      </trkpt>
      <trkpt lat="47.18417" lon="-1.66438">
        <ele>24.96</ele>
        <time>2016-11-27T10:21:24Z</time>
      </trkpt>
      <trkpt lat="47.18395" lon="-1.66446">
        <ele>25.71</ele>
        <time>2016-11-27T10:21:33Z</time>
      </trkpt>
      <trkpt lat="47.18378" lon="-1.66457">
        <ele>26.48</ele>
        <time>2016-11-27T10:21:44Z</time>
      </trkpt>
      <trkpt lat="47.18359" lon="-1.66459">
        <ele>27.17</ele>
        <time>2016-11-27T10:21:55Z</time>
      </trkpt>
      <trkpt lat="47.18341" lon="-1.6646">
        <ele>27.83</ele>
        <time>2016-11-27T10:22:07Z</time>
      </trkpt>
      <trkpt lat="47.18323" lon="-1.66464">
        <ele>28.41</ele>
        <time>2016-11-27T10:22:18Z</time>
      </trkpt>
      <trkpt lat="47.18304" lon="-1.66467">
        <ele>28.83</ele>
        <time>2016-11-27T10:22:27Z</time>
      </trkpt>
      <trkpt lat="47.18287" lon="-1.66478">
        <ele>29.43</ele>
        <time>2016-11-27T10:22:42Z</time>
      </trkpt>
      <trkpt lat="47.18305" lon="-1.66474">
        <ele>29.8</ele>
        <time>2016-11-27T10:25:08Z</time>
      </trkpt>
      <trkpt lat="47.18324" lon="-1.66476">
        <ele>29.71</ele>
        <time>2016-11-27T10:25:13Z</time>
      </trkpt>
      <trkpt lat="47.18343" lon="-1.66471">
        <ele>29.59</ele>
        <time>2016-11-27T10:25:19Z</time>
      </trkpt>
      <trkpt lat="47.18361" lon="-1.66463">
        <ele>29.48</ele>
        <time>2016-11-27T10:25:30Z</time>
      </trkpt>
      <trkpt lat="47.18361" lon="-1.66436">
        <ele>29.55</ele>
        <time>2016-11-27T10:25:57Z</time>
      </trkpt>
      <trkpt lat="47.1835" lon="-1.66414">
        <ele>29.57</ele>
        <time>2016-11-27T10:26:02Z</time>
      </trkpt>
      <trkpt lat="47.18341" lon="-1.66391">
        <ele>29.77</ele>
        <time>2016-11-27T10:26:06Z</time>
      </trkpt>
      <trkpt lat="47.18328" lon="-1.66365">
        <ele>30.3</ele>
        <time>2016-11-27T10:26:11Z</time>
      </trkpt>
      <trkpt lat="47.18316" lon="-1.66342">
        <ele>30.41</ele>
        <time>2016-11-27T10:26:16Z</time>
      </trkpt>
      <trkpt lat="47.18305" lon="-1.66318">
        <ele>31</ele>
        <time>2016-11-27T10:26:21Z</time>
      </trkpt>
      <trkpt lat="47.18295" lon="-1.66294">
        <ele>32.66</ele>
        <time>2016-11-27T10:26:26Z</time>
      </trkpt>
      <trkpt lat="47.18282" lon="-1.66269">
        <ele>34.7</ele>
        <time>2016-11-27T10:26:31Z</time>
      </trkpt>
      <trkpt lat="47.18271" lon="-1.66247">
        <ele>35.16</ele>
        <time>2016-11-27T10:26:36Z</time>
      </trkpt>
      <trkpt lat="47.18259" lon="-1.66225">
        <ele>35.36</ele>
        <time>2016-11-27T10:26:41Z</time>
      </trkpt>
      <trkpt lat="47.18246" lon="-1.66201">
        <ele>35.64</ele>
        <time>2016-11-27T10:26:47Z</time>
      </trkpt>
      <trkpt lat="47.18233" lon="-1.66179">
        <ele>35.92</ele>
        <time>2016-11-27T10:26:53Z</time>
      </trkpt>
      <trkpt lat="47.18221" lon="-1.66158">
        <ele>36.23</ele>
        <time>2016-11-27T10:27:00Z</time>
      </trkpt>
      <trkpt lat="47.18209" lon="-1.66133">
        <ele>36.59</ele>
        <time>2016-11-27T10:27:07Z</time>
      </trkpt>
      <trkpt lat="47.18197" lon="-1.6611">
        <ele>36.98</ele>
        <time>2016-11-27T10:27:14Z</time>
      </trkpt>
      <trkpt lat="47.18186" lon="-1.66084">
        <ele>37.35</ele>
        <time>2016-11-27T10:27:21Z</time>
      </trkpt>
      <trkpt lat="47.18175" lon="-1.66061">
        <ele>37.76</ele>
        <time>2016-11-27T10:27:29Z</time>
      </trkpt>
      <trkpt lat="47.18161" lon="-1.6604">
        <ele>38.05</ele>
        <time>2016-11-27T10:27:37Z</time>
      </trkpt>
      <trkpt lat="47.18147" lon="-1.6602">
        <ele>38.19</ele>
        <time>2016-11-27T10:27:43Z</time>
      </trkpt>
      <trkpt lat="47.18133" lon="-1.65997">
        <ele>38.36</ele>
        <time>2016-11-27T10:27:50Z</time>
      </trkpt>
      <trkpt lat="47.18118" lon="-1.65978">
        <ele>38.55</ele>
        <time>2016-11-27T10:27:57Z</time>
      </trkpt>
      <trkpt lat="47.18103" lon="-1.65959">
        <ele>38.72</ele>
        <time>2016-11-27T10:28:04Z</time>
      </trkpt>
      <trkpt lat="47.18089" lon="-1.65941">
        <ele>38.94</ele>
        <time>2016-11-27T10:28:12Z</time>
      </trkpt>
      <trkpt lat="47.18108" lon="-1.65928">
        <ele>39.12</ele>
        <time>2016-11-27T10:28:31Z</time>
      </trkpt>
      <trkpt lat="47.18123" lon="-1.65906">
        <ele>39.02</ele>
        <time>2016-11-27T10:28:37Z</time>
      </trkpt>
      <trkpt lat="47.18139" lon="-1.65888">
        <ele>38.87</ele>
        <time>2016-11-27T10:28:42Z</time>
      </trkpt>
      <trkpt lat="47.18155" lon="-1.65871">
        <ele>38.25</ele>
        <time>2016-11-27T10:28:47Z</time>
      </trkpt>
      <trkpt lat="47.18172" lon="-1.65852">
        <ele>38.34</ele>
        <time>2016-11-27T10:28:52Z</time>
      </trkpt>
      <trkpt lat="47.18188" lon="-1.65832">
        <ele>38.33</ele>
        <time>2016-11-27T10:28:57Z</time>
      </trkpt>
      <trkpt lat="47.18203" lon="-1.65818">
        <ele>38.05</ele>
        <time>2016-11-27T10:29:01Z</time>
      </trkpt>
      <trkpt lat="47.1822" lon="-1.65799">
        <ele>37.8</ele>
        <time>2016-11-27T10:29:06Z</time>
      </trkpt>
      <trkpt lat="47.18234" lon="-1.65781">
        <ele>37.49</ele>
        <time>2016-11-27T10:29:10Z</time>
      </trkpt>
      <trkpt lat="47.1825" lon="-1.65766">
        <ele>36.88</ele>
        <time>2016-11-27T10:29:15Z</time>
      </trkpt>
      <trkpt lat="47.18264" lon="-1.65749">
        <ele>35.02</ele>
        <time>2016-11-27T10:29:57Z</time>
      </trkpt>
      <trkpt lat="47.18265" lon="-1.65717">
        <ele>33.62</ele>
        <time>2016-11-27T10:30:04Z</time>
      </trkpt>
      <trkpt lat="47.18257" lon="-1.65689">
        <ele>33.43</ele>
        <time>2016-11-27T10:30:08Z</time>
      </trkpt>
      <trkpt lat="47.18249" lon="-1.65661">
        <ele>33.28</ele>
        <time>2016-11-27T10:30:13Z</time>
      </trkpt>
      <trkpt lat="47.18237" lon="-1.65636">
        <ele>33.08</ele>
        <time>2016-11-27T10:30:19Z</time>
      </trkpt>
      <trkpt lat="47.18227" lon="-1.65613">
        <ele>32.88</ele>
        <time>2016-11-27T10:30:25Z</time>
      </trkpt>
      <trkpt lat="47.18215" lon="-1.65591">
        <ele>32.68</ele>
        <time>2016-11-27T10:30:31Z</time>
      </trkpt>
      <trkpt lat="47.18201" lon="-1.65569">
        <ele>32.46</ele>
        <time>2016-11-27T10:30:38Z</time>
      </trkpt>
      <trkpt lat="47.18188" lon="-1.65547">
        <ele>32.23</ele>
        <time>2016-11-27T10:30:44Z</time>
      </trkpt>
      <trkpt lat="47.18171" lon="-1.65533">
        <ele>32.04</ele>
        <time>2016-11-27T10:30:52Z</time>
      </trkpt>
      <trkpt lat="47.18155" lon="-1.65517">
        <ele>31.91</ele>
        <time>2016-11-27T10:30:58Z</time>
      </trkpt>
      <trkpt lat="47.18136" lon="-1.65501">
        <ele>31.66</ele>
        <time>2016-11-27T10:31:05Z</time>
      </trkpt>
      <trkpt lat="47.18121" lon="-1.65484">
        <ele>31.43</ele>
        <time>2016-11-27T10:31:11Z</time>
      </trkpt>
      <trkpt lat="47.18108" lon="-1.65463">
        <ele>31.24</ele>
        <time>2016-11-27T10:31:18Z</time>
      </trkpt>
      <trkpt lat="47.181" lon="-1.65437">
        <ele>31.14</ele>
        <time>2016-11-27T10:31:24Z</time>
      </trkpt>
      <trkpt lat="47.18094" lon="-1.6541">
        <ele>31.03</ele>
        <time>2016-11-27T10:31:30Z</time>
      </trkpt>
      <trkpt lat="47.18088" lon="-1.65383">
        <ele>30.9</ele>
        <time>2016-11-27T10:31:36Z</time>
      </trkpt>
      <trkpt lat="47.1808" lon="-1.65357">
        <ele>30.36</ele>
        <time>2016-11-27T10:31:41Z</time>
      </trkpt>
      <trkpt lat="47.18072" lon="-1.65327">
        <ele>30.05</ele>
        <time>2016-11-27T10:31:47Z</time>
      </trkpt>
      <trkpt lat="47.18063" lon="-1.653">
        <ele>29.95</ele>
        <time>2016-11-27T10:31:52Z</time>
      </trkpt>
      <trkpt lat="47.18052" lon="-1.65275">
        <ele>29.84</ele>
        <time>2016-11-27T10:31:58Z</time>
      </trkpt>
      <trkpt lat="47.18039" lon="-1.65256">
        <ele>29.77</ele>
        <time>2016-11-27T10:32:04Z</time>
      </trkpt>
      <trkpt lat="47.18017" lon="-1.65263">
        <ele>29.69</ele>
        <time>2016-11-27T10:32:11Z</time>
      </trkpt>
      <trkpt lat="47.17998" lon="-1.65268">
        <ele>29.66</ele>
        <time>2016-11-27T10:32:18Z</time>
      </trkpt>
      <trkpt lat="47.17978" lon="-1.65274">
        <ele>29.63</ele>
        <time>2016-11-27T10:32:25Z</time>
      </trkpt>
      <trkpt lat="47.1796" lon="-1.65268">
        <ele>29.62</ele>
        <time>2016-11-27T10:32:31Z</time>
      </trkpt>
      <trkpt lat="47.17941" lon="-1.65264">
        <ele>29.5</ele>
        <time>2016-11-27T10:32:38Z</time>
      </trkpt>
      <trkpt lat="47.17924" lon="-1.65257">
        <ele>29.36</ele>
        <time>2016-11-27T10:32:45Z</time>
      </trkpt>
      <trkpt lat="47.17905" lon="-1.6526">
        <ele>29.25</ele>
        <time>2016-11-27T10:32:52Z</time>
      </trkpt>
      <trkpt lat="47.17888" lon="-1.65273">
        <ele>29.08</ele>
        <time>2016-11-27T10:33:00Z</time>
      </trkpt>
      <trkpt lat="47.17871" lon="-1.6526">
        <ele>28.42</ele>
        <time>2016-11-27T10:33:42Z</time>
      </trkpt>
      <trkpt lat="47.1786" lon="-1.65238">
        <ele>28.12</ele>
        <time>2016-11-27T10:33:52Z</time>
      </trkpt>
      <trkpt lat="47.17858" lon="-1.65209">
        <ele>27.93</ele>
        <time>2016-11-27T10:33:59Z</time>
      </trkpt>
      <trkpt lat="47.17854" lon="-1.65182">
        <ele>27.81</ele>
        <time>2016-11-27T10:34:05Z</time>
      </trkpt>
      <trkpt lat="47.17854" lon="-1.65156">
        <ele>27.7</ele>
        <time>2016-11-27T10:34:13Z</time>
      </trkpt>
      <trkpt lat="47.17853" lon="-1.65124">
        <ele>27.54</ele>
        <time>2016-11-27T10:34:20Z</time>
      </trkpt>
      <trkpt lat="47.17851" lon="-1.65096">
        <ele>27.38</ele>
        <time>2016-11-27T10:34:26Z</time>
      </trkpt>
      <trkpt lat="47.17849" lon="-1.65069">
        <ele>27.17</ele>
        <time>2016-11-27T10:34:32Z</time>
      </trkpt>
      <trkpt lat="47.17847" lon="-1.65042">
        <ele>26.97</ele>
        <time>2016-11-27T10:34:39Z</time>
      </trkpt>
      <trkpt lat="47.17844" lon="-1.65016">
        <ele>26.77</ele>
        <time>2016-11-27T10:34:46Z</time>
      </trkpt>
      <trkpt lat="47.17841" lon="-1.64989">
        <ele>26.57</ele>
        <time>2016-11-27T10:34:52Z</time>
      </trkpt>
      <trkpt lat="47.17839" lon="-1.6496">
        <ele>26.32</ele>
        <time>2016-11-27T10:35:01Z</time>
      </trkpt>
      <trkpt lat="47.17845" lon="-1.64933">
        <ele>26.02</ele>
        <time>2016-11-27T10:35:22Z</time>
      </trkpt>
      <trkpt lat="47.17858" lon="-1.64911">
        <ele>26.02</ele>
        <time>2016-11-27T10:35:27Z</time>
      </trkpt>
      <trkpt lat="47.17872" lon="-1.64886">
        <ele>25.98</ele>
        <time>2016-11-27T10:35:33Z</time>
      </trkpt>
      <trkpt lat="47.17882" lon="-1.64864">
        <ele>25.96</ele>
        <time>2016-11-27T10:35:38Z</time>
      </trkpt>
      <trkpt lat="47.17891" lon="-1.6484">
        <ele>25.96</ele>
        <time>2016-11-27T10:35:44Z</time>
      </trkpt>
      <trkpt lat="47.17901" lon="-1.64818">
        <ele>25.94</ele>
        <time>2016-11-27T10:35:49Z</time>
      </trkpt>
      <trkpt lat="47.17913" lon="-1.64791">
        <ele>25.38</ele>
        <time>2016-11-27T10:35:54Z</time>
      </trkpt>
      <trkpt lat="47.17926" lon="-1.64767">
        <ele>24.77</ele>
        <time>2016-11-27T10:35:59Z</time>
      </trkpt>
      <trkpt lat="47.17938" lon="-1.64737">
        <ele>24.67</ele>
        <time>2016-11-27T10:36:04Z</time>
      </trkpt>
      <trkpt lat="47.17946" lon="-1.64712">
        <ele>24.48</ele>
        <time>2016-11-27T10:36:09Z</time>
      </trkpt>
      <trkpt lat="47.17952" lon="-1.64684">
        <ele>24.21</ele>
        <time>2016-11-27T10:36:15Z</time>
      </trkpt>
      <trkpt lat="47.17954" lon="-1.6465">
        <ele>23.26</ele>
        <time>2016-11-27T10:36:20Z</time>
      </trkpt>
      <trkpt lat="47.17957" lon="-1.6462">
        <ele>22.52</ele>
        <time>2016-11-27T10:36:24Z</time>
      </trkpt>
      <trkpt lat="47.17964" lon="-1.64592">
        <ele>22.05</ele>
        <time>2016-11-27T10:36:28Z</time>
      </trkpt>
      <trkpt lat="47.17971" lon="-1.64562">
        <ele>22.44</ele>
        <time>2016-11-27T10:36:33Z</time>
      </trkpt>
      <trkpt lat="47.17974" lon="-1.64534">
        <ele>22.62</ele>
        <time>2016-11-27T10:36:38Z</time>
      </trkpt>
      <trkpt lat="47.17977" lon="-1.64506">
        <ele>22.21</ele>
        <time>2016-11-27T10:36:43Z</time>
      </trkpt>
      <trkpt lat="47.17978" lon="-1.64479">
        <ele>22.22</ele>
        <time>2016-11-27T10:36:49Z</time>
      </trkpt>
      <trkpt lat="47.1798" lon="-1.64448">
        <ele>22.3</ele>
        <time>2016-11-27T10:36:55Z</time>
      </trkpt>
      <trkpt lat="47.17976" lon="-1.64419">
        <ele>22.34</ele>
        <time>2016-11-27T10:37:01Z</time>
      </trkpt>
      <trkpt lat="47.1797" lon="-1.64388">
        <ele>22.28</ele>
        <time>2016-11-27T10:37:07Z</time>
      </trkpt>
      <trkpt lat="47.17964" lon="-1.64362">
        <ele>22.12</ele>
        <time>2016-11-27T10:37:12Z</time>
      </trkpt>
      <trkpt lat="47.17959" lon="-1.64333">
        <ele>21.7</ele>
        <time>2016-11-27T10:37:20Z</time>
      </trkpt>
      <trkpt lat="47.17951" lon="-1.64307">
        <ele>21.13</ele>
        <time>2016-11-27T10:37:26Z</time>
      </trkpt>
      <trkpt lat="47.17943" lon="-1.6428">
        <ele>20.53</ele>
        <time>2016-11-27T10:37:32Z</time>
      </trkpt>
      <trkpt lat="47.17935" lon="-1.64255">
        <ele>20.13</ele>
        <time>2016-11-27T10:37:38Z</time>
      </trkpt>
      <trkpt lat="47.17926" lon="-1.6423">
        <ele>19.82</ele>
        <time>2016-11-27T10:37:45Z</time>
      </trkpt>
      <trkpt lat="47.17915" lon="-1.64203">
        <ele>19.53</ele>
        <time>2016-11-27T10:37:52Z</time>
      </trkpt>
      <trkpt lat="47.17905" lon="-1.64178">
        <ele>19.4</ele>
        <time>2016-11-27T10:37:58Z</time>
      </trkpt>
      <trkpt lat="47.17893" lon="-1.64153">
        <ele>19.23</ele>
        <time>2016-11-27T10:38:06Z</time>
      </trkpt>
      <trkpt lat="47.17882" lon="-1.64128">
        <ele>19.15</ele>
        <time>2016-11-27T10:38:12Z</time>
      </trkpt>
      <trkpt lat="47.17871" lon="-1.64102">
        <ele>18.97</ele>
        <time>2016-11-27T10:38:19Z</time>
      </trkpt>
      <trkpt lat="47.17863" lon="-1.64073">
        <ele>18.74</ele>
        <time>2016-11-27T10:38:25Z</time>
      </trkpt>
      <trkpt lat="47.17857" lon="-1.64047">
        <ele>18.4</ele>
        <time>2016-11-27T10:38:31Z</time>
      </trkpt>
      <trkpt lat="47.17849" lon="-1.64022">
        <ele>18.15</ele>
        <time>2016-11-27T10:38:36Z</time>
      </trkpt>
      <trkpt lat="47.17841" lon="-1.63995">
        <ele>16.99</ele>
        <time>2016-11-27T10:38:41Z</time>
      </trkpt>
      <trkpt lat="47.17834" lon="-1.63964">
        <ele>16.5</ele>
        <time>2016-11-27T10:38:47Z</time>
      </trkpt>
      <trkpt lat="47.17825" lon="-1.63939">
        <ele>16.36</ele>
        <time>2016-11-27T10:38:53Z</time>
      </trkpt>
      <trkpt lat="47.17818" lon="-1.63915">
        <ele>16.26</ele>
        <time>2016-11-27T10:38:59Z</time>
      </trkpt>
      <trkpt lat="47.17815" lon="-1.63884">
        <ele>16.19</ele>
        <time>2016-11-27T10:39:04Z</time>
      </trkpt>
      <trkpt lat="47.17815" lon="-1.63858">
        <ele>16.18</ele>
        <time>2016-11-27T10:39:10Z</time>
      </trkpt>
      <trkpt lat="47.17816" lon="-1.63829">
        <ele>16.31</ele>
        <time>2016-11-27T10:39:15Z</time>
      </trkpt>
      <trkpt lat="47.17817" lon="-1.63798">
        <ele>16.42</ele>
        <time>2016-11-27T10:39:20Z</time>
      </trkpt>
      <trkpt lat="47.1782" lon="-1.63764">
        <ele>15.5</ele>
        <time>2016-11-27T10:39:25Z</time>
      </trkpt>
      <trkpt lat="47.17817" lon="-1.63733">
        <ele>14.78</ele>
        <time>2016-11-27T10:39:30Z</time>
      </trkpt>
      <trkpt lat="47.1781" lon="-1.63704">
        <ele>14.13</ele>
        <time>2016-11-27T10:39:35Z</time>
      </trkpt>
      <trkpt lat="47.17796" lon="-1.6368">
        <ele>14.13</ele>
        <time>2016-11-27T10:39:41Z</time>
      </trkpt>
      <trkpt lat="47.17778" lon="-1.63673">
        <ele>14.15</ele>
        <time>2016-11-27T10:39:45Z</time>
      </trkpt>
      <trkpt lat="47.17766" lon="-1.63646">
        <ele>14.01</ele>
        <time>2016-11-27T10:39:49Z</time>
      </trkpt>
      <trkpt lat="47.17782" lon="-1.63619">
        <ele>12.88</ele>
        <time>2016-11-27T10:39:55Z</time>
      </trkpt>
      <trkpt lat="47.17793" lon="-1.63598">
        <ele>11.44</ele>
        <time>2016-11-27T10:39:59Z</time>
      </trkpt>
      <trkpt lat="47.178" lon="-1.63569">
        <ele>11.14</ele>
        <time>2016-11-27T10:40:05Z</time>
      </trkpt>
      <trkpt lat="47.17807" lon="-1.63541">
        <ele>10.86</ele>
        <time>2016-11-27T10:40:10Z</time>
      </trkpt>
      <trkpt lat="47.17814" lon="-1.63511">
        <ele>10.33</ele>
        <time>2016-11-27T10:40:16Z</time>
      </trkpt>
      <trkpt lat="47.17819" lon="-1.63482">
        <ele>10.17</ele>
        <time>2016-11-27T10:40:22Z</time>
      </trkpt>
      <trkpt lat="47.17821" lon="-1.63453">
        <ele>9.97</ele>
        <time>2016-11-27T10:40:28Z</time>
      </trkpt>
      <trkpt lat="47.17823" lon="-1.63427">
        <ele>9.8</ele>
        <time>2016-11-27T10:40:34Z</time>
      </trkpt>
      <trkpt lat="47.17824" lon="-1.63399">
        <ele>9.52</ele>
        <time>2016-11-27T10:40:40Z</time>
      </trkpt>
      <trkpt lat="47.17826" lon="-1.63367">
        <ele>9.24</ele>
        <time>2016-11-27T10:40:46Z</time>
      </trkpt>
      <trkpt lat="47.17828" lon="-1.63338">
        <ele>9.05</ele>
        <time>2016-11-27T10:40:51Z</time>
      </trkpt>
      <trkpt lat="47.17831" lon="-1.63307">
        <ele>8.81</ele>
        <time>2016-11-27T10:40:58Z</time>
      </trkpt>
      <trkpt lat="47.17835" lon="-1.63278">
        <ele>8.65</ele>
        <time>2016-11-27T10:41:03Z</time>
      </trkpt>
      <trkpt lat="47.17839" lon="-1.63247">
        <ele>8.47</ele>
        <time>2016-11-27T10:41:09Z</time>
      </trkpt>
      <trkpt lat="47.1784" lon="-1.6322">
        <ele>8.31</ele>
        <time>2016-11-27T10:41:14Z</time>
      </trkpt>
      <trkpt lat="47.17841" lon="-1.6319">
        <ele>8.21</ele>
        <time>2016-11-27T10:41:19Z</time>
      </trkpt>
      <trkpt lat="47.17843" lon="-1.63162">
        <ele>8.22</ele>
        <time>2016-11-27T10:41:25Z</time>
      </trkpt>
      <trkpt lat="47.17846" lon="-1.63134">
        <ele>8.11</ele>
        <time>2016-11-27T10:41:33Z</time>
      </trkpt>
      <trkpt lat="47.17849" lon="-1.63106">
        <ele>7.91</ele>
        <time>2016-11-27T10:41:41Z</time>
      </trkpt>
      <trkpt lat="47.17851" lon="-1.63079">
        <ele>7.62</ele>
        <time>2016-11-27T10:41:49Z</time>
      </trkpt>
      <trkpt lat="47.17852" lon="-1.63052">
        <ele>7.06</ele>
        <time>2016-11-27T10:42:03Z</time>
      </trkpt>
      <trkpt lat="47.17856" lon="-1.63026">
        <ele>7.06</ele>
        <time>2016-11-27T10:42:21Z</time>
      </trkpt>
      <trkpt lat="47.17855" lon="-1.62995">
        <ele>7.12</ele>
        <time>2016-11-27T10:42:28Z</time>
      </trkpt>
      <trkpt lat="47.17861" lon="-1.62969">
        <ele>7.19</ele>
        <time>2016-11-27T10:42:35Z</time>
      </trkpt>
      <trkpt lat="47.17863" lon="-1.62934">
        <ele>7.35</ele>
        <time>2016-11-27T10:42:42Z</time>
      </trkpt>
      <trkpt lat="47.17863" lon="-1.62907">
        <ele>7.47</ele>
        <time>2016-11-27T10:42:46Z</time>
      </trkpt>
      <trkpt lat="47.17859" lon="-1.6288">
        <ele>7.99</ele>
        <time>2016-11-27T10:43:00Z</time>
      </trkpt>
      <trkpt lat="47.17855" lon="-1.62851">
        <ele>7.89</ele>
        <time>2016-11-27T10:44:01Z</time>
      </trkpt>
      <trkpt lat="47.17841" lon="-1.62835">
        <ele>7.8</ele>
        <time>2016-11-27T10:44:47Z</time>
      </trkpt>
      <trkpt lat="47.17826" lon="-1.62817">
        <ele>7.68</ele>
        <time>2016-11-27T10:44:54Z</time>
      </trkpt>
      <trkpt lat="47.17811" lon="-1.62798">
        <ele>7.56</ele>
        <time>2016-11-27T10:45:00Z</time>
      </trkpt>
      <trkpt lat="47.17798" lon="-1.62775">
        <ele>7.45</ele>
        <time>2016-11-27T10:45:06Z</time>
      </trkpt>
      <trkpt lat="47.17785" lon="-1.62755">
        <ele>7.36</ele>
        <time>2016-11-27T10:45:12Z</time>
      </trkpt>
      <trkpt lat="47.17774" lon="-1.62734">
        <ele>7.3</ele>
        <time>2016-11-27T10:45:18Z</time>
      </trkpt>
      <trkpt lat="47.17759" lon="-1.62715">
        <ele>7.29</ele>
        <time>2016-11-27T10:45:24Z</time>
      </trkpt>
      <trkpt lat="47.17745" lon="-1.62696">
        <ele>7.31</ele>
        <time>2016-11-27T10:45:30Z</time>
      </trkpt>
      <trkpt lat="47.17732" lon="-1.62675">
        <ele>7.4</ele>
        <time>2016-11-27T10:45:36Z</time>
      </trkpt>
      <trkpt lat="47.1772" lon="-1.62654">
        <ele>7.48</ele>
        <time>2016-11-27T10:45:42Z</time>
      </trkpt>
      <trkpt lat="47.1771" lon="-1.62631">
        <ele>7.57</ele>
        <time>2016-11-27T10:45:48Z</time>
      </trkpt>
      <trkpt lat="47.17696" lon="-1.62608">
        <ele>7.73</ele>
        <time>2016-11-27T10:45:56Z</time>
      </trkpt>
      <trkpt lat="47.17679" lon="-1.62594">
        <ele>7.89</ele>
        <time>2016-11-27T10:46:03Z</time>
      </trkpt>
      <trkpt lat="47.17665" lon="-1.62572">
        <ele>7.97</ele>
        <time>2016-11-27T10:46:11Z</time>
      </trkpt>
      <trkpt lat="47.17652" lon="-1.62551">
        <ele>8.02</ele>
        <time>2016-11-27T10:46:18Z</time>
      </trkpt>
      <trkpt lat="47.17638" lon="-1.62534">
        <ele>8.04</ele>
        <time>2016-11-27T10:46:24Z</time>
      </trkpt>
      <trkpt lat="47.17625" lon="-1.62511">
        <ele>8.05</ele>
        <time>2016-11-27T10:46:31Z</time>
      </trkpt>
      <trkpt lat="47.1761" lon="-1.6249">
        <ele>8.1</ele>
        <time>2016-11-27T10:46:39Z</time>
      </trkpt>
      <trkpt lat="47.17597" lon="-1.62471">
        <ele>8.16</ele>
        <time>2016-11-27T10:46:45Z</time>
      </trkpt>
      <trkpt lat="47.17583" lon="-1.62451">
        <ele>8.24</ele>
        <time>2016-11-27T10:46:51Z</time>
      </trkpt>
      <trkpt lat="47.17567" lon="-1.62432">
        <ele>8.34</ele>
        <time>2016-11-27T10:46:58Z</time>
      </trkpt>
      <trkpt lat="47.17552" lon="-1.62413">
        <ele>8.53</ele>
        <time>2016-11-27T10:47:05Z</time>
      </trkpt>
      <trkpt lat="47.17537" lon="-1.62394">
        <ele>8.9</ele>
        <time>2016-11-27T10:47:11Z</time>
      </trkpt>
      <trkpt lat="47.17524" lon="-1.62412">
        <ele>9.2</ele>
        <time>2016-11-27T10:47:18Z</time>
      </trkpt>
      <trkpt lat="47.17506" lon="-1.62412">
        <ele>9.48</ele>
        <time>2016-11-27T10:47:22Z</time>
      </trkpt>
      <trkpt lat="47.1749" lon="-1.62399">
        <ele>11.6</ele>
        <time>2016-11-27T10:47:26Z</time>
      </trkpt>
      <trkpt lat="47.17497" lon="-1.62373">
        <ele>12.3</ele>
        <time>2016-11-27T10:47:32Z</time>
      </trkpt>
      <trkpt lat="47.17515" lon="-1.62358">
        <ele>12.37</ele>
        <time>2016-11-27T10:47:38Z</time>
      </trkpt>
      <trkpt lat="47.17527" lon="-1.62337">
        <ele>12.37</ele>
        <time>2016-11-27T10:47:44Z</time>
      </trkpt>
      <trkpt lat="47.17537" lon="-1.62311">
        <ele>12.36</ele>
        <time>2016-11-27T10:47:51Z</time>
      </trkpt>
      <trkpt lat="47.17545" lon="-1.62284">
        <ele>12.5</ele>
        <time>2016-11-27T10:47:59Z</time>
      </trkpt>
      <trkpt lat="47.1755" lon="-1.62256">
        <ele>12.56</ele>
        <time>2016-11-27T10:48:06Z</time>
      </trkpt>
      <trkpt lat="47.17559" lon="-1.6223">
        <ele>12.6</ele>
        <time>2016-11-27T10:48:16Z</time>
      </trkpt>
      <trkpt lat="47.17568" lon="-1.62206">
        <ele>12.65</ele>
        <time>2016-11-27T10:48:24Z</time>
      </trkpt>
      <trkpt lat="47.17578" lon="-1.62183">
        <ele>12.72</ele>
        <time>2016-11-27T10:48:31Z</time>
      </trkpt>
      <trkpt lat="47.17588" lon="-1.62158">
        <ele>12.89</ele>
        <time>2016-11-27T10:48:40Z</time>
      </trkpt>
      <trkpt lat="47.17597" lon="-1.62132">
        <ele>13.05</ele>
        <time>2016-11-27T10:48:47Z</time>
      </trkpt>
      <trkpt lat="47.17605" lon="-1.62106">
        <ele>13.05</ele>
        <time>2016-11-27T10:48:55Z</time>
      </trkpt>
      <trkpt lat="47.17614" lon="-1.62078">
        <ele>13.01</ele>
        <time>2016-11-27T10:49:04Z</time>
      </trkpt>
      <trkpt lat="47.17622" lon="-1.62058">
        <ele>12.99</ele>
        <time>2016-11-27T10:49:10Z</time>
      </trkpt>
      <trkpt lat="47.17631" lon="-1.62033">
        <ele>13.03</ele>
        <time>2016-11-27T10:49:17Z</time>
      </trkpt>
      <trkpt lat="47.1764" lon="-1.62009">
        <ele>13.22</ele>
        <time>2016-11-27T10:49:26Z</time>
      </trkpt>
      <trkpt lat="47.17646" lon="-1.61982">
        <ele>13.33</ele>
        <time>2016-11-27T10:49:33Z</time>
      </trkpt>
      <trkpt lat="47.17662" lon="-1.61961">
        <ele>13.42</ele>
        <time>2016-11-27T10:49:40Z</time>
      </trkpt>
      <trkpt lat="47.1767" lon="-1.61936">
        <ele>13.54</ele>
        <time>2016-11-27T10:49:46Z</time>
      </trkpt>
      <trkpt lat="47.17675" lon="-1.61909">
        <ele>13.67</ele>
        <time>2016-11-27T10:49:52Z</time>
      </trkpt>
      <trkpt lat="47.1768" lon="-1.61879">
        <ele>13.69</ele>
        <time>2016-11-27T10:49:59Z</time>
      </trkpt>
      <trkpt lat="47.17683" lon="-1.61846">
        <ele>13.7</ele>
        <time>2016-11-27T10:50:05Z</time>
      </trkpt>
      <trkpt lat="47.17685" lon="-1.61816">
        <ele>13.69</ele>
        <time>2016-11-27T10:50:10Z</time>
      </trkpt>
      <trkpt lat="47.17687" lon="-1.61788">
        <ele>13.65</ele>
        <time>2016-11-27T10:50:15Z</time>
      </trkpt>
      <trkpt lat="47.17688" lon="-1.61758">
        <ele>13.27</ele>
        <time>2016-11-27T10:50:20Z</time>
      </trkpt>
      <trkpt lat="47.17689" lon="-1.61729">
        <ele>13.36</ele>
        <time>2016-11-27T10:50:24Z</time>
      </trkpt>
      <trkpt lat="47.17689" lon="-1.61696">
        <ele>13.34</ele>
        <time>2016-11-27T10:50:28Z</time>
      </trkpt>
      <trkpt lat="47.17691" lon="-1.61665">
        <ele>13.29</ele>
        <time>2016-11-27T10:50:32Z</time>
      </trkpt>
      <trkpt lat="47.17692" lon="-1.61637">
        <ele>13.22</ele>
        <time>2016-11-27T10:50:35Z</time>
      </trkpt>
      <trkpt lat="47.17692" lon="-1.61607">
        <ele>13.06</ele>
        <time>2016-11-27T10:50:39Z</time>
      </trkpt>
      <trkpt lat="47.17693" lon="-1.61578">
        <ele>13.23</ele>
        <time>2016-11-27T10:50:43Z</time>
      </trkpt>
      <trkpt lat="47.17691" lon="-1.61546">
        <ele>12.98</ele>
        <time>2016-11-27T10:50:47Z</time>
      </trkpt>
      <trkpt lat="47.1768" lon="-1.61511">
        <ele>12.09</ele>
        <time>2016-11-27T10:50:51Z</time>
      </trkpt>
      <trkpt lat="47.1767" lon="-1.61487">
        <ele>11.33</ele>
        <time>2016-11-27T10:50:54Z</time>
      </trkpt>
      <trkpt lat="47.17658" lon="-1.61459">
        <ele>10.55</ele>
        <time>2016-11-27T10:50:58Z</time>
      </trkpt>
      <trkpt lat="47.17644" lon="-1.61439">
        <ele>10.35</ele>
        <time>2016-11-27T10:51:01Z</time>
      </trkpt>
      <trkpt lat="47.17628" lon="-1.61421">
        <ele>10.22</ele>
        <time>2016-11-27T10:51:04Z</time>
      </trkpt>
      <trkpt lat="47.17613" lon="-1.614">
        <ele>10.03</ele>
        <time>2016-11-27T10:51:08Z</time>
      </trkpt>
      <trkpt lat="47.17597" lon="-1.61386">
        <ele>9.93</ele>
        <time>2016-11-27T10:51:12Z</time>
      </trkpt>
      <trkpt lat="47.1758" lon="-1.6137">
        <ele>9.85</ele>
        <time>2016-11-27T10:51:17Z</time>
      </trkpt>
      <trkpt lat="47.17562" lon="-1.61354">
        <ele>9.94</ele>
        <time>2016-11-27T10:51:23Z</time>
      </trkpt>
      <trkpt lat="47.17545" lon="-1.6134">
        <ele>10.13</ele>
        <time>2016-11-27T10:51:31Z</time>
      </trkpt>
      <trkpt lat="47.17529" lon="-1.61326">
        <ele>10.22</ele>
        <time>2016-11-27T10:51:37Z</time>
      </trkpt>
      <trkpt lat="47.17519" lon="-1.61303">
        <ele>10.37</ele>
        <time>2016-11-27T10:51:46Z</time>
      </trkpt>
      <trkpt lat="47.17511" lon="-1.61277">
        <ele>10.54</ele>
        <time>2016-11-27T10:51:51Z</time>
      </trkpt>
      <trkpt lat="47.175" lon="-1.61253">
        <ele>10.54</ele>
        <time>2016-11-27T10:51:57Z</time>
      </trkpt>
      <trkpt lat="47.17488" lon="-1.61228">
        <ele>10.59</ele>
        <time>2016-11-27T10:52:03Z</time>
      </trkpt>
      <trkpt lat="47.17476" lon="-1.61204">
        <ele>10.65</ele>
        <time>2016-11-27T10:52:09Z</time>
      </trkpt>
      <trkpt lat="47.17465" lon="-1.61181">
        <ele>10.79</ele>
        <time>2016-11-27T10:52:14Z</time>
      </trkpt>
      <trkpt lat="47.17453" lon="-1.61155">
        <ele>10.66</ele>
        <time>2016-11-27T10:52:19Z</time>
      </trkpt>
      <trkpt lat="47.17438" lon="-1.61133">
        <ele>9.8</ele>
        <time>2016-11-27T10:52:24Z</time>
      </trkpt>
      <trkpt lat="47.17424" lon="-1.61109">
        <ele>7.22</ele>
        <time>2016-11-27T10:52:29Z</time>
      </trkpt>
      <trkpt lat="47.17408" lon="-1.61089">
        <ele>8.28</ele>
        <time>2016-11-27T10:52:34Z</time>
      </trkpt>
      <trkpt lat="47.17394" lon="-1.6107">
        <ele>8.97</ele>
        <time>2016-11-27T10:52:40Z</time>
      </trkpt>
      <trkpt lat="47.17375" lon="-1.61057">
        <ele>15.21</ele>
        <time>2016-11-27T10:52:46Z</time>
      </trkpt>
      <trkpt lat="47.17369" lon="-1.61028">
        <ele>17.02</ele>
        <time>2016-11-27T10:52:50Z</time>
      </trkpt>
      <trkpt lat="47.17375" lon="-1.60997">
        <ele>18.41</ele>
        <time>2016-11-27T10:52:55Z</time>
      </trkpt>
      <trkpt lat="47.17377" lon="-1.60968">
        <ele>18.5</ele>
        <time>2016-11-27T10:52:59Z</time>
      </trkpt>
      <trkpt lat="47.17379" lon="-1.60937">
        <ele>18.1</ele>
        <time>2016-11-27T10:53:04Z</time>
      </trkpt>
      <trkpt lat="47.17381" lon="-1.60909">
        <ele>17.66</ele>
        <time>2016-11-27T10:53:11Z</time>
      </trkpt>
      <trkpt lat="47.17384" lon="-1.60883">
        <ele>17.07</ele>
        <time>2016-11-27T10:53:19Z</time>
      </trkpt>
      <trkpt lat="47.17388" lon="-1.60854">
        <ele>16.56</ele>
        <time>2016-11-27T10:53:27Z</time>
      </trkpt>
      <trkpt lat="47.17393" lon="-1.60827">
        <ele>16.12</ele>
        <time>2016-11-27T10:53:36Z</time>
      </trkpt>
      <trkpt lat="47.17401" lon="-1.60803">
        <ele>15.81</ele>
        <time>2016-11-27T10:53:44Z</time>
      </trkpt>
      <trkpt lat="47.17411" lon="-1.6078">
        <ele>15.57</ele>
        <time>2016-11-27T10:53:53Z</time>
      </trkpt>
      <trkpt lat="47.17423" lon="-1.60757">
        <ele>15.37</ele>
        <time>2016-11-27T10:54:03Z</time>
      </trkpt>
      <trkpt lat="47.17436" lon="-1.60737">
        <ele>15.27</ele>
        <time>2016-11-27T10:54:12Z</time>
      </trkpt>
      <trkpt lat="47.1745" lon="-1.60716">
        <ele>15.21</ele>
        <time>2016-11-27T10:54:21Z</time>
      </trkpt>
      <trkpt lat="47.17462" lon="-1.60697">
        <ele>15.16</ele>
        <time>2016-11-27T10:54:30Z</time>
      </trkpt>
      <trkpt lat="47.17475" lon="-1.60675">
        <ele>15.11</ele>
        <time>2016-11-27T10:54:40Z</time>
      </trkpt>
      <trkpt lat="47.17487" lon="-1.60655">
        <ele>15.06</ele>
        <time>2016-11-27T10:54:49Z</time>
      </trkpt>
      <trkpt lat="47.17502" lon="-1.60634">
        <ele>15.16</ele>
        <time>2016-11-27T10:54:58Z</time>
      </trkpt>
      <trkpt lat="47.17514" lon="-1.60613">
        <ele>15.28</ele>
        <time>2016-11-27T10:55:09Z</time>
      </trkpt>
      <trkpt lat="47.17528" lon="-1.60593">
        <ele>10.74</ele>
        <time>2016-11-27T10:59:55Z</time>
      </trkpt>
      <trkpt lat="47.17543" lon="-1.60569">
        <ele>10.22</ele>
        <time>2016-11-27T11:00:00Z</time>
      </trkpt>
      <trkpt lat="47.17557" lon="-1.60548">
        <ele>10.02</ele>
        <time>2016-11-27T11:00:05Z</time>
      </trkpt>
      <trkpt lat="47.17568" lon="-1.60525">
        <ele>9.94</ele>
        <time>2016-11-27T11:00:10Z</time>
      </trkpt>
      <trkpt lat="47.17581" lon="-1.60506">
        <ele>9.86</ele>
        <time>2016-11-27T11:00:15Z</time>
      </trkpt>
      <trkpt lat="47.17593" lon="-1.60485">
        <ele>9.82</ele>
        <time>2016-11-27T11:00:20Z</time>
      </trkpt>
      <trkpt lat="47.17606" lon="-1.60463">
        <ele>9.93</ele>
        <time>2016-11-27T11:00:25Z</time>
      </trkpt>
      <trkpt lat="47.1762" lon="-1.60441">
        <ele>10.01</ele>
        <time>2016-11-27T11:00:31Z</time>
      </trkpt>
      <trkpt lat="47.17634" lon="-1.60421">
        <ele>10.12</ele>
        <time>2016-11-27T11:00:38Z</time>
      </trkpt>
      <trkpt lat="47.17648" lon="-1.60401">
        <ele>10.25</ele>
        <time>2016-11-27T11:00:44Z</time>
      </trkpt>
      <trkpt lat="47.17661" lon="-1.60378">
        <ele>10.42</ele>
        <time>2016-11-27T11:00:52Z</time>
      </trkpt>
      <trkpt lat="47.17674" lon="-1.60357">
        <ele>10.62</ele>
        <time>2016-11-27T11:00:59Z</time>
      </trkpt>
      <trkpt lat="47.17687" lon="-1.60336">
        <ele>10.88</ele>
        <time>2016-11-27T11:01:06Z</time>
      </trkpt>
      <trkpt lat="47.17702" lon="-1.60316">
        <ele>11.12</ele>
        <time>2016-11-27T11:01:12Z</time>
      </trkpt>
      <trkpt lat="47.17717" lon="-1.60295">
        <ele>11.39</ele>
        <time>2016-11-27T11:01:18Z</time>
      </trkpt>
      <trkpt lat="47.1773" lon="-1.60274">
        <ele>11.66</ele>
        <time>2016-11-27T11:01:24Z</time>
      </trkpt>
      <trkpt lat="47.1774" lon="-1.60251">
        <ele>13.11</ele>
        <time>2016-11-27T11:01:29Z</time>
      </trkpt>
      <trkpt lat="47.17747" lon="-1.60224">
        <ele>13.74</ele>
        <time>2016-11-27T11:01:34Z</time>
      </trkpt>
      <trkpt lat="47.17755" lon="-1.60199">
        <ele>13.76</ele>
        <time>2016-11-27T11:01:39Z</time>
      </trkpt>
      <trkpt lat="47.17766" lon="-1.60171">
        <ele>13.85</ele>
        <time>2016-11-27T11:01:44Z</time>
      </trkpt>
      <trkpt lat="47.17779" lon="-1.6015">
        <ele>14.04</ele>
        <time>2016-11-27T11:01:49Z</time>
      </trkpt>
      <trkpt lat="47.17794" lon="-1.60126">
        <ele>14.09</ele>
        <time>2016-11-27T11:01:55Z</time>
      </trkpt>
      <trkpt lat="47.17808" lon="-1.60102">
        <ele>14.48</ele>
        <time>2016-11-27T11:02:00Z</time>
      </trkpt>
      <trkpt lat="47.17819" lon="-1.6008">
        <ele>14.87</ele>
        <time>2016-11-27T11:02:04Z</time>
      </trkpt>
      <trkpt lat="47.17833" lon="-1.60055">
        <ele>15.01</ele>
        <time>2016-11-27T11:02:09Z</time>
      </trkpt>
      <trkpt lat="47.17846" lon="-1.60035">
        <ele>14.82</ele>
        <time>2016-11-27T11:02:13Z</time>
      </trkpt>
      <trkpt lat="47.17859" lon="-1.60015">
        <ele>14.59</ele>
        <time>2016-11-27T11:02:17Z</time>
      </trkpt>
      <trkpt lat="47.17871" lon="-1.59995">
        <ele>14.57</ele>
        <time>2016-11-27T11:02:21Z</time>
      </trkpt>
      <trkpt lat="47.17882" lon="-1.59974">
        <ele>14.63</ele>
        <time>2016-11-27T11:02:25Z</time>
      </trkpt>
      <trkpt lat="47.17897" lon="-1.59952">
        <ele>14.87</ele>
        <time>2016-11-27T11:02:30Z</time>
      </trkpt>
      <trkpt lat="47.1791" lon="-1.59932">
        <ele>14.92</ele>
        <time>2016-11-27T11:02:35Z</time>
      </trkpt>
      <trkpt lat="47.17923" lon="-1.59913">
        <ele>14.96</ele>
        <time>2016-11-27T11:02:41Z</time>
      </trkpt>
      <trkpt lat="47.17938" lon="-1.59899">
        <ele>14.98</ele>
        <time>2016-11-27T11:02:47Z</time>
      </trkpt>
      <trkpt lat="47.17945" lon="-1.59872">
        <ele>14.95</ele>
        <time>2016-11-27T11:02:54Z</time>
      </trkpt>
      <trkpt lat="47.17946" lon="-1.59845">
        <ele>14.73</ele>
        <time>2016-11-27T11:03:09Z</time>
      </trkpt>
      <trkpt lat="47.17951" lon="-1.59816">
        <ele>14.68</ele>
        <time>2016-11-27T11:03:16Z</time>
      </trkpt>
      <trkpt lat="47.17956" lon="-1.59788">
        <ele>14.73</ele>
        <time>2016-11-27T11:03:23Z</time>
      </trkpt>
      <trkpt lat="47.17959" lon="-1.59762">
        <ele>15.03</ele>
        <time>2016-11-27T11:03:31Z</time>
      </trkpt>
      <trkpt lat="47.17961" lon="-1.59735">
        <ele>15.53</ele>
        <time>2016-11-27T11:03:40Z</time>
      </trkpt>
      <trkpt lat="47.17976" lon="-1.59718">
        <ele>15.9</ele>
        <time>2016-11-27T11:03:46Z</time>
      </trkpt>
      <trkpt lat="47.17984" lon="-1.59693">
        <ele>16.18</ele>
        <time>2016-11-27T11:03:52Z</time>
      </trkpt>
      <trkpt lat="47.1799" lon="-1.59667">
        <ele>16.41</ele>
        <time>2016-11-27T11:03:58Z</time>
      </trkpt>
      <trkpt lat="47.17996" lon="-1.59641">
        <ele>16.66</ele>
        <time>2016-11-27T11:04:05Z</time>
      </trkpt>
      <trkpt lat="47.18" lon="-1.59614">
        <ele>16.97</ele>
        <time>2016-11-27T11:04:14Z</time>
      </trkpt>
      <trkpt lat="47.18008" lon="-1.59588">
        <ele>17.56</ele>
        <time>2016-11-27T11:05:47Z</time>
      </trkpt>
      <trkpt lat="47.18014" lon="-1.5956">
        <ele>17.69</ele>
        <time>2016-11-27T11:05:55Z</time>
      </trkpt>
      <trkpt lat="47.18019" lon="-1.59534">
        <ele>17.8</ele>
        <time>2016-11-27T11:06:02Z</time>
      </trkpt>
      <trkpt lat="47.18027" lon="-1.59509">
        <ele>17.92</ele>
        <time>2016-11-27T11:06:09Z</time>
      </trkpt>
      <trkpt lat="47.18036" lon="-1.59482">
        <ele>18.07</ele>
        <time>2016-11-27T11:06:17Z</time>
      </trkpt>
      <trkpt lat="47.18044" lon="-1.59457">
        <ele>18.27</ele>
        <time>2016-11-27T11:06:25Z</time>
      </trkpt>
      <trkpt lat="47.1805" lon="-1.5943">
        <ele>18.45</ele>
        <time>2016-11-27T11:06:32Z</time>
      </trkpt>
      <trkpt lat="47.18065" lon="-1.59409">
        <ele>18.7</ele>
        <time>2016-11-27T11:06:39Z</time>
      </trkpt>
      <trkpt lat="47.18084" lon="-1.594">
        <ele>19.07</ele>
        <time>2016-11-27T11:06:47Z</time>
      </trkpt>
      <trkpt lat="47.181" lon="-1.59385">
        <ele>19.52</ele>
        <time>2016-11-27T11:06:55Z</time>
      </trkpt>
      <trkpt lat="47.18116" lon="-1.59372">
        <ele>19.9</ele>
        <time>2016-11-27T11:07:02Z</time>
      </trkpt>
      <trkpt lat="47.18131" lon="-1.59356">
        <ele>20.26</ele>
        <time>2016-11-27T11:07:09Z</time>
      </trkpt>
      <trkpt lat="47.18147" lon="-1.59342">
        <ele>20.58</ele>
        <time>2016-11-27T11:07:15Z</time>
      </trkpt>
      <trkpt lat="47.18163" lon="-1.59323">
        <ele>21.01</ele>
        <time>2016-11-27T11:07:22Z</time>
      </trkpt>
      <trkpt lat="47.18178" lon="-1.59305">
        <ele>21.41</ele>
        <time>2016-11-27T11:07:28Z</time>
      </trkpt>
      <trkpt lat="47.18192" lon="-1.59288">
        <ele>21.81</ele>
        <time>2016-11-27T11:07:34Z</time>
      </trkpt>
      <trkpt lat="47.18209" lon="-1.59272">
        <ele>22.22</ele>
        <time>2016-11-27T11:07:40Z</time>
      </trkpt>
      <trkpt lat="47.18225" lon="-1.59254">
        <ele>22.81</ele>
        <time>2016-11-27T11:07:47Z</time>
      </trkpt>
      <trkpt lat="47.18241" lon="-1.5924">
        <ele>23.61</ele>
        <time>2016-11-27T11:07:55Z</time>
      </trkpt>
      <trkpt lat="47.1826" lon="-1.59223">
        <ele>24.38</ele>
        <time>2016-11-27T11:08:02Z</time>
      </trkpt>
      <trkpt lat="47.18276" lon="-1.59209">
        <ele>25.09</ele>
        <time>2016-11-27T11:08:09Z</time>
      </trkpt>
      <trkpt lat="47.18291" lon="-1.59227">
        <ele>25.7</ele>
        <time>2016-11-27T11:08:16Z</time>
      </trkpt>
      <trkpt lat="47.18308" lon="-1.59248">
        <ele>26.15</ele>
        <time>2016-11-27T11:08:22Z</time>
      </trkpt>
      <trkpt lat="47.18323" lon="-1.59266">
        <ele>26.48</ele>
        <time>2016-11-27T11:08:28Z</time>
      </trkpt>
      <trkpt lat="47.18341" lon="-1.59283">
        <ele>26.75</ele>
        <time>2016-11-27T11:08:34Z</time>
      </trkpt>
      <trkpt lat="47.18357" lon="-1.59298">
        <ele>27.16</ele>
        <time>2016-11-27T11:08:39Z</time>
      </trkpt>
      <trkpt lat="47.18375" lon="-1.59305">
        <ele>27.47</ele>
        <time>2016-11-27T11:08:43Z</time>
      </trkpt>
      <trkpt lat="47.18396" lon="-1.5931">
        <ele>28.06</ele>
        <time>2016-11-27T11:08:47Z</time>
      </trkpt>
      <trkpt lat="47.18414" lon="-1.59313">
        <ele>28.59</ele>
        <time>2016-11-27T11:08:51Z</time>
      </trkpt>
      <trkpt lat="47.18432" lon="-1.59318">
        <ele>28.75</ele>
        <time>2016-11-27T11:08:55Z</time>
      </trkpt>
      <trkpt lat="47.1845" lon="-1.5932">
        <ele>28.33</ele>
        <time>2016-11-27T11:08:59Z</time>
      </trkpt>
      <trkpt lat="47.18471" lon="-1.59326">
        <ele>27.55</ele>
        <time>2016-11-27T11:09:04Z</time>
      </trkpt>
      <trkpt lat="47.18489" lon="-1.59328">
        <ele>26.2</ele>
        <time>2016-11-27T11:09:08Z</time>
      </trkpt>
      <trkpt lat="47.18511" lon="-1.59329">
        <ele>24.85</ele>
        <time>2016-11-27T11:09:13Z</time>
      </trkpt>
      <trkpt lat="47.18533" lon="-1.59328">
        <ele>24.14</ele>
        <time>2016-11-27T11:09:18Z</time>
      </trkpt>
      <trkpt lat="47.18551" lon="-1.59327">
        <ele>24.07</ele>
        <time>2016-11-27T11:09:24Z</time>
      </trkpt>
      <trkpt lat="47.18566" lon="-1.59308">
        <ele>23.97</ele>
        <time>2016-11-27T11:09:30Z</time>
      </trkpt>
      <trkpt lat="47.18572" lon="-1.5928">
        <ele>23.85</ele>
        <time>2016-11-27T11:09:35Z</time>
      </trkpt>
      <trkpt lat="47.18574" lon="-1.59253">
        <ele>23.76</ele>
        <time>2016-11-27T11:09:40Z</time>
      </trkpt>
      <trkpt lat="47.18577" lon="-1.59226">
        <ele>23.64</ele>
        <time>2016-11-27T11:09:45Z</time>
      </trkpt>
      <trkpt lat="47.18581" lon="-1.59195">
        <ele>23.74</ele>
        <time>2016-11-27T11:09:51Z</time>
      </trkpt>
      <trkpt lat="47.18584" lon="-1.59164">
        <ele>23.84</ele>
        <time>2016-11-27T11:09:57Z</time>
      </trkpt>
      <trkpt lat="47.18587" lon="-1.59137">
        <ele>24.32</ele>
        <time>2016-11-27T11:10:02Z</time>
      </trkpt>
      <trkpt lat="47.18591" lon="-1.59107">
        <ele>24.48</ele>
        <time>2016-11-27T11:10:09Z</time>
      </trkpt>
      <trkpt lat="47.18594" lon="-1.59079">
        <ele>24.55</ele>
        <time>2016-11-27T11:10:15Z</time>
      </trkpt>
      <trkpt lat="47.18598" lon="-1.59052">
        <ele>24.66</ele>
        <time>2016-11-27T11:10:21Z</time>
      </trkpt>
      <trkpt lat="47.186" lon="-1.59024">
        <ele>24.97</ele>
        <time>2016-11-27T11:10:28Z</time>
      </trkpt>
      <trkpt lat="47.18602" lon="-1.58995">
        <ele>25.38</ele>
        <time>2016-11-27T11:10:34Z</time>
      </trkpt>
      <trkpt lat="47.18606" lon="-1.58965">
        <ele>25.9</ele>
        <time>2016-11-27T11:10:41Z</time>
      </trkpt>
      <trkpt lat="47.18611" lon="-1.58934">
        <ele>26.41</ele>
        <time>2016-11-27T11:10:48Z</time>
      </trkpt>
      <trkpt lat="47.18626" lon="-1.5892">
        <ele>26.96</ele>
        <time>2016-11-27T11:10:57Z</time>
      </trkpt>
      <trkpt lat="47.18644" lon="-1.58929">
        <ele>27.03</ele>
        <time>2016-11-27T11:11:03Z</time>
      </trkpt>
      <trkpt lat="47.18663" lon="-1.58928">
        <ele>26.82</ele>
        <time>2016-11-27T11:11:10Z</time>
      </trkpt>
      <trkpt lat="47.18682" lon="-1.58923">
        <ele>26.45</ele>
        <time>2016-11-27T11:11:17Z</time>
      </trkpt>
      <trkpt lat="47.18692" lon="-1.58897">
        <ele>25.91</ele>
        <time>2016-11-27T11:11:25Z</time>
      </trkpt>
      <trkpt lat="47.18694" lon="-1.58869">
        <ele>25.59</ele>
        <time>2016-11-27T11:11:30Z</time>
      </trkpt>
      <trkpt lat="47.18698" lon="-1.5884">
        <ele>24.87</ele>
        <time>2016-11-27T11:11:36Z</time>
      </trkpt>
      <trkpt lat="47.18705" lon="-1.58812">
        <ele>24.66</ele>
        <time>2016-11-27T11:11:42Z</time>
      </trkpt>
      <trkpt lat="47.18712" lon="-1.58785">
        <ele>24.56</ele>
        <time>2016-11-27T11:11:48Z</time>
      </trkpt>
      <trkpt lat="47.18719" lon="-1.58759">
        <ele>24.53</ele>
        <time>2016-11-27T11:11:55Z</time>
      </trkpt>
      <trkpt lat="47.18723" lon="-1.58732">
        <ele>24.61</ele>
        <time>2016-11-27T11:12:02Z</time>
      </trkpt>
      <trkpt lat="47.18725" lon="-1.58705">
        <ele>24.82</ele>
        <time>2016-11-27T11:12:11Z</time>
      </trkpt>
      <trkpt lat="47.18743" lon="-1.5871">
        <ele>25.13</ele>
        <time>2016-11-27T11:12:29Z</time>
      </trkpt>
      <trkpt lat="47.18761" lon="-1.58714">
        <ele>25.1</ele>
        <time>2016-11-27T11:12:38Z</time>
      </trkpt>
      <trkpt lat="47.18776" lon="-1.58698">
        <ele>24.88</ele>
        <time>2016-11-27T11:12:49Z</time>
      </trkpt>
      <trkpt lat="47.18794" lon="-1.58704">
        <ele>24.32</ele>
        <time>2016-11-27T11:13:00Z</time>
      </trkpt>
      <trkpt lat="47.18813" lon="-1.58699">
        <ele>23.44</ele>
        <time>2016-11-27T11:13:14Z</time>
      </trkpt>
      <trkpt lat="47.18826" lon="-1.58719">
        <ele>22.6</ele>
        <time>2016-11-27T11:13:24Z</time>
      </trkpt>
      <trkpt lat="47.18842" lon="-1.58732">
        <ele>21.26</ele>
        <time>2016-11-27T11:13:51Z</time>
      </trkpt>
      <trkpt lat="47.1886" lon="-1.58729">
        <ele>20.69</ele>
        <time>2016-11-27T11:13:59Z</time>
      </trkpt>
      <trkpt lat="47.18878" lon="-1.58722">
        <ele>20.2</ele>
        <time>2016-11-27T11:14:06Z</time>
      </trkpt>
      <trkpt lat="47.18897" lon="-1.58716">
        <ele>19.84</ele>
        <time>2016-11-27T11:14:12Z</time>
      </trkpt>
      <trkpt lat="47.18916" lon="-1.58705">
        <ele>18.43</ele>
        <time>2016-11-27T11:14:17Z</time>
      </trkpt>
      <trkpt lat="47.18933" lon="-1.58693">
        <ele>17.85</ele>
        <time>2016-11-27T11:14:21Z</time>
      </trkpt>
      <trkpt lat="47.18949" lon="-1.58678">
        <ele>17.75</ele>
        <time>2016-11-27T11:14:25Z</time>
      </trkpt>
      <trkpt lat="47.18964" lon="-1.58662">
        <ele>17.58</ele>
        <time>2016-11-27T11:14:29Z</time>
      </trkpt>
      <trkpt lat="47.18978" lon="-1.5864">
        <ele>17.49</ele>
        <time>2016-11-27T11:14:34Z</time>
      </trkpt>
      <trkpt lat="47.18994" lon="-1.58623">
        <ele>17.43</ele>
        <time>2016-11-27T11:14:39Z</time>
      </trkpt>
      <trkpt lat="47.19013" lon="-1.5861">
        <ele>17.07</ele>
        <time>2016-11-27T11:14:45Z</time>
      </trkpt>
      <trkpt lat="47.19028" lon="-1.58595">
        <ele>17.04</ele>
        <time>2016-11-27T11:14:51Z</time>
      </trkpt>
      <trkpt lat="47.19044" lon="-1.58579">
        <ele>17.04</ele>
        <time>2016-11-27T11:14:57Z</time>
      </trkpt>
      <trkpt lat="47.19059" lon="-1.58563">
        <ele>17.11</ele>
        <time>2016-11-27T11:15:05Z</time>
      </trkpt>
      <trkpt lat="47.19074" lon="-1.58548">
        <ele>17.1</ele>
        <time>2016-11-27T11:15:12Z</time>
      </trkpt>
      <trkpt lat="47.1909" lon="-1.58532">
        <ele>17.05</ele>
        <time>2016-11-27T11:15:19Z</time>
      </trkpt>
      <trkpt lat="47.19107" lon="-1.58514">
        <ele>17.08</ele>
        <time>2016-11-27T11:15:26Z</time>
      </trkpt>
      <trkpt lat="47.19123" lon="-1.58498">
        <ele>17.11</ele>
        <time>2016-11-27T11:15:32Z</time>
      </trkpt>
      <trkpt lat="47.1914" lon="-1.58483">
        <ele>17.07</ele>
        <time>2016-11-27T11:15:39Z</time>
      </trkpt>
      <trkpt lat="47.19155" lon="-1.58504">
        <ele>17.05</ele>
        <time>2016-11-27T11:15:48Z</time>
      </trkpt>
      <trkpt lat="47.19165" lon="-1.58527">
        <ele>16.97</ele>
        <time>2016-11-27T11:15:54Z</time>
      </trkpt>
      <trkpt lat="47.19175" lon="-1.5855">
        <ele>16.91</ele>
        <time>2016-11-27T11:16:01Z</time>
      </trkpt>
      <trkpt lat="47.19186" lon="-1.58573">
        <ele>16.88</ele>
        <time>2016-11-27T11:16:09Z</time>
      </trkpt>
      <trkpt lat="47.19199" lon="-1.58594">
        <ele>16.77</ele>
        <time>2016-11-27T11:16:20Z</time>
      </trkpt>
      <trkpt lat="47.19213" lon="-1.58577">
        <ele>16.57</ele>
        <time>2016-11-27T11:16:29Z</time>
      </trkpt>
      <trkpt lat="47.19231" lon="-1.5857">
        <ele>16.6</ele>
        <time>2016-11-27T11:16:38Z</time>
      </trkpt>
      <trkpt lat="47.19251" lon="-1.58565">
        <ele>16.73</ele>
        <time>2016-11-27T11:16:46Z</time>
      </trkpt>
      <trkpt lat="47.19265" lon="-1.58546">
        <ele>16.86</ele>
        <time>2016-11-27T11:16:55Z</time>
      </trkpt>
      <trkpt lat="47.19278" lon="-1.58527">
        <ele>17.16</ele>
        <time>2016-11-27T11:17:07Z</time>
      </trkpt>
      <trkpt lat="47.19285" lon="-1.58501">
        <ele>17.32</ele>
        <time>2016-11-27T11:17:17Z</time>
      </trkpt>
      <trkpt lat="47.19299" lon="-1.58481">
        <ele>17.46</ele>
        <time>2016-11-27T11:17:25Z</time>
      </trkpt>
      <trkpt lat="47.19308" lon="-1.58456">
        <ele>17.53</ele>
        <time>2016-11-27T11:17:32Z</time>
      </trkpt>
      <trkpt lat="47.19323" lon="-1.58437">
        <ele>17.7</ele>
        <time>2016-11-27T11:17:40Z</time>
      </trkpt>
      <trkpt lat="47.19339" lon="-1.58422">
        <ele>18</ele>
        <time>2016-11-27T11:17:52Z</time>
      </trkpt>
      <trkpt lat="47.19358" lon="-1.58432">
        <ele>18.72</ele>
        <time>2016-11-27T11:18:11Z</time>
      </trkpt>
      <trkpt lat="47.19375" lon="-1.58447">
        <ele>19.22</ele>
        <time>2016-11-27T11:18:20Z</time>
      </trkpt>
      <trkpt lat="47.19393" lon="-1.5845">
        <ele>19.74</ele>
        <time>2016-11-27T11:18:31Z</time>
      </trkpt>
      <trkpt lat="47.19413" lon="-1.58446">
        <ele>20.15</ele>
        <time>2016-11-27T11:18:40Z</time>
      </trkpt>
      <trkpt lat="47.19428" lon="-1.58429">
        <ele>20.67</ele>
        <time>2016-11-27T11:18:49Z</time>
      </trkpt>
      <trkpt lat="47.19441" lon="-1.58402">
        <ele>21.12</ele>
        <time>2016-11-27T11:18:55Z</time>
      </trkpt>
      <trkpt lat="47.19454" lon="-1.58379">
        <ele>21.44</ele>
        <time>2016-11-27T11:19:00Z</time>
      </trkpt>
      <trkpt lat="47.19466" lon="-1.58358">
        <ele>21.86</ele>
        <time>2016-11-27T11:19:06Z</time>
      </trkpt>
      <trkpt lat="47.19478" lon="-1.58336">
        <ele>22.16</ele>
        <time>2016-11-27T11:19:13Z</time>
      </trkpt>
      <trkpt lat="47.19489" lon="-1.58313">
        <ele>22.61</ele>
        <time>2016-11-27T11:19:23Z</time>
      </trkpt>
      <trkpt lat="47.19501" lon="-1.58291">
        <ele>23.33</ele>
        <time>2016-11-27T11:19:36Z</time>
      </trkpt>
      <trkpt lat="47.19514" lon="-1.58272">
        <ele>23.88</ele>
        <time>2016-11-27T11:19:50Z</time>
      </trkpt>
      <trkpt lat="47.19524" lon="-1.58248">
        <ele>23.74</ele>
        <time>2016-11-27T11:20:53Z</time>
      </trkpt>
      <trkpt lat="47.1953" lon="-1.58223">
        <ele>20.72</ele>
        <time>2016-11-27T11:22:06Z</time>
      </trkpt>
      <trkpt lat="47.19531" lon="-1.58197">
        <ele>18.48</ele>
        <time>2016-11-27T11:22:34Z</time>
      </trkpt>
      <trkpt lat="47.19528" lon="-1.58169">
        <ele>16.11</ele>
        <time>2016-11-27T11:22:56Z</time>
      </trkpt>
      <trkpt lat="47.19532" lon="-1.58142">
        <ele>15.3</ele>
        <time>2016-11-27T11:23:04Z</time>
      </trkpt>
      <trkpt lat="47.19535" lon="-1.58115">
        <ele>14.75</ele>
        <time>2016-11-27T11:23:10Z</time>
      </trkpt>
      <trkpt lat="47.19532" lon="-1.58086">
        <ele>14.28</ele>
        <time>2016-11-27T11:23:16Z</time>
      </trkpt>
      <trkpt lat="47.19525" lon="-1.58057">
        <ele>13.9</ele>
        <time>2016-11-27T11:23:22Z</time>
      </trkpt>
      <trkpt lat="47.19516" lon="-1.58033">
        <ele>13.49</ele>
        <time>2016-11-27T11:23:29Z</time>
      </trkpt>
      <trkpt lat="47.19509" lon="-1.58008">
        <ele>13.08</ele>
        <time>2016-11-27T11:23:37Z</time>
      </trkpt>
      <trkpt lat="47.1951" lon="-1.57981">
        <ele>12.78</ele>
        <time>2016-11-27T11:23:45Z</time>
      </trkpt>
      <trkpt lat="47.19505" lon="-1.57952">
        <ele>12.6</ele>
        <time>2016-11-27T11:23:53Z</time>
      </trkpt>
      <trkpt lat="47.19502" lon="-1.57925">
        <ele>12.52</ele>
        <time>2016-11-27T11:24:00Z</time>
      </trkpt>
      <trkpt lat="47.19496" lon="-1.57898">
        <ele>12.46</ele>
        <time>2016-11-27T11:24:08Z</time>
      </trkpt>
      <trkpt lat="47.19485" lon="-1.57876">
        <ele>12.52</ele>
        <time>2016-11-27T11:24:16Z</time>
      </trkpt>
      <trkpt lat="47.19481" lon="-1.57845">
        <ele>12.67</ele>
        <time>2016-11-27T11:24:25Z</time>
      </trkpt>
      <trkpt lat="47.19485" lon="-1.57818">
        <ele>12.77</ele>
        <time>2016-11-27T11:24:32Z</time>
      </trkpt>
      <trkpt lat="47.1949" lon="-1.57792">
        <ele>12.82</ele>
        <time>2016-11-27T11:24:39Z</time>
      </trkpt>
      <trkpt lat="47.19496" lon="-1.57765">
        <ele>12.91</ele>
        <time>2016-11-27T11:24:50Z</time>
      </trkpt>
      <trkpt lat="47.19515" lon="-1.57765">
        <ele>13.1</ele>
        <time>2016-11-27T11:25:04Z</time>
      </trkpt>
      <trkpt lat="47.19532" lon="-1.57772">
        <ele>13.53</ele>
        <time>2016-11-27T11:25:16Z</time>
      </trkpt>
      <trkpt lat="47.19549" lon="-1.57782">
        <ele>14.31</ele>
        <time>2016-11-27T11:25:47Z</time>
      </trkpt>
      <trkpt lat="47.19557" lon="-1.57786">
        <ele>16.01</ele>
        <time>2016-11-27T12:41:08Z</time>
      </trkpt>
      <trkpt lat="47.19546" lon="-1.57764">
        <ele>-0.84</ele>
        <time>2016-11-27T12:42:51Z</time>
      </trkpt>
      <trkpt lat="47.19535" lon="-1.57787">
        <ele>-2.6</ele>
        <time>2016-11-27T12:43:07Z</time>
      </trkpt>
      <trkpt lat="47.19517" lon="-1.57787">
        <ele>-4.15</ele>
        <time>2016-11-27T12:43:18Z</time>
      </trkpt>
      <trkpt lat="47.19499" lon="-1.57791">
        <ele>-5.59</ele>
        <time>2016-11-27T12:43:32Z</time>
      </trkpt>
      <trkpt lat="47.19493" lon="-1.57818">
        <ele>-6.09</ele>
        <time>2016-11-27T12:43:41Z</time>
      </trkpt>
      <trkpt lat="47.19489" lon="-1.57846">
        <ele>-6.17</ele>
        <time>2016-11-27T12:43:50Z</time>
      </trkpt>
      <trkpt lat="47.19492" lon="-1.57876">
        <ele>-5.78</ele>
        <time>2016-11-27T12:43:59Z</time>
      </trkpt>
      <trkpt lat="47.19495" lon="-1.57903">
        <ele>-5.69</ele>
        <time>2016-11-27T12:44:07Z</time>
      </trkpt>
      <trkpt lat="47.19498" lon="-1.57933">
        <ele>-5.87</ele>
        <time>2016-11-27T12:44:26Z</time>
      </trkpt>
      <trkpt lat="47.19502" lon="-1.57961">
        <ele>-5.92</ele>
        <time>2016-11-27T12:44:34Z</time>
      </trkpt>
      <trkpt lat="47.19507" lon="-1.5799">
        <ele>-5.92</ele>
        <time>2016-11-27T12:44:41Z</time>
      </trkpt>
      <trkpt lat="47.19513" lon="-1.58018">
        <ele>-5.88</ele>
        <time>2016-11-27T12:44:47Z</time>
      </trkpt>
      <trkpt lat="47.1952" lon="-1.58042">
        <ele>-5.87</ele>
        <time>2016-11-27T12:44:53Z</time>
      </trkpt>
      <trkpt lat="47.19527" lon="-1.5807">
        <ele>-5.92</ele>
        <time>2016-11-27T12:45:00Z</time>
      </trkpt>
      <trkpt lat="47.1953" lon="-1.58097">
        <ele>-5.92</ele>
        <time>2016-11-27T12:45:07Z</time>
      </trkpt>
      <trkpt lat="47.1953" lon="-1.58125">
        <ele>-5.89</ele>
        <time>2016-11-27T12:45:14Z</time>
      </trkpt>
      <trkpt lat="47.19527" lon="-1.58155">
        <ele>-5.85</ele>
        <time>2016-11-27T12:45:22Z</time>
      </trkpt>
      <trkpt lat="47.19528" lon="-1.58185">
        <ele>-5.74</ele>
        <time>2016-11-27T12:45:30Z</time>
      </trkpt>
      <trkpt lat="47.19525" lon="-1.58212">
        <ele>-5.59</ele>
        <time>2016-11-27T12:45:39Z</time>
      </trkpt>
      <trkpt lat="47.19539" lon="-1.5823">
        <ele>2.33</ele>
        <time>2016-11-27T12:51:17Z</time>
      </trkpt>
      <trkpt lat="47.19555" lon="-1.58217">
        <ele>2.18</ele>
        <time>2016-11-27T12:52:35Z</time>
      </trkpt>
      <trkpt lat="47.19571" lon="-1.58232">
        <ele>0.15</ele>
        <time>2016-11-27T12:53:28Z</time>
      </trkpt>
      <trkpt lat="47.1959" lon="-1.58243">
        <ele>-0.5</ele>
        <time>2016-11-27T12:53:38Z</time>
      </trkpt>
      <trkpt lat="47.1961" lon="-1.58244">
        <ele>-0.94</ele>
        <time>2016-11-27T12:53:46Z</time>
      </trkpt>
      <trkpt lat="47.19627" lon="-1.58236">
        <ele>-1.27</ele>
        <time>2016-11-27T12:53:52Z</time>
      </trkpt>
      <trkpt lat="47.19642" lon="-1.58219">
        <ele>-1.75</ele>
        <time>2016-11-27T12:53:57Z</time>
      </trkpt>
      <trkpt lat="47.19654" lon="-1.582">
        <ele>-2.58</ele>
        <time>2016-11-27T12:54:01Z</time>
      </trkpt>
      <trkpt lat="47.1967" lon="-1.58173">
        <ele>-2.88</ele>
        <time>2016-11-27T12:54:06Z</time>
      </trkpt>
      <trkpt lat="47.19682" lon="-1.58151">
        <ele>-2.9</ele>
        <time>2016-11-27T12:54:10Z</time>
      </trkpt>
      <trkpt lat="47.19696" lon="-1.58125">
        <ele>-2.94</ele>
        <time>2016-11-27T12:54:14Z</time>
      </trkpt>
      <trkpt lat="47.19711" lon="-1.581">
        <ele>-2.96</ele>
        <time>2016-11-27T12:54:19Z</time>
      </trkpt>
      <trkpt lat="47.19724" lon="-1.58074">
        <ele>-3.14</ele>
        <time>2016-11-27T12:54:24Z</time>
      </trkpt>
      <trkpt lat="47.19735" lon="-1.58048">
        <ele>-3.36</ele>
        <time>2016-11-27T12:54:28Z</time>
      </trkpt>
      <trkpt lat="47.19748" lon="-1.58026">
        <ele>-3.79</ele>
        <time>2016-11-27T12:54:32Z</time>
      </trkpt>
      <trkpt lat="47.19761" lon="-1.58">
        <ele>-4.23</ele>
        <time>2016-11-27T12:54:37Z</time>
      </trkpt>
      <trkpt lat="47.19773" lon="-1.57978">
        <ele>-4.67</ele>
        <time>2016-11-27T12:54:41Z</time>
      </trkpt>
      <trkpt lat="47.19786" lon="-1.57957">
        <ele>-5.12</ele>
        <time>2016-11-27T12:54:45Z</time>
      </trkpt>
      <trkpt lat="47.198" lon="-1.57933">
        <ele>-5.23</ele>
        <time>2016-11-27T12:54:50Z</time>
      </trkpt>
      <trkpt lat="47.19815" lon="-1.57909">
        <ele>-5.15</ele>
        <time>2016-11-27T12:54:55Z</time>
      </trkpt>
      <trkpt lat="47.19828" lon="-1.57882">
        <ele>-5.38</ele>
        <time>2016-11-27T12:55:00Z</time>
      </trkpt>
      <trkpt lat="47.19839" lon="-1.57858">
        <ele>-5.69</ele>
        <time>2016-11-27T12:55:04Z</time>
      </trkpt>
      <trkpt lat="47.19855" lon="-1.57836">
        <ele>-5.89</ele>
        <time>2016-11-27T12:55:08Z</time>
      </trkpt>
      <trkpt lat="47.19868" lon="-1.57817">
        <ele>-6.34</ele>
        <time>2016-11-27T12:55:12Z</time>
      </trkpt>
      <trkpt lat="47.19885" lon="-1.57794">
        <ele>-6.97</ele>
        <time>2016-11-27T12:55:17Z</time>
      </trkpt>
      <trkpt lat="47.19899" lon="-1.57775">
        <ele>-7.12</ele>
        <time>2016-11-27T12:55:21Z</time>
      </trkpt>
      <trkpt lat="47.19916" lon="-1.57756">
        <ele>-7.29</ele>
        <time>2016-11-27T12:55:26Z</time>
      </trkpt>
      <trkpt lat="47.1993" lon="-1.57739">
        <ele>-7.21</ele>
        <time>2016-11-27T12:55:30Z</time>
      </trkpt>
      <trkpt lat="47.19946" lon="-1.57721">
        <ele>-7.68</ele>
        <time>2016-11-27T12:55:35Z</time>
      </trkpt>
      <trkpt lat="47.19962" lon="-1.57703">
        <ele>-8.26</ele>
        <time>2016-11-27T12:55:40Z</time>
      </trkpt>
      <trkpt lat="47.19979" lon="-1.57686">
        <ele>-8.3</ele>
        <time>2016-11-27T12:55:45Z</time>
      </trkpt>
      <trkpt lat="47.19997" lon="-1.57671">
        <ele>-8.63</ele>
        <time>2016-11-27T12:55:50Z</time>
      </trkpt>
      <trkpt lat="47.20013" lon="-1.57653">
        <ele>-9.13</ele>
        <time>2016-11-27T12:55:55Z</time>
      </trkpt>
      <trkpt lat="47.20031" lon="-1.57635">
        <ele>-9.32</ele>
        <time>2016-11-27T12:56:00Z</time>
      </trkpt>
      <trkpt lat="47.20051" lon="-1.57621">
        <ele>-9.01</ele>
        <time>2016-11-27T12:56:05Z</time>
      </trkpt>
      <trkpt lat="47.20069" lon="-1.57609">
        <ele>-8.74</ele>
        <time>2016-11-27T12:56:09Z</time>
      </trkpt>
      <trkpt lat="47.20088" lon="-1.57594">
        <ele>-8.07</ele>
        <time>2016-11-27T12:56:14Z</time>
      </trkpt>
      <trkpt lat="47.20103" lon="-1.57579">
        <ele>-7.32</ele>
        <time>2016-11-27T12:56:18Z</time>
      </trkpt>
      <trkpt lat="47.20118" lon="-1.57565">
        <ele>-6.51</ele>
        <time>2016-11-27T12:56:22Z</time>
      </trkpt>
      <trkpt lat="47.20135" lon="-1.57551">
        <ele>-5.87</ele>
        <time>2016-11-27T12:56:26Z</time>
      </trkpt>
      <trkpt lat="47.20152" lon="-1.57541">
        <ele>-5.67</ele>
        <time>2016-11-27T12:56:30Z</time>
      </trkpt>
      <trkpt lat="47.2017" lon="-1.57532">
        <ele>-6.01</ele>
        <time>2016-11-27T12:56:35Z</time>
      </trkpt>
      <trkpt lat="47.20188" lon="-1.57524">
        <ele>-6.95</ele>
        <time>2016-11-27T12:56:40Z</time>
      </trkpt>
      <trkpt lat="47.20207" lon="-1.57514">
        <ele>-8.42</ele>
        <time>2016-11-27T12:56:45Z</time>
      </trkpt>
      <trkpt lat="47.20227" lon="-1.57502">
        <ele>-9.73</ele>
        <time>2016-11-27T12:56:50Z</time>
      </trkpt>
      <trkpt lat="47.20245" lon="-1.57491">
        <ele>-10.27</ele>
        <time>2016-11-27T12:56:54Z</time>
      </trkpt>
      <trkpt lat="47.20263" lon="-1.57482">
        <ele>-10.78</ele>
        <time>2016-11-27T12:56:59Z</time>
      </trkpt>
      <trkpt lat="47.20284" lon="-1.57471">
        <ele>-11.18</ele>
        <time>2016-11-27T12:57:04Z</time>
      </trkpt>
      <trkpt lat="47.20304" lon="-1.57462">
        <ele>-11.67</ele>
        <time>2016-11-27T12:57:09Z</time>
      </trkpt>
      <trkpt lat="47.20322" lon="-1.5745">
        <ele>-12.04</ele>
        <time>2016-11-27T12:57:14Z</time>
      </trkpt>
      <trkpt lat="47.20339" lon="-1.57439">
        <ele>-12.52</ele>
        <time>2016-11-27T12:57:19Z</time>
      </trkpt>
      <trkpt lat="47.20356" lon="-1.57429">
        <ele>-12.7</ele>
        <time>2016-11-27T12:57:24Z</time>
      </trkpt>
      <trkpt lat="47.20376" lon="-1.57418">
        <ele>-12.8</ele>
        <time>2016-11-27T12:57:30Z</time>
      </trkpt>
      <trkpt lat="47.20396" lon="-1.57408">
        <ele>-12.88</ele>
        <time>2016-11-27T12:57:36Z</time>
      </trkpt>
      <trkpt lat="47.20413" lon="-1.57399">
        <ele>-12.91</ele>
        <time>2016-11-27T12:57:41Z</time>
      </trkpt>
      <trkpt lat="47.20433" lon="-1.5739">
        <ele>-12.88</ele>
        <time>2016-11-27T12:57:47Z</time>
      </trkpt>
      <trkpt lat="47.20451" lon="-1.57378">
        <ele>-12.71</ele>
        <time>2016-11-27T12:57:53Z</time>
      </trkpt>
      <trkpt lat="47.20469" lon="-1.57367">
        <ele>-12.53</ele>
        <time>2016-11-27T12:57:59Z</time>
      </trkpt>
      <trkpt lat="47.20488" lon="-1.57356">
        <ele>-12.33</ele>
        <time>2016-11-27T12:58:06Z</time>
      </trkpt>
      <trkpt lat="47.20506" lon="-1.57349">
        <ele>-12.22</ele>
        <time>2016-11-27T12:58:13Z</time>
      </trkpt>
      <trkpt lat="47.20524" lon="-1.57339">
        <ele>-12.18</ele>
        <time>2016-11-27T12:58:21Z</time>
      </trkpt>
      <trkpt lat="47.20542" lon="-1.57328">
        <ele>-12.23</ele>
        <time>2016-11-27T12:58:30Z</time>
      </trkpt>
      <trkpt lat="47.20559" lon="-1.57316">
        <ele>-12.2</ele>
        <time>2016-11-27T12:58:42Z</time>
      </trkpt>
      <trkpt lat="47.20575" lon="-1.57303">
        <ele>-3.33</ele>
        <time>2016-11-27T12:59:53Z</time>
      </trkpt>
      <trkpt lat="47.2059" lon="-1.57286">
        <ele>-0.15</ele>
        <time>2016-11-27T13:00:15Z</time>
      </trkpt>
      <trkpt lat="47.20608" lon="-1.5728">
        <ele>0.91</ele>
        <time>2016-11-27T13:01:16Z</time>
      </trkpt>
      <trkpt lat="47.20613" lon="-1.57306">
        <ele>3.46</ele>
        <time>2016-11-27T13:04:17Z</time>
      </trkpt>
      <trkpt lat="47.20594" lon="-1.57312">
        <ele>3.56</ele>
        <time>2016-11-27T13:04:24Z</time>
      </trkpt>
      <trkpt lat="47.20579" lon="-1.57328">
        <ele>3.64</ele>
        <time>2016-11-27T13:04:30Z</time>
      </trkpt>
      <trkpt lat="47.20563" lon="-1.57341">
        <ele>3.76</ele>
        <time>2016-11-27T13:04:37Z</time>
      </trkpt>
      <trkpt lat="47.20548" lon="-1.5736">
        <ele>3.99</ele>
        <time>2016-11-27T13:04:47Z</time>
      </trkpt>
      <trkpt lat="47.20531" lon="-1.57372">
        <ele>4.26</ele>
        <time>2016-11-27T13:04:55Z</time>
      </trkpt>
      <trkpt lat="47.20518" lon="-1.5739">
        <ele>4.58</ele>
        <time>2016-11-27T13:05:03Z</time>
      </trkpt>
      <trkpt lat="47.205" lon="-1.57401">
        <ele>4.78</ele>
        <time>2016-11-27T13:05:10Z</time>
      </trkpt>
      <trkpt lat="47.20483" lon="-1.57411">
        <ele>4.88</ele>
        <time>2016-11-27T13:05:15Z</time>
      </trkpt>
      <trkpt lat="47.20465" lon="-1.57421">
        <ele>5.06</ele>
        <time>2016-11-27T13:05:23Z</time>
      </trkpt>
      <trkpt lat="47.20445" lon="-1.57433">
        <ele>5.21</ele>
        <time>2016-11-27T13:05:30Z</time>
      </trkpt>
      <trkpt lat="47.20426" lon="-1.5744">
        <ele>5.3</ele>
        <time>2016-11-27T13:05:36Z</time>
      </trkpt>
      <trkpt lat="47.20418" lon="-1.57463">
        <ele>5.54</ele>
        <time>2016-11-27T13:05:54Z</time>
      </trkpt>
      <trkpt lat="47.2041" lon="-1.57488">
        <ele>5.57</ele>
        <time>2016-11-27T13:06:08Z</time>
      </trkpt>
      <trkpt lat="47.20394" lon="-1.57499">
        <ele>5.55</ele>
        <time>2016-11-27T13:06:17Z</time>
      </trkpt>
      <trkpt lat="47.20376" lon="-1.57509">
        <ele>5.54</ele>
        <time>2016-11-27T13:06:25Z</time>
      </trkpt>
      <trkpt lat="47.20359" lon="-1.5752">
        <ele>5.52</ele>
        <time>2016-11-27T13:06:31Z</time>
      </trkpt>
      <trkpt lat="47.20341" lon="-1.57532">
        <ele>5.49</ele>
        <time>2016-11-27T13:06:38Z</time>
      </trkpt>
      <trkpt lat="47.20324" lon="-1.57544">
        <ele>5.44</ele>
        <time>2016-11-27T13:06:46Z</time>
      </trkpt>
      <trkpt lat="47.20306" lon="-1.5756">
        <ele>5.46</ele>
        <time>2016-11-27T13:06:54Z</time>
      </trkpt>
      <trkpt lat="47.20286" lon="-1.57569">
        <ele>5.5</ele>
        <time>2016-11-27T13:07:00Z</time>
      </trkpt>
      <trkpt lat="47.20269" lon="-1.57578">
        <ele>5.56</ele>
        <time>2016-11-27T13:07:06Z</time>
      </trkpt>
      <trkpt lat="47.20251" lon="-1.57591">
        <ele>5.67</ele>
        <time>2016-11-27T13:07:14Z</time>
      </trkpt>
      <trkpt lat="47.20231" lon="-1.57603">
        <ele>5.72</ele>
        <time>2016-11-27T13:07:20Z</time>
      </trkpt>
      <trkpt lat="47.20214" lon="-1.57617">
        <ele>5.78</ele>
        <time>2016-11-27T13:07:28Z</time>
      </trkpt>
      <trkpt lat="47.20205" lon="-1.57643">
        <ele>3.67</ele>
        <time>2016-11-27T13:08:36Z</time>
      </trkpt>
      <trkpt lat="47.20192" lon="-1.57663">
        <ele>3.53</ele>
        <time>2016-11-27T13:08:43Z</time>
      </trkpt>
      <trkpt lat="47.20179" lon="-1.57682">
        <ele>3.37</ele>
        <time>2016-11-27T13:08:48Z</time>
      </trkpt>
      <trkpt lat="47.20159" lon="-1.57692">
        <ele>2.91</ele>
        <time>2016-11-27T13:08:54Z</time>
      </trkpt>
      <trkpt lat="47.20145" lon="-1.57711">
        <ele>2.74</ele>
        <time>2016-11-27T13:09:00Z</time>
      </trkpt>
      <trkpt lat="47.20133" lon="-1.57731">
        <ele>2.56</ele>
        <time>2016-11-27T13:09:09Z</time>
      </trkpt>
      <trkpt lat="47.2012" lon="-1.57751">
        <ele>2.95</ele>
        <time>2016-11-27T13:09:53Z</time>
      </trkpt>
      <trkpt lat="47.20105" lon="-1.57774">
        <ele>3.05</ele>
        <time>2016-11-27T13:09:59Z</time>
      </trkpt>
      <trkpt lat="47.2009" lon="-1.57796">
        <ele>3.16</ele>
        <time>2016-11-27T13:10:04Z</time>
      </trkpt>
      <trkpt lat="47.20078" lon="-1.57819">
        <ele>3.14</ele>
        <time>2016-11-27T13:10:10Z</time>
      </trkpt>
      <trkpt lat="47.20065" lon="-1.57841">
        <ele>3.09</ele>
        <time>2016-11-27T13:10:15Z</time>
      </trkpt>
      <trkpt lat="47.20052" lon="-1.57862">
        <ele>3.06</ele>
        <time>2016-11-27T13:10:20Z</time>
      </trkpt>
      <trkpt lat="47.20041" lon="-1.57885">
        <ele>3.01</ele>
        <time>2016-11-27T13:10:26Z</time>
      </trkpt>
      <trkpt lat="47.2003" lon="-1.57908">
        <ele>2.82</ele>
        <time>2016-11-27T13:10:31Z</time>
      </trkpt>
      <trkpt lat="47.20018" lon="-1.57931">
        <ele>2.78</ele>
        <time>2016-11-27T13:10:36Z</time>
      </trkpt>
      <trkpt lat="47.20009" lon="-1.57956">
        <ele>2.78</ele>
        <time>2016-11-27T13:10:42Z</time>
      </trkpt>
      <trkpt lat="47.2" lon="-1.57979">
        <ele>2.78</ele>
        <time>2016-11-27T13:10:47Z</time>
      </trkpt>
      <trkpt lat="47.1999" lon="-1.58005">
        <ele>2.85</ele>
        <time>2016-11-27T13:10:52Z</time>
      </trkpt>
      <trkpt lat="47.19982" lon="-1.58031">
        <ele>3.29</ele>
        <time>2016-11-27T13:10:57Z</time>
      </trkpt>
      <trkpt lat="47.19974" lon="-1.58055">
        <ele>3.6</ele>
        <time>2016-11-27T13:11:02Z</time>
      </trkpt>
      <trkpt lat="47.19968" lon="-1.58083">
        <ele>4.39</ele>
        <time>2016-11-27T13:11:07Z</time>
      </trkpt>
      <trkpt lat="47.19962" lon="-1.58114">
        <ele>5.11</ele>
        <time>2016-11-27T13:11:12Z</time>
      </trkpt>
      <trkpt lat="47.19954" lon="-1.58145">
        <ele>5.36</ele>
        <time>2016-11-27T13:11:17Z</time>
      </trkpt>
      <trkpt lat="47.19949" lon="-1.58176">
        <ele>5.33</ele>
        <time>2016-11-27T13:11:22Z</time>
      </trkpt>
      <trkpt lat="47.19943" lon="-1.58207">
        <ele>5.28</ele>
        <time>2016-11-27T13:11:27Z</time>
      </trkpt>
      <trkpt lat="47.19937" lon="-1.58237">
        <ele>5.23</ele>
        <time>2016-11-27T13:11:32Z</time>
      </trkpt>
      <trkpt lat="47.19931" lon="-1.58268">
        <ele>5.15</ele>
        <time>2016-11-27T13:11:37Z</time>
      </trkpt>
      <trkpt lat="47.19924" lon="-1.58294">
        <ele>5.12</ele>
        <time>2016-11-27T13:11:41Z</time>
      </trkpt>
      <trkpt lat="47.19915" lon="-1.58321">
        <ele>5.13</ele>
        <time>2016-11-27T13:11:45Z</time>
      </trkpt>
      <trkpt lat="47.19908" lon="-1.5835">
        <ele>4.93</ele>
        <time>2016-11-27T13:11:49Z</time>
      </trkpt>
      <trkpt lat="47.19901" lon="-1.58376">
        <ele>4.94</ele>
        <time>2016-11-27T13:11:56Z</time>
      </trkpt>
      <trkpt lat="47.19895" lon="-1.584">
        <ele>4.98</ele>
        <time>2016-11-27T13:12:01Z</time>
      </trkpt>
      <trkpt lat="47.19888" lon="-1.58427">
        <ele>5.04</ele>
        <time>2016-11-27T13:12:07Z</time>
      </trkpt>
      <trkpt lat="47.19886" lon="-1.58457">
        <ele>5.17</ele>
        <time>2016-11-27T13:12:16Z</time>
      </trkpt>
      <trkpt lat="47.19888" lon="-1.58488">
        <ele>5.21</ele>
        <time>2016-11-27T13:12:22Z</time>
      </trkpt>
      <trkpt lat="47.19887" lon="-1.58518">
        <ele>5.23</ele>
        <time>2016-11-27T13:12:26Z</time>
      </trkpt>
      <trkpt lat="47.19883" lon="-1.58554">
        <ele>5.46</ele>
        <time>2016-11-27T13:12:31Z</time>
      </trkpt>
      <trkpt lat="47.19884" lon="-1.58581">
        <ele>5.54</ele>
        <time>2016-11-27T13:12:35Z</time>
      </trkpt>
      <trkpt lat="47.19874" lon="-1.58603">
        <ele>5.6</ele>
        <time>2016-11-27T13:12:39Z</time>
      </trkpt>
      <trkpt lat="47.19866" lon="-1.58629">
        <ele>5.66</ele>
        <time>2016-11-27T13:12:43Z</time>
      </trkpt>
      <trkpt lat="47.19867" lon="-1.58658">
        <ele>5.75</ele>
        <time>2016-11-27T13:12:48Z</time>
      </trkpt>
      <trkpt lat="47.19869" lon="-1.5869">
        <ele>5.94</ele>
        <time>2016-11-27T13:12:53Z</time>
      </trkpt>
      <trkpt lat="47.19864" lon="-1.58716">
        <ele>6.19</ele>
        <time>2016-11-27T13:12:58Z</time>
      </trkpt>
      <trkpt lat="47.19857" lon="-1.58741">
        <ele>6.64</ele>
        <time>2016-11-27T13:13:05Z</time>
      </trkpt>
      <trkpt lat="47.19851" lon="-1.58772">
        <ele>7.11</ele>
        <time>2016-11-27T13:13:13Z</time>
      </trkpt>
      <trkpt lat="47.1985" lon="-1.58803">
        <ele>7.29</ele>
        <time>2016-11-27T13:13:18Z</time>
      </trkpt>
      <trkpt lat="47.1985" lon="-1.58835">
        <ele>7.45</ele>
        <time>2016-11-27T13:13:23Z</time>
      </trkpt>
      <trkpt lat="47.1985" lon="-1.58863">
        <ele>7.58</ele>
        <time>2016-11-27T13:13:27Z</time>
      </trkpt>
      <trkpt lat="47.19833" lon="-1.58874">
        <ele>7.64</ele>
        <time>2016-11-27T13:13:30Z</time>
      </trkpt>
      <trkpt lat="47.19814" lon="-1.58875">
        <ele>7.77</ele>
        <time>2016-11-27T13:13:35Z</time>
      </trkpt>
      <trkpt lat="47.19808" lon="-1.58901">
        <ele>8.02</ele>
        <time>2016-11-27T13:13:42Z</time>
      </trkpt>
      <trkpt lat="47.19804" lon="-1.5893">
        <ele>8.02</ele>
        <time>2016-11-27T13:13:49Z</time>
      </trkpt>
      <trkpt lat="47.19798" lon="-1.58958">
        <ele>8.04</ele>
        <time>2016-11-27T13:13:57Z</time>
      </trkpt>
      <trkpt lat="47.19783" lon="-1.59009">
        <ele>7.83</ele>
        <time>2016-11-27T13:14:10Z</time>
      </trkpt>
      <trkpt lat="47.19778" lon="-1.59038">
        <ele>7.72</ele>
        <time>2016-11-27T13:14:16Z</time>
      </trkpt>
      <trkpt lat="47.19773" lon="-1.59069">
        <ele>7.62</ele>
        <time>2016-11-27T13:14:22Z</time>
      </trkpt>
      <trkpt lat="47.19765" lon="-1.59094">
        <ele>7.61</ele>
        <time>2016-11-27T13:14:27Z</time>
      </trkpt>
      <trkpt lat="47.19761" lon="-1.5912">
        <ele>7.66</ele>
        <time>2016-11-27T13:14:32Z</time>
      </trkpt>
      <trkpt lat="47.19757" lon="-1.59151">
        <ele>7.76</ele>
        <time>2016-11-27T13:14:38Z</time>
      </trkpt>
      <trkpt lat="47.19754" lon="-1.5918">
        <ele>7.82</ele>
        <time>2016-11-27T13:14:43Z</time>
      </trkpt>
      <trkpt lat="47.19748" lon="-1.59208">
        <ele>7.93</ele>
        <time>2016-11-27T13:14:48Z</time>
      </trkpt>
      <trkpt lat="47.19744" lon="-1.59235">
        <ele>7.94</ele>
        <time>2016-11-27T13:14:53Z</time>
      </trkpt>
      <trkpt lat="47.19737" lon="-1.59265">
        <ele>7.39</ele>
        <time>2016-11-27T13:14:58Z</time>
      </trkpt>
      <trkpt lat="47.19729" lon="-1.59294">
        <ele>6.24</ele>
        <time>2016-11-27T13:15:02Z</time>
      </trkpt>
      <trkpt lat="47.19722" lon="-1.59321">
        <ele>5.46</ele>
        <time>2016-11-27T13:15:06Z</time>
      </trkpt>
      <trkpt lat="47.19714" lon="-1.59346">
        <ele>5.08</ele>
        <time>2016-11-27T13:15:10Z</time>
      </trkpt>
      <trkpt lat="47.19706" lon="-1.59372">
        <ele>4.86</ele>
        <time>2016-11-27T13:15:14Z</time>
      </trkpt>
      <trkpt lat="47.197" lon="-1.59397">
        <ele>4.64</ele>
        <time>2016-11-27T13:15:18Z</time>
      </trkpt>
      <trkpt lat="47.19692" lon="-1.59421">
        <ele>4.4</ele>
        <time>2016-11-27T13:15:22Z</time>
      </trkpt>
      <trkpt lat="47.19685" lon="-1.59451">
        <ele>3.97</ele>
        <time>2016-11-27T13:15:27Z</time>
      </trkpt>
      <trkpt lat="47.1968" lon="-1.59477">
        <ele>3.57</ele>
        <time>2016-11-27T13:15:31Z</time>
      </trkpt>
      <trkpt lat="47.19677" lon="-1.59504">
        <ele>3.09</ele>
        <time>2016-11-27T13:15:35Z</time>
      </trkpt>
      <trkpt lat="47.19672" lon="-1.59532">
        <ele>2.6</ele>
        <time>2016-11-27T13:15:39Z</time>
      </trkpt>
      <trkpt lat="47.19668" lon="-1.59558">
        <ele>2.14</ele>
        <time>2016-11-27T13:15:43Z</time>
      </trkpt>
      <trkpt lat="47.19663" lon="-1.59585">
        <ele>1.84</ele>
        <time>2016-11-27T13:15:47Z</time>
      </trkpt>
      <trkpt lat="47.19658" lon="-1.59612">
        <ele>1.78</ele>
        <time>2016-11-27T13:15:51Z</time>
      </trkpt>
      <trkpt lat="47.19651" lon="-1.59641">
        <ele>1.62</ele>
        <time>2016-11-27T13:15:55Z</time>
      </trkpt>
      <trkpt lat="47.19642" lon="-1.59669">
        <ele>1.25</ele>
        <time>2016-11-27T13:15:59Z</time>
      </trkpt>
      <trkpt lat="47.19633" lon="-1.59692">
        <ele>1.05</ele>
        <time>2016-11-27T13:16:03Z</time>
      </trkpt>
      <trkpt lat="47.19624" lon="-1.59717">
        <ele>0.98</ele>
        <time>2016-11-27T13:16:07Z</time>
      </trkpt>
      <trkpt lat="47.19614" lon="-1.5974">
        <ele>0.84</ele>
        <time>2016-11-27T13:16:11Z</time>
      </trkpt>
      <trkpt lat="47.19606" lon="-1.59765">
        <ele>0.84</ele>
        <time>2016-11-27T13:16:15Z</time>
      </trkpt>
      <trkpt lat="47.19598" lon="-1.59792">
        <ele>0.89</ele>
        <time>2016-11-27T13:16:19Z</time>
      </trkpt>
      <trkpt lat="47.1959" lon="-1.59818">
        <ele>0.87</ele>
        <time>2016-11-27T13:16:23Z</time>
      </trkpt>
      <trkpt lat="47.19582" lon="-1.59844">
        <ele>0.93</ele>
        <time>2016-11-27T13:16:27Z</time>
      </trkpt>
      <trkpt lat="47.19574" lon="-1.59868">
        <ele>1.04</ele>
        <time>2016-11-27T13:16:31Z</time>
      </trkpt>
      <trkpt lat="47.19566" lon="-1.59893">
        <ele>1.09</ele>
        <time>2016-11-27T13:16:35Z</time>
      </trkpt>
      <trkpt lat="47.1956" lon="-1.59919">
        <ele>1.15</ele>
        <time>2016-11-27T13:16:39Z</time>
      </trkpt>
      <trkpt lat="47.19555" lon="-1.59946">
        <ele>1.24</ele>
        <time>2016-11-27T13:16:43Z</time>
      </trkpt>
      <trkpt lat="47.19552" lon="-1.59978">
        <ele>1.42</ele>
        <time>2016-11-27T13:16:48Z</time>
      </trkpt>
      <trkpt lat="47.19551" lon="-1.60007">
        <ele>1.69</ele>
        <time>2016-11-27T13:16:52Z</time>
      </trkpt>
      <trkpt lat="47.19549" lon="-1.60036">
        <ele>1.81</ele>
        <time>2016-11-27T13:16:56Z</time>
      </trkpt>
      <trkpt lat="47.19548" lon="-1.60069">
        <ele>1.9</ele>
        <time>2016-11-27T13:17:01Z</time>
      </trkpt>
      <trkpt lat="47.19548" lon="-1.601">
        <ele>1.76</ele>
        <time>2016-11-27T13:17:05Z</time>
      </trkpt>
      <trkpt lat="47.19547" lon="-1.6013">
        <ele>1.49</ele>
        <time>2016-11-27T13:17:09Z</time>
      </trkpt>
      <trkpt lat="47.19544" lon="-1.60158">
        <ele>1.24</ele>
        <time>2016-11-27T13:17:13Z</time>
      </trkpt>
      <trkpt lat="47.19541" lon="-1.60187">
        <ele>0.92</ele>
        <time>2016-11-27T13:17:17Z</time>
      </trkpt>
      <trkpt lat="47.19539" lon="-1.60218">
        <ele>0.76</ele>
        <time>2016-11-27T13:17:21Z</time>
      </trkpt>
      <trkpt lat="47.19536" lon="-1.60251">
        <ele>0.67</ele>
        <time>2016-11-27T13:17:25Z</time>
      </trkpt>
      <trkpt lat="47.19533" lon="-1.6028">
        <ele>0.57</ele>
        <time>2016-11-27T13:17:29Z</time>
      </trkpt>
      <trkpt lat="47.1953" lon="-1.6031">
        <ele>0.42</ele>
        <time>2016-11-27T13:17:33Z</time>
      </trkpt>
      <trkpt lat="47.19528" lon="-1.60337">
        <ele>0.23</ele>
        <time>2016-11-27T13:17:37Z</time>
      </trkpt>
      <trkpt lat="47.19527" lon="-1.60369">
        <ele>-0.01</ele>
        <time>2016-11-27T13:17:42Z</time>
      </trkpt>
      <trkpt lat="47.19525" lon="-1.60396">
        <ele>-0.13</ele>
        <time>2016-11-27T13:17:46Z</time>
      </trkpt>
      <trkpt lat="47.19524" lon="-1.60428">
        <ele>-0.29</ele>
        <time>2016-11-27T13:17:51Z</time>
      </trkpt>
      <trkpt lat="47.19522" lon="-1.60456">
        <ele>-0.58</ele>
        <time>2016-11-27T13:17:55Z</time>
      </trkpt>
      <trkpt lat="47.1952" lon="-1.60485">
        <ele>-0.7</ele>
        <time>2016-11-27T13:17:59Z</time>
      </trkpt>
      <trkpt lat="47.19518" lon="-1.60513">
        <ele>-0.72</ele>
        <time>2016-11-27T13:18:03Z</time>
      </trkpt>
      <trkpt lat="47.19516" lon="-1.60543">
        <ele>-0.89</ele>
        <time>2016-11-27T13:18:07Z</time>
      </trkpt>
      <trkpt lat="47.19514" lon="-1.6057">
        <ele>-1.18</ele>
        <time>2016-11-27T13:18:11Z</time>
      </trkpt>
      <trkpt lat="47.1951" lon="-1.60603">
        <ele>-1.36</ele>
        <time>2016-11-27T13:18:16Z</time>
      </trkpt>
      <trkpt lat="47.19507" lon="-1.6063">
        <ele>-1.55</ele>
        <time>2016-11-27T13:18:20Z</time>
      </trkpt>
      <trkpt lat="47.19504" lon="-1.60658">
        <ele>-1.66</ele>
        <time>2016-11-27T13:18:24Z</time>
      </trkpt>
      <trkpt lat="47.19502" lon="-1.60685">
        <ele>-1.82</ele>
        <time>2016-11-27T13:18:28Z</time>
      </trkpt>
      <trkpt lat="47.19501" lon="-1.60718">
        <ele>-2.22</ele>
        <time>2016-11-27T13:18:33Z</time>
      </trkpt>
      <trkpt lat="47.19498" lon="-1.60748">
        <ele>-2.58</ele>
        <time>2016-11-27T13:18:38Z</time>
      </trkpt>
      <trkpt lat="47.19494" lon="-1.60775">
        <ele>-2.66</ele>
        <time>2016-11-27T13:18:42Z</time>
      </trkpt>
      <trkpt lat="47.1949" lon="-1.60802">
        <ele>-2.66</ele>
        <time>2016-11-27T13:18:46Z</time>
      </trkpt>
      <trkpt lat="47.19489" lon="-1.60829">
        <ele>-2.26</ele>
        <time>2016-11-27T13:18:50Z</time>
      </trkpt>
      <trkpt lat="47.19485" lon="-1.60859">
        <ele>-1.41</ele>
        <time>2016-11-27T13:18:55Z</time>
      </trkpt>
      <trkpt lat="47.19482" lon="-1.60888">
        <ele>-0.89</ele>
        <time>2016-11-27T13:19:00Z</time>
      </trkpt>
      <trkpt lat="47.1948" lon="-1.60919">
        <ele>-0.36</ele>
        <time>2016-11-27T13:19:05Z</time>
      </trkpt>
      <trkpt lat="47.19478" lon="-1.6095">
        <ele>-0.05</ele>
        <time>2016-11-27T13:19:10Z</time>
      </trkpt>
      <trkpt lat="47.19476" lon="-1.60976">
        <ele>-0.18</ele>
        <time>2016-11-27T13:19:14Z</time>
      </trkpt>
      <trkpt lat="47.19474" lon="-1.61006">
        <ele>-0.17</ele>
        <time>2016-11-27T13:19:20Z</time>
      </trkpt>
      <trkpt lat="47.19474" lon="-1.61038">
        <ele>-0.05</ele>
        <time>2016-11-27T13:19:26Z</time>
      </trkpt>
      <trkpt lat="47.19475" lon="-1.61068">
        <ele>0.73</ele>
        <time>2016-11-27T13:19:31Z</time>
      </trkpt>
      <trkpt lat="47.19476" lon="-1.61102">
        <ele>0.83</ele>
        <time>2016-11-27T13:19:36Z</time>
      </trkpt>
      <trkpt lat="47.19479" lon="-1.61134">
        <ele>0.62</ele>
        <time>2016-11-27T13:19:41Z</time>
      </trkpt>
      <trkpt lat="47.1948" lon="-1.61162">
        <ele>0.26</ele>
        <time>2016-11-27T13:19:45Z</time>
      </trkpt>
      <trkpt lat="47.19481" lon="-1.6119">
        <ele>-0.23</ele>
        <time>2016-11-27T13:19:49Z</time>
      </trkpt>
      <trkpt lat="47.19482" lon="-1.61217">
        <ele>-0.55</ele>
        <time>2016-11-27T13:19:53Z</time>
      </trkpt>
      <trkpt lat="47.19483" lon="-1.61246">
        <ele>-0.78</ele>
        <time>2016-11-27T13:19:57Z</time>
      </trkpt>
      <trkpt lat="47.19485" lon="-1.61274">
        <ele>-0.91</ele>
        <time>2016-11-27T13:20:01Z</time>
      </trkpt>
      <trkpt lat="47.19487" lon="-1.61302">
        <ele>-0.98</ele>
        <time>2016-11-27T13:20:05Z</time>
      </trkpt>
      <trkpt lat="47.19488" lon="-1.61334">
        <ele>-0.78</ele>
        <time>2016-11-27T13:20:10Z</time>
      </trkpt>
      <trkpt lat="47.19491" lon="-1.61365">
        <ele>-0.35</ele>
        <time>2016-11-27T13:20:15Z</time>
      </trkpt>
      <trkpt lat="47.19493" lon="-1.61396">
        <ele>-0.13</ele>
        <time>2016-11-27T13:20:20Z</time>
      </trkpt>
      <trkpt lat="47.19494" lon="-1.61424">
        <ele>-0.1</ele>
        <time>2016-11-27T13:20:25Z</time>
      </trkpt>
      <trkpt lat="47.19495" lon="-1.61451">
        <ele>-0.01</ele>
        <time>2016-11-27T13:20:31Z</time>
      </trkpt>
      <trkpt lat="47.195" lon="-1.61482">
        <ele>0.11</ele>
        <time>2016-11-27T13:20:37Z</time>
      </trkpt>
      <trkpt lat="47.19493" lon="-1.61509">
        <ele>0.25</ele>
        <time>2016-11-27T13:20:41Z</time>
      </trkpt>
      <trkpt lat="47.19483" lon="-1.61539">
        <ele>0.17</ele>
        <time>2016-11-27T13:20:45Z</time>
      </trkpt>
      <trkpt lat="47.19474" lon="-1.61566">
        <ele>0.03</ele>
        <time>2016-11-27T13:20:49Z</time>
      </trkpt>
      <trkpt lat="47.19468" lon="-1.61597">
        <ele>0.08</ele>
        <time>2016-11-27T13:20:54Z</time>
      </trkpt>
      <trkpt lat="47.19467" lon="-1.61626">
        <ele>0.23</ele>
        <time>2016-11-27T13:20:58Z</time>
      </trkpt>
      <trkpt lat="47.19464" lon="-1.61659">
        <ele>0.56</ele>
        <time>2016-11-27T13:21:03Z</time>
      </trkpt>
      <trkpt lat="47.19465" lon="-1.61687">
        <ele>0.57</ele>
        <time>2016-11-27T13:21:08Z</time>
      </trkpt>
      <trkpt lat="47.19468" lon="-1.61714">
        <ele>0.45</ele>
        <time>2016-11-27T13:21:17Z</time>
      </trkpt>
      <trkpt lat="47.19465" lon="-1.6174">
        <ele>-0.4</ele>
        <time>2016-11-27T13:22:05Z</time>
      </trkpt>
      <trkpt lat="47.1946" lon="-1.61769">
        <ele>-0.79</ele>
        <time>2016-11-27T13:22:12Z</time>
      </trkpt>
      <trkpt lat="47.19453" lon="-1.61794">
        <ele>-1</ele>
        <time>2016-11-27T13:22:18Z</time>
      </trkpt>
      <trkpt lat="47.1945" lon="-1.61824">
        <ele>-1.16</ele>
        <time>2016-11-27T13:22:24Z</time>
      </trkpt>
      <trkpt lat="47.19452" lon="-1.6185">
        <ele>-1.32</ele>
        <time>2016-11-27T13:22:30Z</time>
      </trkpt>
      <trkpt lat="47.19455" lon="-1.61877">
        <ele>-1.47</ele>
        <time>2016-11-27T13:22:36Z</time>
      </trkpt>
      <trkpt lat="47.19464" lon="-1.61902">
        <ele>-1.59</ele>
        <time>2016-11-27T13:22:44Z</time>
      </trkpt>
      <trkpt lat="47.19483" lon="-1.61909">
        <ele>-1.62</ele>
        <time>2016-11-27T13:22:50Z</time>
      </trkpt>
      <trkpt lat="47.19493" lon="-1.61935">
        <ele>-1.58</ele>
        <time>2016-11-27T13:22:56Z</time>
      </trkpt>
      <trkpt lat="47.19488" lon="-1.61962">
        <ele>-1.5</ele>
        <time>2016-11-27T13:23:05Z</time>
      </trkpt>
      <trkpt lat="47.19473" lon="-1.61984">
        <ele>-1.12</ele>
        <time>2016-11-27T13:23:12Z</time>
      </trkpt>
      <trkpt lat="47.19469" lon="-1.62014">
        <ele>-0.2</ele>
        <time>2016-11-27T13:23:17Z</time>
      </trkpt>
      <trkpt lat="47.19469" lon="-1.62046">
        <ele>1.04</ele>
        <time>2016-11-27T13:23:22Z</time>
      </trkpt>
      <trkpt lat="47.19471" lon="-1.62073">
        <ele>2.06</ele>
        <time>2016-11-27T13:23:27Z</time>
      </trkpt>
      <trkpt lat="47.19473" lon="-1.62104">
        <ele>2.73</ele>
        <time>2016-11-27T13:23:33Z</time>
      </trkpt>
      <trkpt lat="47.19474" lon="-1.62136">
        <ele>2.99</ele>
        <time>2016-11-27T13:23:38Z</time>
      </trkpt>
      <trkpt lat="47.19476" lon="-1.62167">
        <ele>3.36</ele>
        <time>2016-11-27T13:23:43Z</time>
      </trkpt>
      <trkpt lat="47.19476" lon="-1.62197">
        <ele>3.38</ele>
        <time>2016-11-27T13:23:48Z</time>
      </trkpt>
      <trkpt lat="47.19476" lon="-1.62225">
        <ele>3.3</ele>
        <time>2016-11-27T13:23:54Z</time>
      </trkpt>
      <trkpt lat="47.19476" lon="-1.62252">
        <ele>3.18</ele>
        <time>2016-11-27T13:23:59Z</time>
      </trkpt>
      <trkpt lat="47.19474" lon="-1.62279">
        <ele>2.89</ele>
        <time>2016-11-27T13:24:04Z</time>
      </trkpt>
      <trkpt lat="47.19476" lon="-1.62306">
        <ele>2.77</ele>
        <time>2016-11-27T13:24:09Z</time>
      </trkpt>
      <trkpt lat="47.19477" lon="-1.62334">
        <ele>2.71</ele>
        <time>2016-11-27T13:24:14Z</time>
      </trkpt>
      <trkpt lat="47.19477" lon="-1.62362">
        <ele>2.63</ele>
        <time>2016-11-27T13:24:19Z</time>
      </trkpt>
      <trkpt lat="47.19477" lon="-1.62389">
        <ele>2.54</ele>
        <time>2016-11-27T13:24:24Z</time>
      </trkpt>
      <trkpt lat="47.19476" lon="-1.62419">
        <ele>2.39</ele>
        <time>2016-11-27T13:24:31Z</time>
      </trkpt>
      <trkpt lat="47.19479" lon="-1.62448">
        <ele>2.24</ele>
        <time>2016-11-27T13:24:37Z</time>
      </trkpt>
      <trkpt lat="47.1948" lon="-1.62475">
        <ele>2.13</ele>
        <time>2016-11-27T13:24:42Z</time>
      </trkpt>
      <trkpt lat="47.19482" lon="-1.62503">
        <ele>1.99</ele>
        <time>2016-11-27T13:24:47Z</time>
      </trkpt>
      <trkpt lat="47.19484" lon="-1.6253">
        <ele>1.84</ele>
        <time>2016-11-27T13:24:52Z</time>
      </trkpt>
      <trkpt lat="47.19486" lon="-1.62559">
        <ele>1.64</ele>
        <time>2016-11-27T13:24:58Z</time>
      </trkpt>
      <trkpt lat="47.19488" lon="-1.62591">
        <ele>1.44</ele>
        <time>2016-11-27T13:25:04Z</time>
      </trkpt>
      <trkpt lat="47.19488" lon="-1.62619">
        <ele>1.3</ele>
        <time>2016-11-27T13:25:09Z</time>
      </trkpt>
      <trkpt lat="47.19486" lon="-1.62648">
        <ele>0.91</ele>
        <time>2016-11-27T13:25:14Z</time>
      </trkpt>
      <trkpt lat="47.19486" lon="-1.62678">
        <ele>0.81</ele>
        <time>2016-11-27T13:25:19Z</time>
      </trkpt>
      <trkpt lat="47.19488" lon="-1.62705">
        <ele>0.77</ele>
        <time>2016-11-27T13:25:24Z</time>
      </trkpt>
      <trkpt lat="47.19492" lon="-1.62732">
        <ele>0.72</ele>
        <time>2016-11-27T13:25:31Z</time>
      </trkpt>
      <trkpt lat="47.19494" lon="-1.6276">
        <ele>0.65</ele>
        <time>2016-11-27T13:25:36Z</time>
      </trkpt>
      <trkpt lat="47.19497" lon="-1.62788">
        <ele>0.6</ele>
        <time>2016-11-27T13:25:42Z</time>
      </trkpt>
      <trkpt lat="47.19499" lon="-1.62819">
        <ele>0.57</ele>
        <time>2016-11-27T13:25:48Z</time>
      </trkpt>
      <trkpt lat="47.19501" lon="-1.62847">
        <ele>0.53</ele>
        <time>2016-11-27T13:25:53Z</time>
      </trkpt>
      <trkpt lat="47.19503" lon="-1.62875">
        <ele>0.39</ele>
        <time>2016-11-27T13:25:58Z</time>
      </trkpt>
      <trkpt lat="47.19507" lon="-1.62904">
        <ele>0.33</ele>
        <time>2016-11-27T13:26:03Z</time>
      </trkpt>
      <trkpt lat="47.19511" lon="-1.62929">
        <ele>0.28</ele>
        <time>2016-11-27T13:26:09Z</time>
      </trkpt>
      <trkpt lat="47.19511" lon="-1.6296">
        <ele>0.29</ele>
        <time>2016-11-27T13:26:14Z</time>
      </trkpt>
      <trkpt lat="47.1951" lon="-1.62988">
        <ele>0.28</ele>
        <time>2016-11-27T13:26:20Z</time>
      </trkpt>
      <trkpt lat="47.1951" lon="-1.63018">
        <ele>0.27</ele>
        <time>2016-11-27T13:26:27Z</time>
      </trkpt>
      <trkpt lat="47.19511" lon="-1.63045">
        <ele>0.22</ele>
        <time>2016-11-27T13:26:32Z</time>
      </trkpt>
      <trkpt lat="47.19511" lon="-1.63073">
        <ele>0.12</ele>
        <time>2016-11-27T13:26:38Z</time>
      </trkpt>
      <trkpt lat="47.19511" lon="-1.63101">
        <ele>0.04</ele>
        <time>2016-11-27T13:26:43Z</time>
      </trkpt>
      <trkpt lat="47.19512" lon="-1.63131">
        <ele>-0.01</ele>
        <time>2016-11-27T13:26:48Z</time>
      </trkpt>
      <trkpt lat="47.19511" lon="-1.6316">
        <ele>-0.07</ele>
        <time>2016-11-27T13:26:53Z</time>
      </trkpt>
      <trkpt lat="47.19508" lon="-1.63187">
        <ele>-0.1</ele>
        <time>2016-11-27T13:26:58Z</time>
      </trkpt>
      <trkpt lat="47.19505" lon="-1.63214">
        <ele>-0.18</ele>
        <time>2016-11-27T13:27:03Z</time>
      </trkpt>
      <trkpt lat="47.19502" lon="-1.63244">
        <ele>-0.33</ele>
        <time>2016-11-27T13:27:08Z</time>
      </trkpt>
      <trkpt lat="47.19498" lon="-1.63272">
        <ele>-0.44</ele>
        <time>2016-11-27T13:27:13Z</time>
      </trkpt>
      <trkpt lat="47.19493" lon="-1.633">
        <ele>-0.51</ele>
        <time>2016-11-27T13:27:18Z</time>
      </trkpt>
      <trkpt lat="47.19487" lon="-1.63327">
        <ele>-0.57</ele>
        <time>2016-11-27T13:27:23Z</time>
      </trkpt>
      <trkpt lat="47.19484" lon="-1.63353">
        <ele>-0.67</ele>
        <time>2016-11-27T13:27:29Z</time>
      </trkpt>
      <trkpt lat="47.19482" lon="-1.63383">
        <ele>-0.69</ele>
        <time>2016-11-27T13:27:36Z</time>
      </trkpt>
      <trkpt lat="47.19478" lon="-1.6341">
        <ele>-0.43</ele>
        <time>2016-11-27T13:27:43Z</time>
      </trkpt>
      <trkpt lat="47.19475" lon="-1.6344">
        <ele>-0.21</ele>
        <time>2016-11-27T13:27:49Z</time>
      </trkpt>
      <trkpt lat="47.19471" lon="-1.63469">
        <ele>-0.06</ele>
        <time>2016-11-27T13:27:55Z</time>
      </trkpt>
      <trkpt lat="47.19466" lon="-1.63498">
        <ele>0.02</ele>
        <time>2016-11-27T13:28:01Z</time>
      </trkpt>
      <trkpt lat="47.19462" lon="-1.63531">
        <ele>-0.03</ele>
        <time>2016-11-27T13:28:06Z</time>
      </trkpt>
      <trkpt lat="47.19458" lon="-1.63559">
        <ele>-0.09</ele>
        <time>2016-11-27T13:28:11Z</time>
      </trkpt>
      <trkpt lat="47.19455" lon="-1.63586">
        <ele>-0.17</ele>
        <time>2016-11-27T13:28:16Z</time>
      </trkpt>
      <trkpt lat="47.19451" lon="-1.63613">
        <ele>-0.24</ele>
        <time>2016-11-27T13:28:21Z</time>
      </trkpt>
      <trkpt lat="47.1945" lon="-1.63644">
        <ele>-0.28</ele>
        <time>2016-11-27T13:28:27Z</time>
      </trkpt>
      <trkpt lat="47.19451" lon="-1.63676">
        <ele>-0.28</ele>
        <time>2016-11-27T13:28:33Z</time>
      </trkpt>
      <trkpt lat="47.1945" lon="-1.63706">
        <ele>-0.26</ele>
        <time>2016-11-27T13:28:39Z</time>
      </trkpt>
      <trkpt lat="47.1945" lon="-1.63736">
        <ele>-0.2</ele>
        <time>2016-11-27T13:28:45Z</time>
      </trkpt>
      <trkpt lat="47.19454" lon="-1.63764">
        <ele>-0.14</ele>
        <time>2016-11-27T13:28:52Z</time>
      </trkpt>
      <trkpt lat="47.19459" lon="-1.6379">
        <ele>0.37</ele>
        <time>2016-11-27T13:29:11Z</time>
      </trkpt>
      <trkpt lat="47.19467" lon="-1.63817">
        <ele>0.87</ele>
        <time>2016-11-27T13:29:19Z</time>
      </trkpt>
      <trkpt lat="47.19463" lon="-1.63846">
        <ele>1.21</ele>
        <time>2016-11-27T13:29:25Z</time>
      </trkpt>
      <trkpt lat="47.19445" lon="-1.63857">
        <ele>1.42</ele>
        <time>2016-11-27T13:29:30Z</time>
      </trkpt>
      <trkpt lat="47.19429" lon="-1.63871">
        <ele>1.67</ele>
        <time>2016-11-27T13:29:36Z</time>
      </trkpt>
      <trkpt lat="47.19425" lon="-1.63898">
        <ele>1.84</ele>
        <time>2016-11-27T13:29:41Z</time>
      </trkpt>
      <trkpt lat="47.19423" lon="-1.63925">
        <ele>2.3</ele>
        <time>2016-11-27T13:29:46Z</time>
      </trkpt>
      <trkpt lat="47.1942" lon="-1.63955">
        <ele>2.73</ele>
        <time>2016-11-27T13:29:51Z</time>
      </trkpt>
      <trkpt lat="47.19417" lon="-1.63985">
        <ele>2.79</ele>
        <time>2016-11-27T13:29:56Z</time>
      </trkpt>
      <trkpt lat="47.19415" lon="-1.64016">
        <ele>2.86</ele>
        <time>2016-11-27T13:30:01Z</time>
      </trkpt>
      <trkpt lat="47.19413" lon="-1.64044">
        <ele>2.96</ele>
        <time>2016-11-27T13:30:06Z</time>
      </trkpt>
      <trkpt lat="47.19411" lon="-1.64075">
        <ele>3.17</ele>
        <time>2016-11-27T13:30:11Z</time>
      </trkpt>
      <trkpt lat="47.19409" lon="-1.64107">
        <ele>3.2</ele>
        <time>2016-11-27T13:30:16Z</time>
      </trkpt>
      <trkpt lat="47.19407" lon="-1.64137">
        <ele>2.95</ele>
        <time>2016-11-27T13:30:21Z</time>
      </trkpt>
      <trkpt lat="47.19406" lon="-1.64164">
        <ele>2.85</ele>
        <time>2016-11-27T13:30:26Z</time>
      </trkpt>
      <trkpt lat="47.19406" lon="-1.64192">
        <ele>2.73</ele>
        <time>2016-11-27T13:30:31Z</time>
      </trkpt>
      <trkpt lat="47.19404" lon="-1.64218">
        <ele>2.64</ele>
        <time>2016-11-27T13:30:37Z</time>
      </trkpt>
      <trkpt lat="47.19404" lon="-1.64245">
        <ele>2.38</ele>
        <time>2016-11-27T13:30:42Z</time>
      </trkpt>
      <trkpt lat="47.19404" lon="-1.64275">
        <ele>2.28</ele>
        <time>2016-11-27T13:30:49Z</time>
      </trkpt>
      <trkpt lat="47.19401" lon="-1.64304">
        <ele>2.16</ele>
        <time>2016-11-27T13:30:58Z</time>
      </trkpt>
      <trkpt lat="47.19405" lon="-1.64331">
        <ele>2.03</ele>
        <time>2016-11-27T13:31:04Z</time>
      </trkpt>
      <trkpt lat="47.19407" lon="-1.64359">
        <ele>1.91</ele>
        <time>2016-11-27T13:31:08Z</time>
      </trkpt>
      <trkpt lat="47.19405" lon="-1.64386">
        <ele>1.74</ele>
        <time>2016-11-27T13:31:14Z</time>
      </trkpt>
      <trkpt lat="47.19406" lon="-1.64413">
        <ele>1.61</ele>
        <time>2016-11-27T13:31:18Z</time>
      </trkpt>
      <trkpt lat="47.19406" lon="-1.6444">
        <ele>1.45</ele>
        <time>2016-11-27T13:31:23Z</time>
      </trkpt>
      <trkpt lat="47.19405" lon="-1.64468">
        <ele>1.3</ele>
        <time>2016-11-27T13:31:28Z</time>
      </trkpt>
      <trkpt lat="47.19402" lon="-1.64498">
        <ele>1.12</ele>
        <time>2016-11-27T13:31:34Z</time>
      </trkpt>
      <trkpt lat="47.19403" lon="-1.64527">
        <ele>0.9</ele>
        <time>2016-11-27T13:31:40Z</time>
      </trkpt>
      <trkpt lat="47.19399" lon="-1.64557">
        <ele>0.64</ele>
        <time>2016-11-27T13:31:46Z</time>
      </trkpt>
      <trkpt lat="47.19388" lon="-1.64581">
        <ele>0.4</ele>
        <time>2016-11-27T13:31:51Z</time>
      </trkpt>
      <trkpt lat="47.19385" lon="-1.64608">
        <ele>0.12</ele>
        <time>2016-11-27T13:31:58Z</time>
      </trkpt>
      <trkpt lat="47.19377" lon="-1.64637">
        <ele>0.01</ele>
        <time>2016-11-27T13:32:04Z</time>
      </trkpt>
      <trkpt lat="47.19364" lon="-1.64658">
        <ele>-0.03</ele>
        <time>2016-11-27T13:32:10Z</time>
      </trkpt>
      <trkpt lat="47.19351" lon="-1.64677">
        <ele>0.06</ele>
        <time>2016-11-27T13:32:17Z</time>
      </trkpt>
      <trkpt lat="47.19334" lon="-1.64694">
        <ele>0.24</ele>
        <time>2016-11-27T13:32:25Z</time>
      </trkpt>
      <trkpt lat="47.19323" lon="-1.64719">
        <ele>0.36</ele>
        <time>2016-11-27T13:32:33Z</time>
      </trkpt>
      <trkpt lat="47.19304" lon="-1.64717">
        <ele>0.61</ele>
        <time>2016-11-27T13:32:44Z</time>
      </trkpt>
      <trkpt lat="47.19287" lon="-1.64709">
        <ele>1.28</ele>
        <time>2016-11-27T13:32:56Z</time>
      </trkpt>
      <trkpt lat="47.19268" lon="-1.64709">
        <ele>1.99</ele>
        <time>2016-11-27T13:33:07Z</time>
      </trkpt>
      <trkpt lat="47.19259" lon="-1.64686">
        <ele>2.24</ele>
        <time>2016-11-27T13:35:10Z</time>
      </trkpt>
      <trkpt lat="47.19241" lon="-1.64692">
        <ele>3.05</ele>
        <time>2016-11-27T13:35:44Z</time>
      </trkpt>
      <trkpt lat="47.19234" lon="-1.64667">
        <ele>3.43</ele>
        <time>2016-11-27T13:36:35Z</time>
      </trkpt>
      <trkpt lat="47.1924" lon="-1.64693">
        <ele>3.27</ele>
        <time>2016-11-27T13:37:21Z</time>
      </trkpt>
      <trkpt lat="47.19258" lon="-1.64684">
        <ele>-2.44</ele>
        <time>2016-11-27T13:43:31Z</time>
      </trkpt>
      <trkpt lat="47.19273" lon="-1.64699">
        <ele>-1.65</ele>
        <time>2016-11-27T13:47:50Z</time>
      </trkpt>
      <trkpt lat="47.19291" lon="-1.64706">
        <ele>-1.26</ele>
        <time>2016-11-27T13:48:04Z</time>
      </trkpt>
      <trkpt lat="47.19306" lon="-1.64724">
        <ele>-0.97</ele>
        <time>2016-11-27T13:48:18Z</time>
      </trkpt>
      <trkpt lat="47.1932" lon="-1.64742">
        <ele>-0.84</ele>
        <time>2016-11-27T13:48:27Z</time>
      </trkpt>
      <trkpt lat="47.19328" lon="-1.64766">
        <ele>-0.74</ele>
        <time>2016-11-27T13:48:35Z</time>
      </trkpt>
      <trkpt lat="47.19338" lon="-1.64791">
        <ele>-0.66</ele>
        <time>2016-11-27T13:48:43Z</time>
      </trkpt>
      <trkpt lat="47.19344" lon="-1.64816">
        <ele>-0.49</ele>
        <time>2016-11-27T13:48:53Z</time>
      </trkpt>
      <trkpt lat="47.19355" lon="-1.64841">
        <ele>-0.3</ele>
        <time>2016-11-27T13:49:01Z</time>
      </trkpt>
      <trkpt lat="47.19363" lon="-1.64869">
        <ele>-0.16</ele>
        <time>2016-11-27T13:49:07Z</time>
      </trkpt>
      <trkpt lat="47.19365" lon="-1.64897">
        <ele>0.02</ele>
        <time>2016-11-27T13:49:14Z</time>
      </trkpt>
      <trkpt lat="47.19368" lon="-1.64924">
        <ele>0.22</ele>
        <time>2016-11-27T13:49:21Z</time>
      </trkpt>
      <trkpt lat="47.19375" lon="-1.64951">
        <ele>0.4</ele>
        <time>2016-11-27T13:49:28Z</time>
      </trkpt>
      <trkpt lat="47.19382" lon="-1.64976">
        <ele>0.52</ele>
        <time>2016-11-27T13:49:34Z</time>
      </trkpt>
      <trkpt lat="47.19391" lon="-1.65">
        <ele>0.7</ele>
        <time>2016-11-27T13:49:40Z</time>
      </trkpt>
      <trkpt lat="47.19395" lon="-1.6503">
        <ele>0.76</ele>
        <time>2016-11-27T13:49:48Z</time>
      </trkpt>
      <trkpt lat="47.19397" lon="-1.65057">
        <ele>0.76</ele>
        <time>2016-11-27T13:49:57Z</time>
      </trkpt>
      <trkpt lat="47.19409" lon="-1.6508">
        <ele>0.7</ele>
        <time>2016-11-27T13:50:03Z</time>
      </trkpt>
      <trkpt lat="47.19423" lon="-1.651">
        <ele>0.57</ele>
        <time>2016-11-27T13:50:10Z</time>
      </trkpt>
      <trkpt lat="47.19436" lon="-1.65121">
        <ele>0.45</ele>
        <time>2016-11-27T13:50:18Z</time>
      </trkpt>
      <trkpt lat="47.19452" lon="-1.65141">
        <ele>0.32</ele>
        <time>2016-11-27T13:50:27Z</time>
      </trkpt>
      <trkpt lat="47.19463" lon="-1.65164">
        <ele>0.21</ele>
        <time>2016-11-27T13:50:32Z</time>
      </trkpt>
      <trkpt lat="47.1947" lon="-1.6519">
        <ele>0.05</ele>
        <time>2016-11-27T13:50:39Z</time>
      </trkpt>
      <trkpt lat="47.19472" lon="-1.65219">
        <ele>-0.12</ele>
        <time>2016-11-27T13:50:46Z</time>
      </trkpt>
      <trkpt lat="47.19472" lon="-1.65248">
        <ele>-0.29</ele>
        <time>2016-11-27T13:50:54Z</time>
      </trkpt>
      <trkpt lat="47.19479" lon="-1.65275">
        <ele>-0.45</ele>
        <time>2016-11-27T13:51:01Z</time>
      </trkpt>
      <trkpt lat="47.19488" lon="-1.65302">
        <ele>-0.54</ele>
        <time>2016-11-27T13:51:08Z</time>
      </trkpt>
      <trkpt lat="47.19496" lon="-1.65327">
        <ele>-0.74</ele>
        <time>2016-11-27T13:51:15Z</time>
      </trkpt>
      <trkpt lat="47.19506" lon="-1.65352">
        <ele>-0.94</ele>
        <time>2016-11-27T13:51:25Z</time>
      </trkpt>
      <trkpt lat="47.19518" lon="-1.65372">
        <ele>-1.03</ele>
        <time>2016-11-27T13:51:34Z</time>
      </trkpt>
      <trkpt lat="47.19535" lon="-1.65379">
        <ele>-1.07</ele>
        <time>2016-11-27T13:51:44Z</time>
      </trkpt>
      <trkpt lat="47.19552" lon="-1.65369">
        <ele>-1.19</ele>
        <time>2016-11-27T13:51:59Z</time>
      </trkpt>
      <trkpt lat="47.1957" lon="-1.65379">
        <ele>-0.84</ele>
        <time>2016-11-27T13:52:25Z</time>
      </trkpt>
      <trkpt lat="47.19579" lon="-1.65402">
        <ele>-0.5</ele>
        <time>2016-11-27T13:52:37Z</time>
      </trkpt>
      <trkpt lat="47.19586" lon="-1.65427">
        <ele>-0.25</ele>
        <time>2016-11-27T13:52:47Z</time>
      </trkpt>
      <trkpt lat="47.19594" lon="-1.65454">
        <ele>-0.14</ele>
        <time>2016-11-27T13:52:53Z</time>
      </trkpt>
      <trkpt lat="47.19599" lon="-1.65481">
        <ele>4.6</ele>
        <time>2016-11-27T13:53:00Z</time>
      </trkpt>
      <trkpt lat="47.19605" lon="-1.65506">
        <ele>0.12</ele>
        <time>2016-11-27T13:53:05Z</time>
      </trkpt>
      <trkpt lat="47.19611" lon="-1.65532">
        <ele>0.26</ele>
        <time>2016-11-27T13:53:11Z</time>
      </trkpt>
      <trkpt lat="47.19617" lon="-1.65559">
        <ele>0.39</ele>
        <time>2016-11-27T13:53:17Z</time>
      </trkpt>
      <trkpt lat="47.19624" lon="-1.65585">
        <ele>0.48</ele>
        <time>2016-11-27T13:53:24Z</time>
      </trkpt>
      <trkpt lat="47.1963" lon="-1.65612">
        <ele>0.48</ele>
        <time>2016-11-27T13:53:30Z</time>
      </trkpt>
      <trkpt lat="47.19637" lon="-1.65637">
        <ele>0.46</ele>
        <time>2016-11-27T13:53:35Z</time>
      </trkpt>
      <trkpt lat="47.19644" lon="-1.65667">
        <ele>0.43</ele>
        <time>2016-11-27T13:53:42Z</time>
      </trkpt>
      <trkpt lat="47.1965" lon="-1.65696">
        <ele>0.44</ele>
        <time>2016-11-27T13:53:48Z</time>
      </trkpt>
      <trkpt lat="47.19656" lon="-1.65726">
        <ele>0.42</ele>
        <time>2016-11-27T13:53:54Z</time>
      </trkpt>
      <trkpt lat="47.19661" lon="-1.65752">
        <ele>0.39</ele>
        <time>2016-11-27T13:53:59Z</time>
      </trkpt>
      <trkpt lat="47.19667" lon="-1.6578">
        <ele>0.39</ele>
        <time>2016-11-27T13:54:04Z</time>
      </trkpt>
      <trkpt lat="47.19673" lon="-1.65809">
        <ele>0.36</ele>
        <time>2016-11-27T13:54:09Z</time>
      </trkpt>
      <trkpt lat="47.1968" lon="-1.65837">
        <ele>0.25</ele>
        <time>2016-11-27T13:54:15Z</time>
      </trkpt>
      <trkpt lat="47.19684" lon="-1.65864">
        <ele>0.06</ele>
        <time>2016-11-27T13:54:22Z</time>
      </trkpt>
      <trkpt lat="47.19689" lon="-1.65894">
        <ele>-0.04</ele>
        <time>2016-11-27T13:54:29Z</time>
      </trkpt>
      <trkpt lat="47.19693" lon="-1.6592">
        <ele>-0.03</ele>
        <time>2016-11-27T13:54:34Z</time>
      </trkpt>
      <trkpt lat="47.19699" lon="-1.65945">
        <ele>5</ele>
        <time>2016-11-27T13:54:39Z</time>
      </trkpt>
      <trkpt lat="47.19707" lon="-1.65971">
        <ele>0.03</ele>
        <time>2016-11-27T13:54:45Z</time>
      </trkpt>
      <trkpt lat="47.19715" lon="-1.65995">
        <ele>0.07</ele>
        <time>2016-11-27T13:54:51Z</time>
      </trkpt>
      <trkpt lat="47.19729" lon="-1.66015">
        <ele>0.12</ele>
        <time>2016-11-27T13:54:58Z</time>
      </trkpt>
      <trkpt lat="47.1975" lon="-1.66015">
        <ele>0.13</ele>
        <time>2016-11-27T13:55:05Z</time>
      </trkpt>
      <trkpt lat="47.19766" lon="-1.66031">
        <ele>0.08</ele>
        <time>2016-11-27T13:55:11Z</time>
      </trkpt>
      <trkpt lat="47.19764" lon="-1.6606">
        <ele>0.01</ele>
        <time>2016-11-27T13:55:17Z</time>
      </trkpt>
      <trkpt lat="47.19755" lon="-1.66084">
        <ele>-0.14</ele>
        <time>2016-11-27T13:55:23Z</time>
      </trkpt>
      <trkpt lat="47.19751" lon="-1.66112">
        <ele>-0.33</ele>
        <time>2016-11-27T13:55:29Z</time>
      </trkpt>
      <trkpt lat="47.19755" lon="-1.66141">
        <ele>-0.59</ele>
        <time>2016-11-27T13:55:35Z</time>
      </trkpt>
      <trkpt lat="47.19761" lon="-1.66169">
        <ele>-1.55</ele>
        <time>2016-11-27T13:55:40Z</time>
      </trkpt>
      <trkpt lat="47.19764" lon="-1.66197">
        <ele>-1.71</ele>
        <time>2016-11-27T13:55:45Z</time>
      </trkpt>
      <trkpt lat="47.19765" lon="-1.66224">
        <ele>-1.83</ele>
        <time>2016-11-27T13:55:50Z</time>
      </trkpt>
      <trkpt lat="47.19763" lon="-1.66255">
        <ele>-1.99</ele>
        <time>2016-11-27T13:55:56Z</time>
      </trkpt>
      <trkpt lat="47.19762" lon="-1.66281">
        <ele>-2</ele>
        <time>2016-11-27T13:56:01Z</time>
      </trkpt>
      <trkpt lat="47.19758" lon="-1.66308">
        <ele>-1.98</ele>
        <time>2016-11-27T13:56:06Z</time>
      </trkpt>
      <trkpt lat="47.19756" lon="-1.66337">
        <ele>-1.98</ele>
        <time>2016-11-27T13:56:11Z</time>
      </trkpt>
      <trkpt lat="47.19753" lon="-1.66364">
        <ele>-1.96</ele>
        <time>2016-11-27T13:56:15Z</time>
      </trkpt>
      <trkpt lat="47.1975" lon="-1.66392">
        <ele>-1.78</ele>
        <time>2016-11-27T13:56:20Z</time>
      </trkpt>
      <trkpt lat="47.19747" lon="-1.66425">
        <ele>-1.71</ele>
        <time>2016-11-27T13:56:25Z</time>
      </trkpt>
      <trkpt lat="47.19748" lon="-1.66452">
        <ele>-1.59</ele>
        <time>2016-11-27T13:56:30Z</time>
      </trkpt>
      <trkpt lat="47.19743" lon="-1.66479">
        <ele>-1.61</ele>
        <time>2016-11-27T13:56:36Z</time>
      </trkpt>
      <trkpt lat="47.1974" lon="-1.66509">
        <ele>-1.62</ele>
        <time>2016-11-27T13:56:42Z</time>
      </trkpt>
      <trkpt lat="47.19739" lon="-1.6654">
        <ele>-1.64</ele>
        <time>2016-11-27T13:56:48Z</time>
      </trkpt>
      <trkpt lat="47.19736" lon="-1.66568">
        <ele>-1.72</ele>
        <time>2016-11-27T13:56:51Z</time>
      </trkpt>
      <trkpt lat="47.19723" lon="-1.6659">
        <ele>-1.98</ele>
        <time>2016-11-27T13:56:59Z</time>
      </trkpt>
      <trkpt lat="47.19713" lon="-1.66613">
        <ele>-2.33</ele>
        <time>2016-11-27T13:57:07Z</time>
      </trkpt>
      <trkpt lat="47.19712" lon="-1.66641">
        <ele>-2.56</ele>
        <time>2016-11-27T13:57:15Z</time>
      </trkpt>
      <trkpt lat="47.19697" lon="-1.66657">
        <ele>-2.59</ele>
        <time>2016-11-27T13:57:24Z</time>
      </trkpt>
      <trkpt lat="47.19678" lon="-1.66642">
        <ele>-2.68</ele>
        <time>2016-11-27T13:57:30Z</time>
      </trkpt>
      <trkpt lat="47.19659" lon="-1.66632">
        <ele>-3.09</ele>
        <time>2016-11-27T13:57:35Z</time>
      </trkpt>
      <trkpt lat="47.19641" lon="-1.66618">
        <ele>-3.23</ele>
        <time>2016-11-27T13:57:40Z</time>
      </trkpt>
      <trkpt lat="47.19622" lon="-1.66622">
        <ele>-3.34</ele>
        <time>2016-11-27T13:57:45Z</time>
      </trkpt>
      <trkpt lat="47.19607" lon="-1.66638">
        <ele>-3.41</ele>
        <time>2016-11-27T13:57:50Z</time>
      </trkpt>
      <trkpt lat="47.19595" lon="-1.6666">
        <ele>-3.43</ele>
        <time>2016-11-27T13:57:56Z</time>
      </trkpt>
      <trkpt lat="47.19593" lon="-1.66691">
        <ele>-3.41</ele>
        <time>2016-11-27T13:58:03Z</time>
      </trkpt>
      <trkpt lat="47.19595" lon="-1.66717">
        <ele>-3.42</ele>
        <time>2016-11-27T13:58:08Z</time>
      </trkpt>
      <trkpt lat="47.196" lon="-1.66746">
        <ele>-3.33</ele>
        <time>2016-11-27T13:58:13Z</time>
      </trkpt>
      <trkpt lat="47.19604" lon="-1.66774">
        <ele>-3.22</ele>
        <time>2016-11-27T13:58:19Z</time>
      </trkpt>
      <trkpt lat="47.19609" lon="-1.66802">
        <ele>-3.02</ele>
        <time>2016-11-27T13:58:25Z</time>
      </trkpt>
      <trkpt lat="47.19617" lon="-1.66827">
        <ele>-2.75</ele>
        <time>2016-11-27T13:58:31Z</time>
      </trkpt>
      <trkpt lat="47.19627" lon="-1.66854">
        <ele>-2.38</ele>
        <time>2016-11-27T13:58:37Z</time>
      </trkpt>
      <trkpt lat="47.19634" lon="-1.6688">
        <ele>-2.01</ele>
        <time>2016-11-27T13:58:43Z</time>
      </trkpt>
      <trkpt lat="47.19643" lon="-1.66907">
        <ele>-1.73</ele>
        <time>2016-11-27T13:58:50Z</time>
      </trkpt>
      <trkpt lat="47.1965" lon="-1.66933">
        <ele>-1.48</ele>
        <time>2016-11-27T13:58:56Z</time>
      </trkpt>
      <trkpt lat="47.19652" lon="-1.66962">
        <ele>-1.21</ele>
        <time>2016-11-27T13:59:02Z</time>
      </trkpt>
      <trkpt lat="47.19659" lon="-1.66989">
        <ele>-0.9</ele>
        <time>2016-11-27T13:59:08Z</time>
      </trkpt>
      <trkpt lat="47.19669" lon="-1.67011">
        <ele>-0.7</ele>
        <time>2016-11-27T13:59:13Z</time>
      </trkpt>
      <trkpt lat="47.19681" lon="-1.67033">
        <ele>-0.32</ele>
        <time>2016-11-27T13:59:21Z</time>
      </trkpt>
      <trkpt lat="47.1969" lon="-1.67057">
        <ele>-0.16</ele>
        <time>2016-11-27T13:59:26Z</time>
      </trkpt>
      <trkpt lat="47.19702" lon="-1.67079">
        <ele>-0.01</ele>
        <time>2016-11-27T13:59:32Z</time>
      </trkpt>
      <trkpt lat="47.19714" lon="-1.67103">
        <ele>0.05</ele>
        <time>2016-11-27T13:59:39Z</time>
      </trkpt>
      <trkpt lat="47.19724" lon="-1.67125">
        <ele>5.1</ele>
        <time>2016-11-27T13:59:45Z</time>
      </trkpt>
      <trkpt lat="47.19736" lon="-1.67146">
        <ele>-0.01</ele>
        <time>2016-11-27T13:59:51Z</time>
      </trkpt>
      <trkpt lat="47.19748" lon="-1.67171">
        <ele>-0.07</ele>
        <time>2016-11-27T13:59:57Z</time>
      </trkpt>
      <trkpt lat="47.1976" lon="-1.67196">
        <ele>-0.14</ele>
        <time>2016-11-27T14:00:03Z</time>
      </trkpt>
      <trkpt lat="47.19772" lon="-1.67216">
        <ele>-0.33</ele>
        <time>2016-11-27T14:00:12Z</time>
      </trkpt>
      <trkpt lat="47.19774" lon="-1.67243">
        <ele>-0.28</ele>
        <time>2016-11-27T14:00:23Z</time>
      </trkpt>
      <trkpt lat="47.19754" lon="-1.67259">
        <ele>-0.1</ele>
        <time>2016-11-27T14:00:33Z</time>
      </trkpt>
      <trkpt lat="47.19734" lon="-1.67273">
        <ele>0.04</ele>
        <time>2016-11-27T14:00:39Z</time>
      </trkpt>
      <trkpt lat="47.19717" lon="-1.67258">
        <ele>0.29</ele>
        <time>2016-11-27T14:00:47Z</time>
      </trkpt>
      <trkpt lat="47.19729" lon="-1.67278">
        <ele>0.06</ele>
        <time>2016-11-27T14:02:01Z</time>
      </trkpt>
      <trkpt lat="47.19741" lon="-1.67299">
        <ele>-0.05</ele>
        <time>2016-11-27T14:02:10Z</time>
      </trkpt>
      <trkpt lat="47.19752" lon="-1.67322">
        <ele>-0.2</ele>
        <time>2016-11-27T14:02:19Z</time>
      </trkpt>
      <trkpt lat="47.19759" lon="-1.67347">
        <ele>-0.33</ele>
        <time>2016-11-27T14:02:31Z</time>
      </trkpt>
      <trkpt lat="47.19778" lon="-1.67347">
        <ele>-0.74</ele>
        <time>2016-11-27T14:02:47Z</time>
      </trkpt>
      <trkpt lat="47.19796" lon="-1.6734">
        <ele>-0.86</ele>
        <time>2016-11-27T14:02:54Z</time>
      </trkpt>
      <trkpt lat="47.19808" lon="-1.67361">
        <ele>-1.07</ele>
        <time>2016-11-27T14:03:03Z</time>
      </trkpt>
      <trkpt lat="47.19797" lon="-1.67382">
        <ele>-1.37</ele>
        <time>2016-11-27T14:03:19Z</time>
      </trkpt>
      <trkpt lat="47.19779" lon="-1.67381">
        <ele>0.55</ele>
        <time>2016-11-27T14:05:15Z</time>
      </trkpt>
      <trkpt lat="47.19784" lon="-1.67407">
        <ele>0.96</ele>
        <time>2016-11-27T14:09:37Z</time>
      </trkpt>
      <trkpt lat="47.19796" lon="-1.67426">
        <ele>0.67</ele>
        <time>2016-11-27T14:09:47Z</time>
      </trkpt>
      <trkpt lat="47.19813" lon="-1.67443">
        <ele>0.46</ele>
        <time>2016-11-27T14:09:55Z</time>
      </trkpt>
      <trkpt lat="47.19828" lon="-1.67458">
        <ele>0.27</ele>
        <time>2016-11-27T14:10:03Z</time>
      </trkpt>
      <trkpt lat="47.19845" lon="-1.67469">
        <ele>0.11</ele>
        <time>2016-11-27T14:10:11Z</time>
      </trkpt>
      <trkpt lat="47.19858" lon="-1.67494">
        <ele>-0.07</ele>
        <time>2016-11-27T14:10:19Z</time>
      </trkpt>
      <trkpt lat="47.1987" lon="-1.67517">
        <ele>-0.28</ele>
        <time>2016-11-27T14:10:26Z</time>
      </trkpt>
      <trkpt lat="47.19882" lon="-1.67542">
        <ele>-0.59</ele>
        <time>2016-11-27T14:10:35Z</time>
      </trkpt>
      <trkpt lat="47.19897" lon="-1.67559">
        <ele>-0.84</ele>
        <time>2016-11-27T14:10:43Z</time>
      </trkpt>
      <trkpt lat="47.19913" lon="-1.67578">
        <ele>-1.11</ele>
        <time>2016-11-27T14:10:52Z</time>
      </trkpt>
      <trkpt lat="47.19927" lon="-1.67596">
        <ele>-1.34</ele>
        <time>2016-11-27T14:10:59Z</time>
      </trkpt>
      <trkpt lat="47.19938" lon="-1.67618">
        <ele>-1.58</ele>
        <time>2016-11-27T14:11:06Z</time>
      </trkpt>
      <trkpt lat="47.19949" lon="-1.67641">
        <ele>-1.89</ele>
        <time>2016-11-27T14:11:15Z</time>
      </trkpt>
      <trkpt lat="47.19961" lon="-1.67662">
        <ele>-2.15</ele>
        <time>2016-11-27T14:11:22Z</time>
      </trkpt>
      <trkpt lat="47.19974" lon="-1.67685">
        <ele>-2.43</ele>
        <time>2016-11-27T14:11:29Z</time>
      </trkpt>
      <trkpt lat="47.19986" lon="-1.67708">
        <ele>-2.66</ele>
        <time>2016-11-27T14:11:36Z</time>
      </trkpt>
      <trkpt lat="47.19999" lon="-1.67731">
        <ele>-2.93</ele>
        <time>2016-11-27T14:11:44Z</time>
      </trkpt>
      <trkpt lat="47.20011" lon="-1.67756">
        <ele>-3.26</ele>
        <time>2016-11-27T14:11:51Z</time>
      </trkpt>
      <trkpt lat="47.20025" lon="-1.67775">
        <ele>-3.76</ele>
        <time>2016-11-27T14:11:59Z</time>
      </trkpt>
      <trkpt lat="47.20037" lon="-1.678">
        <ele>-4.26</ele>
        <time>2016-11-27T14:12:07Z</time>
      </trkpt>
      <trkpt lat="47.2005" lon="-1.67823">
        <ele>-4.64</ele>
        <time>2016-11-27T14:12:15Z</time>
      </trkpt>
      <trkpt lat="47.20066" lon="-1.67842">
        <ele>-4.86</ele>
        <time>2016-11-27T14:12:22Z</time>
      </trkpt>
      <trkpt lat="47.20079" lon="-1.67862">
        <ele>-5.04</ele>
        <time>2016-11-27T14:12:28Z</time>
      </trkpt>
      <trkpt lat="47.20088" lon="-1.67886">
        <ele>-5.33</ele>
        <time>2016-11-27T14:12:35Z</time>
      </trkpt>
      <trkpt lat="47.20099" lon="-1.6791">
        <ele>-5.72</ele>
        <time>2016-11-27T14:12:44Z</time>
      </trkpt>
      <trkpt lat="47.20112" lon="-1.6793">
        <ele>-6.05</ele>
        <time>2016-11-27T14:12:52Z</time>
      </trkpt>
      <trkpt lat="47.20129" lon="-1.67922">
        <ele>-7.06</ele>
        <time>2016-11-27T14:13:16Z</time>
      </trkpt>
      <trkpt lat="47.20146" lon="-1.67912">
        <ele>-7.23</ele>
        <time>2016-11-27T14:13:26Z</time>
      </trkpt>
      <trkpt lat="47.20163" lon="-1.67894">
        <ele>-7.14</ele>
        <time>2016-11-27T14:13:33Z</time>
      </trkpt>
      <trkpt lat="47.2018" lon="-1.67877">
        <ele>-6.95</ele>
        <time>2016-11-27T14:13:40Z</time>
      </trkpt>
      <trkpt lat="47.20196" lon="-1.67866">
        <ele>-6.67</ele>
        <time>2016-11-27T14:13:50Z</time>
      </trkpt>
      <trkpt lat="47.20212" lon="-1.6785">
        <ele>-6.05</ele>
        <time>2016-11-27T14:14:04Z</time>
      </trkpt>
      <trkpt lat="47.20227" lon="-1.67833">
        <ele>-5.78</ele>
        <time>2016-11-27T14:14:10Z</time>
      </trkpt>
      <trkpt lat="47.20236" lon="-1.67809">
        <ele>-5.56</ele>
        <time>2016-11-27T14:14:16Z</time>
      </trkpt>
      <trkpt lat="47.20226" lon="-1.67783">
        <ele>-5.37</ele>
        <time>2016-11-27T14:14:21Z</time>
      </trkpt>
      <trkpt lat="47.20216" lon="-1.67756">
        <ele>-4.06</ele>
        <time>2016-11-27T14:14:25Z</time>
      </trkpt>
      <trkpt lat="47.20202" lon="-1.67734">
        <ele>-4</ele>
        <time>2016-11-27T14:14:30Z</time>
      </trkpt>
      <trkpt lat="47.20191" lon="-1.67709">
        <ele>-4.29</ele>
        <time>2016-11-27T14:14:37Z</time>
      </trkpt>
      <trkpt lat="47.20179" lon="-1.67683">
        <ele>-4.7</ele>
        <time>2016-11-27T14:14:44Z</time>
      </trkpt>
      <trkpt lat="47.2017" lon="-1.67659">
        <ele>-5.11</ele>
        <time>2016-11-27T14:14:51Z</time>
      </trkpt>
      <trkpt lat="47.20162" lon="-1.67629">
        <ele>-5.39</ele>
        <time>2016-11-27T14:14:58Z</time>
      </trkpt>
      <trkpt lat="47.20154" lon="-1.67602">
        <ele>-5.68</ele>
        <time>2016-11-27T14:15:05Z</time>
      </trkpt>
      <trkpt lat="47.20144" lon="-1.67578">
        <ele>-6.02</ele>
        <time>2016-11-27T14:15:11Z</time>
      </trkpt>
      <trkpt lat="47.20135" lon="-1.67553">
        <ele>-6.33</ele>
        <time>2016-11-27T14:15:17Z</time>
      </trkpt>
      <trkpt lat="47.20125" lon="-1.6753">
        <ele>-6.58</ele>
        <time>2016-11-27T14:15:25Z</time>
      </trkpt>
      <trkpt lat="47.20115" lon="-1.67504">
        <ele>-6.74</ele>
        <time>2016-11-27T14:15:33Z</time>
      </trkpt>
      <trkpt lat="47.20132" lon="-1.67485">
        <ele>-6.7</ele>
        <time>2016-11-27T14:15:50Z</time>
      </trkpt>
      <trkpt lat="47.20151" lon="-1.67475">
        <ele>-6.57</ele>
        <time>2016-11-27T14:15:56Z</time>
      </trkpt>
      <trkpt lat="47.2017" lon="-1.6747">
        <ele>-6.6</ele>
        <time>2016-11-27T14:16:02Z</time>
      </trkpt>
      <trkpt lat="47.20189" lon="-1.6746">
        <ele>-6.65</ele>
        <time>2016-11-27T14:16:08Z</time>
      </trkpt>
      <trkpt lat="47.20209" lon="-1.67449">
        <ele>-6.68</ele>
        <time>2016-11-27T14:16:14Z</time>
      </trkpt>
      <trkpt lat="47.2023" lon="-1.6744">
        <ele>-6.78</ele>
        <time>2016-11-27T14:16:21Z</time>
      </trkpt>
      <trkpt lat="47.20248" lon="-1.67432">
        <ele>-6.81</ele>
        <time>2016-11-27T14:16:26Z</time>
      </trkpt>
      <trkpt lat="47.20266" lon="-1.67424">
        <ele>-6.83</ele>
        <time>2016-11-27T14:16:32Z</time>
      </trkpt>
      <trkpt lat="47.20284" lon="-1.67412">
        <ele>-6.82</ele>
        <time>2016-11-27T14:16:39Z</time>
      </trkpt>
      <trkpt lat="47.20302" lon="-1.67404">
        <ele>-6.71</ele>
        <time>2016-11-27T14:16:46Z</time>
      </trkpt>
      <trkpt lat="47.20323" lon="-1.67394">
        <ele>-6.67</ele>
        <time>2016-11-27T14:16:54Z</time>
      </trkpt>
      <trkpt lat="47.20341" lon="-1.67398">
        <ele>-6.68</ele>
        <time>2016-11-27T14:16:59Z</time>
      </trkpt>
      <trkpt lat="47.20357" lon="-1.67411">
        <ele>-6.44</ele>
        <time>2016-11-27T14:17:05Z</time>
      </trkpt>
      <trkpt lat="47.20371" lon="-1.67435">
        <ele>-6.3</ele>
        <time>2016-11-27T14:17:11Z</time>
      </trkpt>
      <trkpt lat="47.2038" lon="-1.67458">
        <ele>-6.4</ele>
        <time>2016-11-27T14:17:16Z</time>
      </trkpt>
      <trkpt lat="47.20388" lon="-1.67482">
        <ele>-6.43</ele>
        <time>2016-11-27T14:17:21Z</time>
      </trkpt>
      <trkpt lat="47.20393" lon="-1.67509">
        <ele>-6.46</ele>
        <time>2016-11-27T14:17:26Z</time>
      </trkpt>
      <trkpt lat="47.20397" lon="-1.67537">
        <ele>-6.59</ele>
        <time>2016-11-27T14:17:33Z</time>
      </trkpt>
      <trkpt lat="47.20415" lon="-1.67544">
        <ele>-6.91</ele>
        <time>2016-11-27T14:17:40Z</time>
      </trkpt>
      <trkpt lat="47.20432" lon="-1.67527">
        <ele>-8.27</ele>
        <time>2016-11-27T14:17:46Z</time>
      </trkpt>
      <trkpt lat="47.20449" lon="-1.67539">
        <ele>-9.13</ele>
        <time>2016-11-27T14:17:51Z</time>
      </trkpt>
      <trkpt lat="47.20456" lon="-1.67567">
        <ele>-9.63</ele>
        <time>2016-11-27T14:17:56Z</time>
      </trkpt>
      <trkpt lat="47.20467" lon="-1.67589">
        <ele>-9.67</ele>
        <time>2016-11-27T14:18:02Z</time>
      </trkpt>
      <trkpt lat="47.20478" lon="-1.6761">
        <ele>-9.69</ele>
        <time>2016-11-27T14:18:09Z</time>
      </trkpt>
      <trkpt lat="47.20488" lon="-1.67636">
        <ele>-9.7</ele>
        <time>2016-11-27T14:18:16Z</time>
      </trkpt>
      <trkpt lat="47.20499" lon="-1.67663">
        <ele>-9.7</ele>
        <time>2016-11-27T14:18:22Z</time>
      </trkpt>
      <trkpt lat="47.20509" lon="-1.67692">
        <ele>-9.74</ele>
        <time>2016-11-27T14:18:28Z</time>
      </trkpt>
      <trkpt lat="47.20518" lon="-1.67716">
        <ele>-9.78</ele>
        <time>2016-11-27T14:18:33Z</time>
      </trkpt>
      <trkpt lat="47.20526" lon="-1.67743">
        <ele>-9.88</ele>
        <time>2016-11-27T14:18:38Z</time>
      </trkpt>
      <trkpt lat="47.20534" lon="-1.67769">
        <ele>-9.89</ele>
        <time>2016-11-27T14:18:44Z</time>
      </trkpt>
      <trkpt lat="47.20543" lon="-1.67799">
        <ele>-9.91</ele>
        <time>2016-11-27T14:18:49Z</time>
      </trkpt>
      <trkpt lat="47.2055" lon="-1.67824">
        <ele>-9.96</ele>
        <time>2016-11-27T14:18:54Z</time>
      </trkpt>
      <trkpt lat="47.20558" lon="-1.67853">
        <ele>-10.05</ele>
        <time>2016-11-27T14:19:00Z</time>
      </trkpt>
      <trkpt lat="47.20565" lon="-1.67878">
        <ele>-10.15</ele>
        <time>2016-11-27T14:19:05Z</time>
      </trkpt>
      <trkpt lat="47.20573" lon="-1.67903">
        <ele>-10.59</ele>
        <time>2016-11-27T14:19:10Z</time>
      </trkpt>
      <trkpt lat="47.20581" lon="-1.67929">
        <ele>-10.72</ele>
        <time>2016-11-27T14:19:15Z</time>
      </trkpt>
      <trkpt lat="47.20589" lon="-1.67955">
        <ele>-10.9</ele>
        <time>2016-11-27T14:19:21Z</time>
      </trkpt>
      <trkpt lat="47.20599" lon="-1.67985">
        <ele>-11.9</ele>
        <time>2016-11-27T14:19:26Z</time>
      </trkpt>
      <trkpt lat="47.20606" lon="-1.68011">
        <ele>-12.5</ele>
        <time>2016-11-27T14:19:31Z</time>
      </trkpt>
      <trkpt lat="47.20614" lon="-1.68035">
        <ele>-12.55</ele>
        <time>2016-11-27T14:19:36Z</time>
      </trkpt>
      <trkpt lat="47.20624" lon="-1.68061">
        <ele>-12.6</ele>
        <time>2016-11-27T14:19:41Z</time>
      </trkpt>
      <trkpt lat="47.2063" lon="-1.6809">
        <ele>-12.68</ele>
        <time>2016-11-27T14:19:47Z</time>
      </trkpt>
      <trkpt lat="47.20639" lon="-1.68119">
        <ele>-13.02</ele>
        <time>2016-11-27T14:19:52Z</time>
      </trkpt>
      <trkpt lat="47.20645" lon="-1.68148">
        <ele>-13.17</ele>
        <time>2016-11-27T14:19:58Z</time>
      </trkpt>
      <trkpt lat="47.20653" lon="-1.68174">
        <ele>-13.48</ele>
        <time>2016-11-27T14:20:03Z</time>
      </trkpt>
      <trkpt lat="47.20661" lon="-1.68202">
        <ele>-14.12</ele>
        <time>2016-11-27T14:20:08Z</time>
      </trkpt>
      <trkpt lat="47.2067" lon="-1.6823">
        <ele>-14.34</ele>
        <time>2016-11-27T14:20:13Z</time>
      </trkpt>
      <trkpt lat="47.20679" lon="-1.6826">
        <ele>-14.79</ele>
        <time>2016-11-27T14:20:18Z</time>
      </trkpt>
      <trkpt lat="47.20687" lon="-1.68287">
        <ele>-14.71</ele>
        <time>2016-11-27T14:20:23Z</time>
      </trkpt>
      <trkpt lat="47.20695" lon="-1.68314">
        <ele>-14.64</ele>
        <time>2016-11-27T14:20:28Z</time>
      </trkpt>
      <trkpt lat="47.20703" lon="-1.6834">
        <ele>-14.7</ele>
        <time>2016-11-27T14:20:34Z</time>
      </trkpt>
      <trkpt lat="47.20714" lon="-1.68366">
        <ele>-14.84</ele>
        <time>2016-11-27T14:20:40Z</time>
      </trkpt>
      <trkpt lat="47.2073" lon="-1.68383">
        <ele>-16.07</ele>
        <time>2016-11-27T14:20:45Z</time>
      </trkpt>
      <trkpt lat="47.20738" lon="-1.6841">
        <ele>-16.95</ele>
        <time>2016-11-27T14:20:50Z</time>
      </trkpt>
      <trkpt lat="47.20737" lon="-1.68439">
        <ele>-17.07</ele>
        <time>2016-11-27T14:20:55Z</time>
      </trkpt>
      <trkpt lat="47.20741" lon="-1.68467">
        <ele>-17.1</ele>
        <time>2016-11-27T14:21:01Z</time>
      </trkpt>
      <trkpt lat="47.20748" lon="-1.68492">
        <ele>-17.23</ele>
        <time>2016-11-27T14:21:06Z</time>
      </trkpt>
      <trkpt lat="47.20755" lon="-1.68519">
        <ele>-17.36</ele>
        <time>2016-11-27T14:21:12Z</time>
      </trkpt>
      <trkpt lat="47.20764" lon="-1.68548">
        <ele>-17.44</ele>
        <time>2016-11-27T14:21:17Z</time>
      </trkpt>
      <trkpt lat="47.20771" lon="-1.68574">
        <ele>-17.77</ele>
        <time>2016-11-27T14:21:22Z</time>
      </trkpt>
      <trkpt lat="47.2078" lon="-1.68606">
        <ele>-17.4</ele>
        <time>2016-11-27T14:21:27Z</time>
      </trkpt>
      <trkpt lat="47.20789" lon="-1.68635">
        <ele>-17.02</ele>
        <time>2016-11-27T14:21:32Z</time>
      </trkpt>
      <trkpt lat="47.20797" lon="-1.68661">
        <ele>-16.98</ele>
        <time>2016-11-27T14:21:36Z</time>
      </trkpt>
      <trkpt lat="47.20805" lon="-1.68687">
        <ele>-17.58</ele>
        <time>2016-11-27T14:21:40Z</time>
      </trkpt>
      <trkpt lat="47.20813" lon="-1.68713">
        <ele>-18.04</ele>
        <time>2016-11-27T14:21:44Z</time>
      </trkpt>
      <trkpt lat="47.20823" lon="-1.68744">
        <ele>-18.3</ele>
        <time>2016-11-27T14:21:48Z</time>
      </trkpt>
      <trkpt lat="47.2083" lon="-1.68773">
        <ele>-18.18</ele>
        <time>2016-11-27T14:21:53Z</time>
      </trkpt>
      <trkpt lat="47.20837" lon="-1.68798">
        <ele>-18</ele>
        <time>2016-11-27T14:21:57Z</time>
      </trkpt>
      <trkpt lat="47.20844" lon="-1.68823">
        <ele>-17.74</ele>
        <time>2016-11-27T14:22:01Z</time>
      </trkpt>
      <trkpt lat="47.20851" lon="-1.68849">
        <ele>-17.46</ele>
        <time>2016-11-27T14:22:05Z</time>
      </trkpt>
      <trkpt lat="47.20858" lon="-1.68879">
        <ele>-17.16</ele>
        <time>2016-11-27T14:22:10Z</time>
      </trkpt>
      <trkpt lat="47.20865" lon="-1.68909">
        <ele>-16.7</ele>
        <time>2016-11-27T14:22:15Z</time>
      </trkpt>
      <trkpt lat="47.20871" lon="-1.68939">
        <ele>-16.4</ele>
        <time>2016-11-27T14:22:20Z</time>
      </trkpt>
      <trkpt lat="47.20876" lon="-1.68967">
        <ele>-16.16</ele>
        <time>2016-11-27T14:22:24Z</time>
      </trkpt>
      <trkpt lat="47.2088" lon="-1.68994">
        <ele>-15.38</ele>
        <time>2016-11-27T14:22:28Z</time>
      </trkpt>
      <trkpt lat="47.20881" lon="-1.69022">
        <ele>-14.7</ele>
        <time>2016-11-27T14:22:33Z</time>
      </trkpt>
      <trkpt lat="47.20884" lon="-1.69049">
        <ele>-14.45</ele>
        <time>2016-11-27T14:22:37Z</time>
      </trkpt>
      <trkpt lat="47.2089" lon="-1.69082">
        <ele>-14.59</ele>
        <time>2016-11-27T14:22:41Z</time>
      </trkpt>
      <trkpt lat="47.2089" lon="-1.69112">
        <ele>-15.77</ele>
        <time>2016-11-27T14:22:45Z</time>
      </trkpt>
      <trkpt lat="47.2089" lon="-1.69143">
        <ele>-16.43</ele>
        <time>2016-11-27T14:22:49Z</time>
      </trkpt>
      <trkpt lat="47.20891" lon="-1.69176">
        <ele>-16.8</ele>
        <time>2016-11-27T14:22:54Z</time>
      </trkpt>
      <trkpt lat="47.20891" lon="-1.69206">
        <ele>-16.84</ele>
        <time>2016-11-27T14:22:58Z</time>
      </trkpt>
      <trkpt lat="47.20895" lon="-1.6924">
        <ele>-16.74</ele>
        <time>2016-11-27T14:23:02Z</time>
      </trkpt>
      <trkpt lat="47.20896" lon="-1.69272">
        <ele>-16.83</ele>
        <time>2016-11-27T14:23:05Z</time>
      </trkpt>
      <trkpt lat="47.20898" lon="-1.69299">
        <ele>-16.94</ele>
        <time>2016-11-27T14:23:08Z</time>
      </trkpt>
      <trkpt lat="47.20902" lon="-1.69326">
        <ele>-16.65</ele>
        <time>2016-11-27T14:23:11Z</time>
      </trkpt>
      <trkpt lat="47.20909" lon="-1.69355">
        <ele>-15.65</ele>
        <time>2016-11-27T14:23:14Z</time>
      </trkpt>
      <trkpt lat="47.20911" lon="-1.69381">
        <ele>-15.23</ele>
        <time>2016-11-27T14:23:17Z</time>
      </trkpt>
      <trkpt lat="47.20913" lon="-1.69411">
        <ele>-15.87</ele>
        <time>2016-11-27T14:23:20Z</time>
      </trkpt>
      <trkpt lat="47.20916" lon="-1.6944">
        <ele>-16.9</ele>
        <time>2016-11-27T14:23:23Z</time>
      </trkpt>
      <trkpt lat="47.20919" lon="-1.69469">
        <ele>-18.12</ele>
        <time>2016-11-27T14:23:26Z</time>
      </trkpt>
      <trkpt lat="47.20921" lon="-1.69498">
        <ele>-18.97</ele>
        <time>2016-11-27T14:23:29Z</time>
      </trkpt>
      <trkpt lat="47.20923" lon="-1.69526">
        <ele>-19.62</ele>
        <time>2016-11-27T14:23:32Z</time>
      </trkpt>
      <trkpt lat="47.20924" lon="-1.69555">
        <ele>-19.96</ele>
        <time>2016-11-27T14:23:35Z</time>
      </trkpt>
      <trkpt lat="47.20926" lon="-1.69584">
        <ele>-20.15</ele>
        <time>2016-11-27T14:23:38Z</time>
      </trkpt>
      <trkpt lat="47.20929" lon="-1.69613">
        <ele>-20.22</ele>
        <time>2016-11-27T14:23:41Z</time>
      </trkpt>
      <trkpt lat="47.20931" lon="-1.69642">
        <ele>-20.22</ele>
        <time>2016-11-27T14:23:44Z</time>
      </trkpt>
      <trkpt lat="47.20932" lon="-1.69668">
        <ele>-20.08</ele>
        <time>2016-11-27T14:23:47Z</time>
      </trkpt>
      <trkpt lat="47.20934" lon="-1.69697">
        <ele>-19.94</ele>
        <time>2016-11-27T14:23:50Z</time>
      </trkpt>
      <trkpt lat="47.20937" lon="-1.69725">
        <ele>-19.87</ele>
        <time>2016-11-27T14:23:53Z</time>
      </trkpt>
      <trkpt lat="47.20939" lon="-1.69753">
        <ele>-19.86</ele>
        <time>2016-11-27T14:23:56Z</time>
      </trkpt>
      <trkpt lat="47.20941" lon="-1.6978">
        <ele>-20.08</ele>
        <time>2016-11-27T14:23:59Z</time>
      </trkpt>
      <trkpt lat="47.20947" lon="-1.69809">
        <ele>-20.46</ele>
        <time>2016-11-27T14:24:02Z</time>
      </trkpt>
      <trkpt lat="47.20947" lon="-1.69836">
        <ele>-20.88</ele>
        <time>2016-11-27T14:24:05Z</time>
      </trkpt>
      <trkpt lat="47.20949" lon="-1.69863">
        <ele>-21.31</ele>
        <time>2016-11-27T14:24:08Z</time>
      </trkpt>
      <trkpt lat="47.20949" lon="-1.69893">
        <ele>-21.74</ele>
        <time>2016-11-27T14:24:12Z</time>
      </trkpt>
      <trkpt lat="47.2095" lon="-1.69927">
        <ele>-22.21</ele>
        <time>2016-11-27T14:24:16Z</time>
      </trkpt>
      <trkpt lat="47.20946" lon="-1.69962">
        <ele>-22.13</ele>
        <time>2016-11-27T14:24:20Z</time>
      </trkpt>
      <trkpt lat="47.20945" lon="-1.69997">
        <ele>-21.45</ele>
        <time>2016-11-27T14:24:24Z</time>
      </trkpt>
      <trkpt lat="47.20947" lon="-1.70029">
        <ele>-20.39</ele>
        <time>2016-11-27T14:24:28Z</time>
      </trkpt>
      <trkpt lat="47.20953" lon="-1.70057">
        <ele>-19.33</ele>
        <time>2016-11-27T14:24:32Z</time>
      </trkpt>
      <trkpt lat="47.20959" lon="-1.70086">
        <ele>-18.82</ele>
        <time>2016-11-27T14:24:36Z</time>
      </trkpt>
      <trkpt lat="47.20952" lon="-1.70112">
        <ele>-18.38</ele>
        <time>2016-11-27T14:24:40Z</time>
      </trkpt>
      <trkpt lat="47.20953" lon="-1.70139">
        <ele>-18.1</ele>
        <time>2016-11-27T14:24:44Z</time>
      </trkpt>
      <trkpt lat="47.20957" lon="-1.70168">
        <ele>-18.02</ele>
        <time>2016-11-27T14:24:48Z</time>
      </trkpt>
      <trkpt lat="47.20961" lon="-1.70198">
        <ele>-18.02</ele>
        <time>2016-11-27T14:24:52Z</time>
      </trkpt>
      <trkpt lat="47.20965" lon="-1.70228">
        <ele>-18.03</ele>
        <time>2016-11-27T14:24:56Z</time>
      </trkpt>
      <trkpt lat="47.20968" lon="-1.70259">
        <ele>-18.05</ele>
        <time>2016-11-27T14:25:00Z</time>
      </trkpt>
      <trkpt lat="47.20971" lon="-1.70292">
        <ele>-18.07</ele>
        <time>2016-11-27T14:25:04Z</time>
      </trkpt>
      <trkpt lat="47.20973" lon="-1.70323">
        <ele>-17.97</ele>
        <time>2016-11-27T14:25:08Z</time>
      </trkpt>
      <trkpt lat="47.20974" lon="-1.70353">
        <ele>-17.89</ele>
        <time>2016-11-27T14:25:12Z</time>
      </trkpt>
      <trkpt lat="47.20973" lon="-1.70383">
        <ele>-17.94</ele>
        <time>2016-11-27T14:25:16Z</time>
      </trkpt>
      <trkpt lat="47.20973" lon="-1.70413">
        <ele>-18.18</ele>
        <time>2016-11-27T14:25:20Z</time>
      </trkpt>
      <trkpt lat="47.20974" lon="-1.70445">
        <ele>-18.37</ele>
        <time>2016-11-27T14:25:24Z</time>
      </trkpt>
      <trkpt lat="47.20974" lon="-1.70477">
        <ele>-18.48</ele>
        <time>2016-11-27T14:25:28Z</time>
      </trkpt>
      <trkpt lat="47.20975" lon="-1.70511">
        <ele>-18.63</ele>
        <time>2016-11-27T14:25:32Z</time>
      </trkpt>
      <trkpt lat="47.2097" lon="-1.70541">
        <ele>-18.68</ele>
        <time>2016-11-27T14:25:36Z</time>
      </trkpt>
      <trkpt lat="47.20965" lon="-1.70572">
        <ele>-18.6</ele>
        <time>2016-11-27T14:25:40Z</time>
      </trkpt>
      <trkpt lat="47.20959" lon="-1.70601">
        <ele>-18.5</ele>
        <time>2016-11-27T14:25:44Z</time>
      </trkpt>
      <trkpt lat="47.20956" lon="-1.7063">
        <ele>-18.36</ele>
        <time>2016-11-27T14:25:48Z</time>
      </trkpt>
      <trkpt lat="47.20952" lon="-1.70659">
        <ele>-18.38</ele>
        <time>2016-11-27T14:25:52Z</time>
      </trkpt>
      <trkpt lat="47.2095" lon="-1.7069">
        <ele>-18.18</ele>
        <time>2016-11-27T14:25:56Z</time>
      </trkpt>
      <trkpt lat="47.20949" lon="-1.70721">
        <ele>-18.1</ele>
        <time>2016-11-27T14:26:00Z</time>
      </trkpt>
      <trkpt lat="47.20951" lon="-1.70751">
        <ele>-17.99</ele>
        <time>2016-11-27T14:26:04Z</time>
      </trkpt>
      <trkpt lat="47.20958" lon="-1.70778">
        <ele>-17.61</ele>
        <time>2016-11-27T14:26:08Z</time>
      </trkpt>
      <trkpt lat="47.20967" lon="-1.70807">
        <ele>-17.3</ele>
        <time>2016-11-27T14:26:12Z</time>
      </trkpt>
      <trkpt lat="47.20977" lon="-1.70839">
        <ele>-17.34</ele>
        <time>2016-11-27T14:26:16Z</time>
      </trkpt>
      <trkpt lat="47.20987" lon="-1.70868">
        <ele>-17.59</ele>
        <time>2016-11-27T14:26:20Z</time>
      </trkpt>
      <trkpt lat="47.20995" lon="-1.70894">
        <ele>-17.62</ele>
        <time>2016-11-27T14:26:24Z</time>
      </trkpt>
      <trkpt lat="47.21002" lon="-1.70925">
        <ele>-17.6</ele>
        <time>2016-11-27T14:26:29Z</time>
      </trkpt>
      <trkpt lat="47.2101" lon="-1.70951">
        <ele>-17.51</ele>
        <time>2016-11-27T14:26:33Z</time>
      </trkpt>
      <trkpt lat="47.21017" lon="-1.70979">
        <ele>-17.4</ele>
        <time>2016-11-27T14:26:37Z</time>
      </trkpt>
      <trkpt lat="47.21023" lon="-1.71008">
        <ele>-17.56</ele>
        <time>2016-11-27T14:26:41Z</time>
      </trkpt>
      <trkpt lat="47.21034" lon="-1.71033">
        <ele>-17.83</ele>
        <time>2016-11-27T14:26:45Z</time>
      </trkpt>
      <trkpt lat="47.21043" lon="-1.71059">
        <ele>-17.95</ele>
        <time>2016-11-27T14:26:51Z</time>
      </trkpt>
      <trkpt lat="47.21047" lon="-1.71087">
        <ele>-11.81</ele>
        <time>2016-11-27T14:30:36Z</time>
      </trkpt>
      <trkpt lat="47.21032" lon="-1.71107">
        <ele>-10.36</ele>
        <time>2016-11-27T14:30:42Z</time>
      </trkpt>
      <trkpt lat="47.21019" lon="-1.71125">
        <ele>-10.02</ele>
        <time>2016-11-27T14:30:51Z</time>
      </trkpt>
      <trkpt lat="47.21013" lon="-1.71153">
        <ele>-9.87</ele>
        <time>2016-11-27T14:30:57Z</time>
      </trkpt>
      <trkpt lat="47.21007" lon="-1.7118">
        <ele>-9.63</ele>
        <time>2016-11-27T14:31:02Z</time>
      </trkpt>
      <trkpt lat="47.20997" lon="-1.71204">
        <ele>-9.58</ele>
        <time>2016-11-27T14:31:07Z</time>
      </trkpt>
      <trkpt lat="47.20986" lon="-1.71225">
        <ele>-9.58</ele>
        <time>2016-11-27T14:31:12Z</time>
      </trkpt>
      <trkpt lat="47.20968" lon="-1.71241">
        <ele>-9.58</ele>
        <time>2016-11-27T14:31:17Z</time>
      </trkpt>
      <trkpt lat="47.20951" lon="-1.71253">
        <ele>-9.6</ele>
        <time>2016-11-27T14:31:21Z</time>
      </trkpt>
      <trkpt lat="47.20931" lon="-1.71262">
        <ele>-9.63</ele>
        <time>2016-11-27T14:31:27Z</time>
      </trkpt>
      <trkpt lat="47.20913" lon="-1.71273">
        <ele>-9.69</ele>
        <time>2016-11-27T14:31:33Z</time>
      </trkpt>
      <trkpt lat="47.20894" lon="-1.71277">
        <ele>-9.75</ele>
        <time>2016-11-27T14:31:37Z</time>
      </trkpt>
      <trkpt lat="47.20878" lon="-1.71292">
        <ele>-9.8</ele>
        <time>2016-11-27T14:31:42Z</time>
      </trkpt>
      <trkpt lat="47.20863" lon="-1.71308">
        <ele>-9.86</ele>
        <time>2016-11-27T14:31:47Z</time>
      </trkpt>
      <trkpt lat="47.2085" lon="-1.71329">
        <ele>-9.9</ele>
        <time>2016-11-27T14:31:53Z</time>
      </trkpt>
      <trkpt lat="47.2084" lon="-1.71352">
        <ele>-9.81</ele>
        <time>2016-11-27T14:32:00Z</time>
      </trkpt>
      <trkpt lat="47.20837" lon="-1.7138">
        <ele>-9.39</ele>
        <time>2016-11-27T14:32:08Z</time>
      </trkpt>
      <trkpt lat="47.20835" lon="-1.71406">
        <ele>-8.7</ele>
        <time>2016-11-27T14:32:17Z</time>
      </trkpt>
      <trkpt lat="47.20836" lon="-1.71433">
        <ele>-8.33</ele>
        <time>2016-11-27T14:32:23Z</time>
      </trkpt>
      <trkpt lat="47.20837" lon="-1.71464">
        <ele>-8.05</ele>
        <time>2016-11-27T14:32:28Z</time>
      </trkpt>
      <trkpt lat="47.20837" lon="-1.71492">
        <ele>-7.78</ele>
        <time>2016-11-27T14:32:34Z</time>
      </trkpt>
      <trkpt lat="47.20842" lon="-1.71521">
        <ele>-7.6</ele>
        <time>2016-11-27T14:32:39Z</time>
      </trkpt>
      <trkpt lat="47.20838" lon="-1.7155">
        <ele>-7.43</ele>
        <time>2016-11-27T14:32:45Z</time>
      </trkpt>
      <trkpt lat="47.20843" lon="-1.7158">
        <ele>-7.32</ele>
        <time>2016-11-27T14:32:51Z</time>
      </trkpt>
      <trkpt lat="47.20845" lon="-1.71607">
        <ele>-7.25</ele>
        <time>2016-11-27T14:32:57Z</time>
      </trkpt>
      <trkpt lat="47.20845" lon="-1.71635">
        <ele>-7.19</ele>
        <time>2016-11-27T14:33:03Z</time>
      </trkpt>
      <trkpt lat="47.20845" lon="-1.71661">
        <ele>-7.16</ele>
        <time>2016-11-27T14:33:08Z</time>
      </trkpt>
      <trkpt lat="47.20845" lon="-1.7169">
        <ele>-7.13</ele>
        <time>2016-11-27T14:33:15Z</time>
      </trkpt>
      <trkpt lat="47.20846" lon="-1.71719">
        <ele>-7.01</ele>
        <time>2016-11-27T14:33:22Z</time>
      </trkpt>
      <trkpt lat="47.2085" lon="-1.71747">
        <ele>-6.97</ele>
        <time>2016-11-27T14:33:28Z</time>
      </trkpt>
      <trkpt lat="47.20852" lon="-1.71774">
        <ele>-6.99</ele>
        <time>2016-11-27T14:33:34Z</time>
      </trkpt>
      <trkpt lat="47.20852" lon="-1.71801">
        <ele>-7.06</ele>
        <time>2016-11-27T14:33:40Z</time>
      </trkpt>
      <trkpt lat="47.20852" lon="-1.71831">
        <ele>-7.2</ele>
        <time>2016-11-27T14:33:46Z</time>
      </trkpt>
      <trkpt lat="47.20853" lon="-1.71858">
        <ele>-7.33</ele>
        <time>2016-11-27T14:33:52Z</time>
      </trkpt>
      <trkpt lat="47.20856" lon="-1.71886">
        <ele>-7.45</ele>
        <time>2016-11-27T14:33:58Z</time>
      </trkpt>
      <trkpt lat="47.20856" lon="-1.71914">
        <ele>-7.56</ele>
        <time>2016-11-27T14:34:04Z</time>
      </trkpt>
      <trkpt lat="47.20857" lon="-1.71944">
        <ele>-7.6</ele>
        <time>2016-11-27T14:34:11Z</time>
      </trkpt>
      <trkpt lat="47.2086" lon="-1.71971">
        <ele>-7.59</ele>
        <time>2016-11-27T14:34:17Z</time>
      </trkpt>
      <trkpt lat="47.20859" lon="-1.72">
        <ele>-7.55</ele>
        <time>2016-11-27T14:34:23Z</time>
      </trkpt>
      <trkpt lat="47.2086" lon="-1.7203">
        <ele>-7.46</ele>
        <time>2016-11-27T14:34:29Z</time>
      </trkpt>
      <trkpt lat="47.2086" lon="-1.72057">
        <ele>-7.34</ele>
        <time>2016-11-27T14:34:36Z</time>
      </trkpt>
      <trkpt lat="47.20861" lon="-1.72086">
        <ele>-7.23</ele>
        <time>2016-11-27T14:34:43Z</time>
      </trkpt>
      <trkpt lat="47.2086" lon="-1.72114">
        <ele>-7.23</ele>
        <time>2016-11-27T14:34:50Z</time>
      </trkpt>
      <trkpt lat="47.20861" lon="-1.72144">
        <ele>-7.26</ele>
        <time>2016-11-27T14:34:57Z</time>
      </trkpt>
      <trkpt lat="47.20862" lon="-1.72171">
        <ele>-7.25</ele>
        <time>2016-11-27T14:35:03Z</time>
      </trkpt>
      <trkpt lat="47.20866" lon="-1.72201">
        <ele>-7.2</ele>
        <time>2016-11-27T14:35:10Z</time>
      </trkpt>
      <trkpt lat="47.20867" lon="-1.72228">
        <ele>-7.04</ele>
        <time>2016-11-27T14:35:17Z</time>
      </trkpt>
      <trkpt lat="47.2087" lon="-1.72256">
        <ele>-6.95</ele>
        <time>2016-11-27T14:35:23Z</time>
      </trkpt>
      <trkpt lat="47.20875" lon="-1.72286">
        <ele>-6.95</ele>
        <time>2016-11-27T14:35:29Z</time>
      </trkpt>
      <trkpt lat="47.20878" lon="-1.72314">
        <ele>-6.97</ele>
        <time>2016-11-27T14:35:35Z</time>
      </trkpt>
      <trkpt lat="47.2088" lon="-1.72343">
        <ele>-6.97</ele>
        <time>2016-11-27T14:35:43Z</time>
      </trkpt>
      <trkpt lat="47.20884" lon="-1.72375">
        <ele>-6.98</ele>
        <time>2016-11-27T14:35:49Z</time>
      </trkpt>
      <trkpt lat="47.20887" lon="-1.72404">
        <ele>-7.19</ele>
        <time>2016-11-27T14:35:55Z</time>
      </trkpt>
      <trkpt lat="47.20887" lon="-1.7243">
        <ele>-7.28</ele>
        <time>2016-11-27T14:36:01Z</time>
      </trkpt>
      <trkpt lat="47.20889" lon="-1.7246">
        <ele>-7.36</ele>
        <time>2016-11-27T14:36:08Z</time>
      </trkpt>
      <trkpt lat="47.20896" lon="-1.72487">
        <ele>-7.62</ele>
        <time>2016-11-27T14:36:16Z</time>
      </trkpt>
      <trkpt lat="47.20904" lon="-1.72514">
        <ele>-7.85</ele>
        <time>2016-11-27T14:36:23Z</time>
      </trkpt>
      <trkpt lat="47.20906" lon="-1.72546">
        <ele>-7.94</ele>
        <time>2016-11-27T14:36:29Z</time>
      </trkpt>
      <trkpt lat="47.20906" lon="-1.72577">
        <ele>-8.04</ele>
        <time>2016-11-27T14:36:35Z</time>
      </trkpt>
      <trkpt lat="47.20906" lon="-1.72604">
        <ele>-8.55</ele>
        <time>2016-11-27T14:36:40Z</time>
      </trkpt>
      <trkpt lat="47.20908" lon="-1.72635">
        <ele>-9.82</ele>
        <time>2016-11-27T14:36:45Z</time>
      </trkpt>
      <trkpt lat="47.20909" lon="-1.72664">
        <ele>-10.02</ele>
        <time>2016-11-27T14:36:51Z</time>
      </trkpt>
      <trkpt lat="47.20911" lon="-1.72695">
        <ele>-10.18</ele>
        <time>2016-11-27T14:36:57Z</time>
      </trkpt>
      <trkpt lat="47.20916" lon="-1.72722">
        <ele>-10.31</ele>
        <time>2016-11-27T14:37:02Z</time>
      </trkpt>
      <trkpt lat="47.20916" lon="-1.7275">
        <ele>-10.54</ele>
        <time>2016-11-27T14:37:09Z</time>
      </trkpt>
      <trkpt lat="47.20918" lon="-1.72777">
        <ele>-10.7</ele>
        <time>2016-11-27T14:37:18Z</time>
      </trkpt>
      <trkpt lat="47.20924" lon="-1.72803">
        <ele>-10.82</ele>
        <time>2016-11-27T14:37:24Z</time>
      </trkpt>
      <trkpt lat="47.20929" lon="-1.72833">
        <ele>-10.9</ele>
        <time>2016-11-27T14:37:30Z</time>
      </trkpt>
      <trkpt lat="47.20937" lon="-1.72859">
        <ele>-11.04</ele>
        <time>2016-11-27T14:37:36Z</time>
      </trkpt>
      <trkpt lat="47.20947" lon="-1.72888">
        <ele>-11.34</ele>
        <time>2016-11-27T14:37:44Z</time>
      </trkpt>
      <trkpt lat="47.20952" lon="-1.72915">
        <ele>-11.51</ele>
        <time>2016-11-27T14:37:50Z</time>
      </trkpt>
      <trkpt lat="47.20962" lon="-1.72941">
        <ele>-11.75</ele>
        <time>2016-11-27T14:37:56Z</time>
      </trkpt>
      <trkpt lat="47.20968" lon="-1.72968">
        <ele>-12.04</ele>
        <time>2016-11-27T14:38:02Z</time>
      </trkpt>
      <trkpt lat="47.20977" lon="-1.72997">
        <ele>-12.53</ele>
        <time>2016-11-27T14:38:10Z</time>
      </trkpt>
      <trkpt lat="47.20983" lon="-1.73023">
        <ele>-12.96</ele>
        <time>2016-11-27T14:38:17Z</time>
      </trkpt>
      <trkpt lat="47.20967" lon="-1.73039">
        <ele>-13.22</ele>
        <time>2016-11-27T14:38:24Z</time>
      </trkpt>
      <trkpt lat="47.20948" lon="-1.7305">
        <ele>-13.38</ele>
        <time>2016-11-27T14:38:32Z</time>
      </trkpt>
      <trkpt lat="47.2095" lon="-1.73079">
        <ele>-13.55</ele>
        <time>2016-11-27T14:38:40Z</time>
      </trkpt>
      <trkpt lat="47.20955" lon="-1.73106">
        <ele>-13.69</ele>
        <time>2016-11-27T14:38:49Z</time>
      </trkpt>
      <trkpt lat="47.20967" lon="-1.73127">
        <ele>-13.77</ele>
        <time>2016-11-27T14:38:57Z</time>
      </trkpt>
      <trkpt lat="47.20986" lon="-1.7313">
        <ele>-13.86</ele>
        <time>2016-11-27T14:39:03Z</time>
      </trkpt>
      <trkpt lat="47.21004" lon="-1.73124">
        <ele>-13.89</ele>
        <time>2016-11-27T14:39:09Z</time>
      </trkpt>
      <trkpt lat="47.21022" lon="-1.73123">
        <ele>-13.95</ele>
        <time>2016-11-27T14:39:24Z</time>
      </trkpt>
      <trkpt lat="47.21032" lon="-1.73148">
        <ele>-14.06</ele>
        <time>2016-11-27T14:39:34Z</time>
      </trkpt>
      <trkpt lat="47.2104" lon="-1.73175">
        <ele>-14.14</ele>
        <time>2016-11-27T14:39:42Z</time>
      </trkpt>
      <trkpt lat="47.21047" lon="-1.73205">
        <ele>-14.34</ele>
        <time>2016-11-27T14:39:48Z</time>
      </trkpt>
      <trkpt lat="47.21054" lon="-1.7323">
        <ele>-14.46</ele>
        <time>2016-11-27T14:39:54Z</time>
      </trkpt>
      <trkpt lat="47.21065" lon="-1.73254">
        <ele>-14.75</ele>
        <time>2016-11-27T14:40:02Z</time>
      </trkpt>
      <trkpt lat="47.21077" lon="-1.73278">
        <ele>-15.04</ele>
        <time>2016-11-27T14:40:10Z</time>
      </trkpt>
      <trkpt lat="47.21083" lon="-1.73306">
        <ele>-15.25</ele>
        <time>2016-11-27T14:40:19Z</time>
      </trkpt>
      <trkpt lat="47.21098" lon="-1.73324">
        <ele>-15.34</ele>
        <time>2016-11-27T14:40:31Z</time>
      </trkpt>
      <trkpt lat="47.21107" lon="-1.73301">
        <ele>-15.36</ele>
        <time>2016-11-27T14:40:38Z</time>
      </trkpt>
      <trkpt lat="47.2111" lon="-1.73272">
        <ele>-15.42</ele>
        <time>2016-11-27T14:40:44Z</time>
      </trkpt>
      <trkpt lat="47.21107" lon="-1.73245">
        <ele>-15.53</ele>
        <time>2016-11-27T14:40:52Z</time>
      </trkpt>
      <trkpt lat="47.21104" lon="-1.73218">
        <ele>-15.68</ele>
        <time>2016-11-27T14:41:00Z</time>
      </trkpt>
      <trkpt lat="47.2112" lon="-1.73199">
        <ele>-16.07</ele>
        <time>2016-11-27T14:41:09Z</time>
      </trkpt>
      <trkpt lat="47.21126" lon="-1.73228">
        <ele>-16.42</ele>
        <time>2016-11-27T14:41:21Z</time>
      </trkpt>
      <trkpt lat="47.21124" lon="-1.73254">
        <ele>-16.64</ele>
        <time>2016-11-27T14:41:29Z</time>
      </trkpt>
      <trkpt lat="47.21121" lon="-1.73285">
        <ele>-16.79</ele>
        <time>2016-11-27T14:41:35Z</time>
      </trkpt>
      <trkpt lat="47.2112" lon="-1.73312">
        <ele>-16.82</ele>
        <time>2016-11-27T14:41:40Z</time>
      </trkpt>
      <trkpt lat="47.21118" lon="-1.7334">
        <ele>-16.73</ele>
        <time>2016-11-27T14:41:45Z</time>
      </trkpt>
      <trkpt lat="47.21118" lon="-1.73369">
        <ele>-16.19</ele>
        <time>2016-11-27T14:41:50Z</time>
      </trkpt>
      <trkpt lat="47.21117" lon="-1.73397">
        <ele>-15.97</ele>
        <time>2016-11-27T14:41:55Z</time>
      </trkpt>
      <trkpt lat="47.21115" lon="-1.73425">
        <ele>-15.72</ele>
        <time>2016-11-27T14:42:01Z</time>
      </trkpt>
      <trkpt lat="47.21113" lon="-1.73453">
        <ele>-15.43</ele>
        <time>2016-11-27T14:42:08Z</time>
      </trkpt>
      <trkpt lat="47.21115" lon="-1.73483">
        <ele>-15.16</ele>
        <time>2016-11-27T14:42:14Z</time>
      </trkpt>
      <trkpt lat="47.21114" lon="-1.73516">
        <ele>-14.9</ele>
        <time>2016-11-27T14:42:20Z</time>
      </trkpt>
      <trkpt lat="47.21113" lon="-1.73546">
        <ele>-14.59</ele>
        <time>2016-11-27T14:42:27Z</time>
      </trkpt>
      <trkpt lat="47.21111" lon="-1.73574">
        <ele>-13.96</ele>
        <time>2016-11-27T14:42:32Z</time>
      </trkpt>
      <trkpt lat="47.21115" lon="-1.73601">
        <ele>-13.31</ele>
        <time>2016-11-27T14:42:37Z</time>
      </trkpt>
      <trkpt lat="47.21136" lon="-1.73596">
        <ele>-12.84</ele>
        <time>2016-11-27T14:42:42Z</time>
      </trkpt>
      <trkpt lat="47.21154" lon="-1.73591">
        <ele>-12.07</ele>
        <time>2016-11-27T14:42:46Z</time>
      </trkpt>
      <trkpt lat="47.21173" lon="-1.7358">
        <ele>-11.59</ele>
        <time>2016-11-27T14:42:51Z</time>
      </trkpt>
      <trkpt lat="47.2119" lon="-1.73596">
        <ele>-11.37</ele>
        <time>2016-11-27T14:43:01Z</time>
      </trkpt>
    </trkseg>
  </trk>
</gpx>